[[{"header":{"parameterUnit":"m.s-1","parameterCategory":1,"la1":31.0,"la2":29.5877,"lo1":-88.7671,"lo2":-86.6584,"dy":0.0162,"dx":0.0185,"nx":115,"ny":88,"refTime":"2024-07-04T18:00:00:Z","depth":0,"parameterNumber":2,"parameterNumberName":"U-component_of_WINDS"},"data":[0.0,0.0,0.0,0.0,0.0,0.0,0.0,0.0,0.0,0.0,0.0,0.0,0.0,0.0,0.0,0.0,0.0,0.0,0.0,0.0,0.0,0.0,0.0,0.0,0.0,0.0,0.0,0.0,0.0,0.0,0.0,0.0,0.0,0.0,0.0,0.0,0.0,0.0,0.0,0.0,0.0,0.0,0.0,0.0,0.0,0.0,0.0,0.0,0.0,0.0,0.0,0.0,0.0,0.0,0.0,0.0,0.0,0.0,0.0,0.0,0.0,0.0,0.0,0.0,0.0,0.0,0.0,0.0,0.0,0.0,0.0,0.0,0.0,0.0,0.0,0.0,0.0,0.0,0.0,0.0,0.0,0.0,0.0,0.0,0.0,0.0,0.0,0.0,0.0,0.0,0.0,0.0,0.0,0.0,0.0,0.0,0.0,0.0,0.0,0.0,0.0,0.0,0.0,0.0,0.0,0.0,0.0,0.0,0.0,0.0,0.0,0.0,0.0,0.0,0.0,0.0,0.0,0.0,0.0,0.0,0.0,0.0,0.0,0.0,0.0,0.0,0.0,0.0,0.0,0.0,0.0,0.0,0.0,0.0,0.0,0.0,0.0,0.0,0.0,0.0,0.0,0.0,0.0,0.0,0.0,0.0,0.0,0.0,0.0,0.0,0.0,0.0,0.0,0.0,0.0,0.0,0.0,0.0,0.0,0.0,0.0,0.0,0.0,0.0,0.0,0.0,0.0,0.0,0.0,0.0,0.0,0.0,0.0,0.0,0.0,0.0,0.0,0.0,0.0,0.0,0.0,0.0,0.0,0.0,0.0,0.0,0.0,0.0,0.0,0.0,0.0,0.0,0.0,0.0,0.0,0.0,0.0,0.0,0.0,0.0,0.0,0.0,0.0,0.0,0.0,0.0,0.0,0.0,0.0,0.0,0.0,0.0,0.0,0.0,0.0,0.0,0.0,0.0,0.0,0.0,0.0,0.0,0.0,0.0,0.0,0.0,0.0,0.0,0.0,0.0,0.0,0.0,0.0,0.0,0.0,0.0,0.0,0.0,0.0,0.0,0.0,0.0,0.0,0.0,0.0,0.0,0.0,0.0,0.0,0.0,0.0,0.0,0.0,0.0,0.0,0.0,0.0,0.0,0.0,0.0,0.0,0.0,0.0,0.0,0.0,0.0,0.0,0.0,0.0,0.0,0.0,0.0,0.0,0.0,0.0,0.0,0.0,0.0,0.0,0.0,0.0,0.0,0.0,0.0,0.0,0.0,0.0,0.0,0.0,0.0,0.0,0.0,0.0,0.0,0.0,0.0,0.0,0.0,0.0,0.0,0.0,0.0,0.0,0.0,0.0,0.0,0.0,0.0,0.0,0.0,0.0,0.0,0.0,0.0,0.0,0.0,0.0,0.0,0.0,0.0,0.0,0.0,0.0,0.0,0.0,0.0,0.0,0.0,0.0,0.0,0.0,0.0,0.0,0.0,0.0,0.0,0.0,0.0,0.0,0.0,0.0,0.0,0.0,0.0,0.0,0.0,0.0,0.0,0.0,0.0,0.0,0.0,0.0,0.0,0.0,0.0,0.0,0.0,0.0,0.0,0.0,0.0,0.0,0.0,0.0,0.0,0.0,0.0,0.0,0.0,0.0,0.0,0.0,0.0,0.0,0.0,0.0,0.0,0.0,0.0,0.0,0.0,0.0,0.0,0.0,0.0,0.0,0.0,0.0,0.0,0.0,0.0,0.0,0.0,0.0,0.0,0.0,0.0,0.0,0.0,0.0,0.0,0.0,0.0,0.0,0.0,0.0,0.0,0.0,0.0,0.0,0.0,0.0,0.0,0.0,0.0,0.0,0.0,0.0,0.0,0.0,0.0,0.0,0.0,0.0,0.0,0.0,0.0,0.0,0.0,0.0,0.0,0.0,0.0,0.0,0.0,0.0,0.0,0.0,0.0,0.0,0.0,0.0,0.0,0.0,0.0,0.0,0.0,0.0,0.0,0.0,0.0,0.0,0.0,0.0,0.0,0.0,0.0,0.0,0.0,0.0,0.0,0.0,0.0,0.0,0.0,0.0,0.0,0.0,0.0,0.0,0.0,0.0,0.0,0.0,0.0,0.0,0.0,0.0,0.0,0.0,0.0,0.0,0.0,0.0,0.0,0.0,0.0,0.0,0.0,0.0,0.0,0.0,0.0,0.0,0.0,0.0,0.0,0.0,0.0,0.0,0.0,0.0,0.0,0.0,0.0,0.0,0.0,0.0,0.0,0.0,0.0,0.0,0.0,0.0,0.0,0.0,0.0,0.0,0.0,0.0,0.0,0.0,0.0,0.0,0.0,0.0,0.0,0.0,0.0,0.0,0.0,0.0,0.0,0.0,0.0,0.0,0.0,0.0,0.0,0.0,0.0,0.0,0.0,0.0,0.0,0.0,0.0,0.0,0.0,0.0,0.0,0.0,0.0,0.0,0.0,0.0,0.0,0.0,0.0,0.0,0.0,0.0,0.0,0.0,0.0,0.0,0.0,0.0,0.0,0.0,0.0,0.0,0.0,0.0,0.0,0.0,0.0,0.0,0.0,0.0,0.0,0.0,0.0,0.0,0.0,0.0,0.0,0.0,0.0,0.0,0.0,0.0,0.0,0.0,0.0,0.0,0.0,0.0,0.0,0.0,0.0,0.0,0.0,0.0,0.0,0.0,0.0,0.0,0.0,0.0,0.0,0.0,0.0,0.0,0.0,0.0,0.0,0.0,0.0,0.0,0.0,0.0,0.0,0.0,0.0,0.0,0.0,0.0,0.0,0.0,0.0,0.0,0.0,0.0,0.0,0.0,0.0,0.0,0.0,0.0,0.0,0.0,0.0,0.0,0.0,0.0,0.0,0.0,0.0,0.0,0.0,0.0,0.0,0.0,0.0,0.0,0.0,0.0,0.0,0.0,0.0,0.0,0.0,0.0,0.0,0.0,0.0,0.0,0.0,0.0,0.0,0.0,0.0,0.0,0.0,0.0,0.0,0.0,0.0,0.0,0.0,0.0,0.0,0.0,0.0,0.0,0.0,0.0,0.0,0.0,0.0,0.0,0.0,0.0,0.0,0.0,0.0,0.0,0.0,0.0,0.0,0.0,0.0,0.0,0.0,0.0,0.0,0.0,0.0,0.0,0.0,0.0,0.0,0.0,0.0,0.0,0.0,0.0,0.0,0.0,0.0,0.0,0.0,0.0,0.0,0.0,0.0,0.0,0.0,0.0,0.0,0.0,0.0,0.0,0.0,0.0,0.0,0.0,0.0,0.0,0.0,0.0,0.0,0.0,0.0,0.0,0.0,0.0,0.0,0.0,0.0,0.0,0.0,0.0,0.0,0.0,0.0,0.0,0.0,0.0,0.0,0.0,0.0,0.0,0.0,0.0,0.0,0.0,0.0,0.0,0.0,0.0,0.0,0.0,0.0,0.0,0.0,0.0,0.0,0.0,0.0,0.0,0.0,0.0,0.0,0.0,0.0,0.0,0.0,0.0,0.0,0.0,0.0,0.0,0.0,0.0,0.0,0.0,0.0,0.0,0.0,0.0,0.0,0.0,0.0,0.0,0.0,0.0,0.0,0.0,0.0,0.0,0.0,0.0,0.0,0.0,0.0,0.0,0.0,0.0,0.0,0.0,0.0,0.0,0.0,0.0,0.0,0.0,0.0,0.0,0.0,0.0,0.0,0.0,0.0,0.0,0.0,0.0,0.0,0.0,0.0,0.0,0.0,0.0,0.0,0.0,0.0,0.0,0.0,0.0,0.0,0.0,0.0,0.0,0.0,0.0,0.0,0.0,0.0,0.0,0.0,0.0,0.0,0.0,0.0,0.0,0.0,0.0,0.0,0.0,0.0,0.0,0.0,0.0,0.0,0.0,0.0,0.0,0.0,0.0,0.0,0.0,0.0,0.0,0.0,0.0,0.0,0.0,0.0,0.0,0.0,0.0,0.0,0.0,0.0,0.0,0.0,0.0,0.0,0.0,0.0,0.0,0.0,0.0,0.0,0.0,0.0,0.0,0.0,0.0,0.0,0.0,0.0,0.0,0.0,0.0,0.0,0.0,0.0,0.0,0.0,0.0,0.0,0.0,0.0,0.0,0.0,0.0,0.0,0.0,0.0,0.0,0.0,0.0,0.0,0.0,0.0,0.0,0.0,0.0,0.0,0.0,0.0,0.0,0.0,0.0,0.0,0.0,0.0,0.0,0.0,0.0,0.0,0.0,0.0,0.0,0.0,0.0,0.0,0.0,0.0,0.0,0.0,0.0,0.0,0.442,0.0,0.0,0.0,0.0,0.0,0.0,0.0,0.0,0.0,0.0,0.0,0.0,0.0,0.0,0.0,0.0,0.0,0.0,0.0,0.0,0.0,0.0,0.0,0.0,0.0,0.0,0.0,0.0,0.0,0.0,0.0,0.0,0.0,0.0,0.0,0.0,0.0,0.0,0.0,0.0,0.0,0.0,0.0,0.0,0.0,0.0,0.0,0.0,0.0,0.0,0.0,0.0,0.0,0.0,0.0,0.0,0.0,0.0,0.0,0.0,0.0,0.0,0.0,0.0,0.0,0.0,0.0,0.0,0.0,0.0,0.0,0.0,0.0,0.0,0.0,0.0,0.0,0.0,0.0,0.0,0.0,0.0,0.0,0.0,0.0,0.0,0.0,0.0,0.0,0.0,0.0,0.0,0.0,0.0,0.0,0.0,0.0,0.0,0.0,0.0,0.0,0.0,0.0,0.0,0.0,0.0,0.0,0.0,0.0,0.0,0.4432,0.4454,0.4449,0.4426,0.442,0.0,0.0,0.0,0.0,0.0,0.0,0.0,0.0,0.0,0.0,0.0,0.0,0.0,0.0,0.0,0.0,0.0,0.0,0.0,0.0,0.0,0.0,0.0,0.0,0.0,0.0,0.0,0.0,0.0,0.0,0.0,0.0,0.0,0.0,0.0,0.0,0.0,0.0,0.0,0.0,0.0,0.0,0.0,0.0,0.0,0.0,0.0,0.0,0.0,0.0,0.0,0.0,0.0,0.0,0.0,0.0,0.0,0.0,0.0,0.0,0.0,0.0,0.0,0.0,0.0,0.0,0.0,0.0,0.0,0.0,0.0,0.0,0.0,0.0,0.0,0.0,0.0,0.0,0.0,0.0,0.0,0.0,0.0,0.0,0.0,0.0,0.0,0.0,0.0,0.0,0.0,0.0,0.0,0.0,0.0,0.0,0.0,0.0,0.0,0.0,0.0,0.0,0.0,0.0,0.0,0.0,0.0,0.0,0.0,0.0,0.0,0.0,0.4432,0.4487,0.466,0.0,0.0,0.0,0.0,0.0,0.0,0.0,0.0,0.0,0.0,0.0,0.0,0.0,0.0,0.0,0.0,0.0,0.0,0.0,0.0,0.0,0.0,0.0,0.0,0.0,0.0,0.0,0.0,0.0,0.0,0.0,0.0,0.0,0.0,0.0,0.0,0.0,0.0,0.0,0.0,0.0,0.0,0.0,0.0,0.0,0.0,0.0,0.0,0.0,0.0,0.0,0.0,0.0,0.0,0.0,0.0,0.0,0.0,0.0,0.0,0.0,0.0,0.0,0.0,0.0,0.0,0.0,0.0,0.0,0.0,0.0,0.0,0.0,0.0,0.0,0.0,0.0,0.0,0.0,0.0,0.0,0.0,0.0,0.0,0.0,0.0,0.0,0.0,0.0,0.0,0.0,0.0,0.0,0.0,0.0,0.0,0.0,0.0,0.0,0.0,0.0,0.0,0.0,0.0,0.0,0.0,0.0,0.0,0.0,0.0,0.4392,0.4409,0.4403,0.0,0.5338,0.0,0.0,0.0,0.0,0.0,0.0,0.0,0.0,0.0,0.0,0.0,0.0,0.0,0.0,0.0,0.0,0.0,0.0,0.0,0.0,0.0,0.0,0.0,0.0,0.0,0.0,0.0,0.0,0.0,0.0,0.0,0.0,0.0,0.0,0.0,0.0,0.0,0.0,0.0,0.0,0.0,0.0,0.0,0.0,0.0,0.0,0.0,0.0,0.0,0.0,0.0,0.0,0.0,0.0,0.0,0.0,0.0,0.0,0.0,0.0,0.0,0.0,0.0,0.0,0.0,0.0,0.0,0.0,0.0,0.0,0.0,0.0,0.0,0.0,0.0,0.0,0.0,0.0,0.0,0.0,0.0,0.0,0.0,0.0,0.0,0.0,0.0,0.0,0.0,0.0,0.0,0.0,0.0,0.0,0.0,0.0,0.0,0.0,0.0,0.0,0.0,0.0,0.0,0.0,0.0,0.0,0.0,0.0,0.0,0.0,0.0,0.5046,0.5046,0.5377,0.0,0.0,0.0,0.0,0.0,0.0,0.0,0.0,0.0,0.0,0.0,0.0,0.0,0.0,0.0,0.0,0.0,0.0,0.0,0.0,0.0,0.0,0.0,0.0,0.0,0.0,0.0,0.0,0.0,0.0,0.0,0.0,0.0,0.0,0.0,0.0,0.0,0.0,0.0,0.0,0.0,0.0,0.0,0.0,0.0,0.0,0.0,0.0,0.0,0.0,0.0,0.0,0.0,0.0,0.0,0.0,0.0,0.0,0.0,0.0,0.0,0.0,0.0,0.0,0.0,0.0,0.0,0.0,0.0,0.0,0.0,0.0,0.0,0.0,0.0,0.0,0.0,0.0,0.0,0.0,0.0,0.0,0.0,0.0,0.0,0.0,0.0,0.0,0.0,0.0,0.0,0.0,0.0,0.0,0.0,0.0,0.0,0.0,0.0,0.0,0.0,0.0,0.0,0.0,0.0,0.0,0.0,0.0,0.0,0.0,0.4883,0.0,0.5197,0.5391,0.5653,0.5913,0.0,0.0,0.0,0.0,0.0,0.0,0.0,0.0,0.0,0.0,0.0,0.0,0.0,0.0,0.0,0.0,0.0,0.0,0.0,0.0,0.0,0.0,0.0,0.0,0.0,0.0,0.0,0.0,0.0,0.0,0.0,0.0,0.0,0.0,0.0,0.0,0.0,0.0,0.0,0.0,0.0,0.0,0.0,0.0,0.0,0.0,0.0,0.0,0.0,0.0,0.0,0.0,0.0,0.0,0.0,0.0,0.0,0.0,0.0,0.0,0.0,0.0,0.0,0.0,0.0,0.0,0.0,0.0,0.0,0.0,0.0,0.0,0.0,0.0,0.0,0.0,0.0,0.0,0.0,0.0,0.0,0.0,0.0,0.0,0.0,0.0,0.0,0.0,0.0,0.0,0.0,0.0,0.0,0.0,0.0,0.0,0.0,0.0,0.0,0.0,0.0,0.0,0.0,0.0,0.0,0.0,0.0,0.0,0.0,0.4421,0.4458,0.4538,0.5146,0.5207,0.0,0.0,0.0,0.0,0.0,0.0,0.0,0.0,0.0,0.0,0.0,0.0,0.0,0.0,0.0,0.0,0.0,0.0,0.0,0.0,0.0,0.0,0.0,0.0,0.0,0.0,0.0,0.0,0.0,0.0,0.0,0.0,0.0,0.0,0.0,0.0,0.0,0.0,0.0,0.0,0.0,0.0,0.0,0.0,0.0,0.0,0.0,0.0,0.0,0.0,0.0,0.0,0.0,0.0,0.0,0.0,0.0,0.0,0.0,0.0,0.0,0.0,0.0,0.0,0.0,0.0,0.0,0.0,0.0,0.0,0.0,0.0,0.0,0.0,0.0,0.0,0.0,0.0,0.0,0.0,0.0,0.0,0.0,0.0,0.0,0.0,0.0,0.0,0.0,0.0,0.0,0.0,0.0,0.0,0.0,0.0,0.0,0.0,0.0,0.0,0.0,0.0,0.0,0.0,0.0,0.0,0.0,0.0,0.0,0.4352,0.5289,0.6075,0.0,0.6336,0.5867,0.0,0.0,0.0,0.0,0.0,0.0,0.0,0.0,0.0,0.0,0.0,0.0,0.0,0.0,0.0,0.0,0.0,0.0,0.0,0.0,0.0,0.0,0.0,0.0,0.0,0.0,0.0,0.0,0.0,0.0,0.0,0.0,0.0,0.0,0.0,0.0,0.0,0.0,0.0,0.0,0.0,0.0,0.0,0.0,0.0,0.0,0.0,0.0,0.0,0.0,0.0,0.0,0.0,0.0,0.0,0.0,0.0,0.0,0.0,0.0,0.0,0.0,0.0,0.0,0.0,0.0,0.0,0.0,0.0,0.0,0.0,0.0,0.0,0.0,0.0,0.0,0.0,0.0,0.0,0.0,0.0,0.0,0.0,0.0,0.0,0.0,0.0,0.0,0.0,0.0,0.0,0.0,0.0,0.0,0.0,0.0,0.0,0.0,0.0,0.0,0.0,0.0,0.0,0.0,0.0,0.0,0.0,0.0,0.0,0.4681,0.0,0.7109,0.0,0.7143,0.6495,0.0,0.0,0.0,0.0,0.0,0.0,0.0,0.0,0.0,0.0,0.0,0.0,0.0,0.0,0.0,0.0,0.0,0.0,0.0,0.0,0.0,0.0,0.0,0.0,0.0,0.0,0.0,0.0,0.0,0.0,0.0,0.0,0.0,0.0,0.0,0.0,0.0,0.0,0.0,0.0,0.0,0.0,0.0,0.0,0.0,0.0,0.0,0.0,0.0,0.0,0.0,0.0,0.0,0.0,0.0,0.0,0.0,0.0,0.0,0.0,0.0,0.0,0.0,0.0,0.0,0.0,0.0,0.0,0.0,0.0,0.0,0.0,0.0,0.0,0.0,0.0,0.0,0.0,0.0,0.0,0.0,0.0,0.0,0.0,0.0,0.0,0.0,0.0,0.0,0.0,0.0,0.0,0.0,0.0,0.0,0.0,0.0,0.0,0.0,0.0,0.0,0.0,0.0,0.0,0.0,0.0,0.0,0.0,0.0,0.5427,0.6913,0.7359,0.6662,0.7304,0.6968,0.0,0.0,0.0,0.0,0.0,0.0,0.0,0.0,0.0,0.0,0.0,0.0,0.0,0.0,0.0,0.0,0.0,0.0,0.0,0.0,0.0,0.0,0.0,0.0,0.0,0.0,0.0,0.0,0.0,0.0,0.0,0.0,0.0,0.0,0.0,0.0,0.0,0.0,0.0,0.0,0.0,0.0,0.0,0.0,0.0,0.0,0.0,0.0,0.0,0.0,0.0,0.0,0.0,0.0,0.0,0.0,0.0,0.0,0.0,0.0,0.0,0.0,0.0,0.0,0.0,0.0,0.0,0.0,0.0,0.0,0.0,0.0,0.0,0.0,0.0,0.0,0.0,0.0,0.0,0.0,0.0,0.0,0.0,0.0,0.0,0.0,0.0,0.0,0.0,0.0,0.0,0.0,0.0,0.0,0.0,0.0,0.0,0.0,0.0,0.0,0.0,0.0,0.0,0.0,0.0,0.0,0.0,0.0,0.0,0.6899,0.7424,0.7581,0.7387,0.7587,0.7198,0.0,0.0,0.0,0.0,0.0,0.0,0.0,0.0,0.0,0.0,0.0,0.0,0.0,0.0,0.0,0.0,0.0,0.0,0.0,0.0,0.0,0.0,0.0,0.0,0.0,0.0,0.0,0.0,0.0,0.0,0.0,0.0,0.0,0.0,0.0,0.0,0.0,0.0,0.0,0.0,0.0,0.0,0.0,0.0,0.0,0.0,0.0,0.0,0.0,0.0,0.0,0.0,0.0,0.0,0.0,0.0,0.0,0.0,0.0,0.0,0.0,0.0,0.0,0.0,0.0,0.0,0.0,0.0,0.0,0.0,0.0,0.0,0.0,0.0,0.0,0.0,0.0,0.0,0.0,0.0,0.0,0.0,0.0,0.0,0.0,0.0,0.0,0.0,0.0,0.0,0.0,0.0,0.0,0.0,0.0,0.0,0.0,0.0,0.0,0.0,0.0,0.0,0.0,0.0,0.0,0.0,0.0,0.0,0.0,0.8298,0.8406,0.8447,0.8442,0.8447,0.7929,0.6853,0.0,0.0,0.0,0.0,0.0,0.0,0.0,0.0,0.0,0.0,0.0,0.0,0.0,0.0,0.0,0.0,0.0,0.0,0.0,0.0,0.0,0.0,0.0,0.0,0.0,0.0,0.0,0.0,0.0,0.0,0.0,0.0,0.0,0.0,0.0,0.0,0.0,0.0,0.0,0.0,0.0,0.0,0.0,0.0,0.0,0.0,0.0,0.0,0.0,0.0,0.0,0.0,0.0,0.0,0.0,0.0,0.0,0.0,0.0,0.0,0.0,0.0,0.0,0.0,0.0,0.0,0.0,0.0,0.0,0.0,0.0,0.0,0.0,0.0,0.0,0.0,0.0,0.0,0.0,0.0,0.0,0.0,0.0,0.0,0.0,0.0,0.0,0.0,0.0,0.0,0.0,0.0,0.0,0.0,0.0,0.0,0.0,0.0,0.0,0.0,0.0,0.0,0.0,0.0,0.0,0.0,0.0,0.0,0.9662,0.9792,0.9828,0.9724,0.9694,0.9049,0.0,0.0,0.0,0.0,0.0,0.0,0.0,0.0,0.0,0.0,0.0,0.0,0.0,0.0,0.0,0.0,0.0,0.0,0.0,0.0,0.0,0.0,0.0,0.0,0.0,0.0,0.0,0.0,0.0,0.0,0.0,0.0,0.0,0.0,0.0,0.0,0.0,0.0,0.0,0.0,0.0,0.0,0.0,0.0,0.0,0.0,0.0,0.0,0.0,0.0,0.0,0.0,0.0,0.0,0.0,0.0,0.0,0.0,0.0,0.0,0.0,0.0,0.0,0.0,0.0,0.0,0.0,0.0,0.0,0.0,0.0,0.0,0.0,0.0,0.0,0.0,0.0,0.0,0.0,0.0,0.0,0.0,0.0,0.0,0.0,0.0,0.0,0.0,0.0,0.0,0.0,0.0,0.0,0.0,0.0,0.0,0.0,0.0,0.0,0.0,0.0,0.0,0.0,0.0,0.0,0.0,0.0,0.0,0.0,1.1566,1.1769,1.1395,1.0458,0.9904,0.9394,0.0,0.0,0.0,0.0,0.0,0.0,0.0,0.0,0.0,0.0,0.0,0.0,0.0,0.0,0.0,0.0,0.0,0.0,0.0,0.0,0.0,0.0,0.0,0.0,0.0,0.0,0.0,0.0,0.0,0.0,0.0,0.0,0.0,0.0,0.0,0.0,0.0,0.0,0.0,0.0,0.0,0.0,0.0,0.0,0.0,0.0,0.0,0.0,0.0,0.0,0.0,0.0,0.0,0.0,0.0,0.0,0.0,0.0,0.0,0.0,0.0,0.0,0.0,0.0,0.0,0.0,0.0,0.0,0.0,0.0,0.0,0.0,0.0,0.0,0.0,0.0,0.0,0.0,0.0,0.0,0.0,0.0,0.0,0.0,0.0,0.0,0.0,0.0,0.0,0.0,0.0,0.0,0.0,0.0,0.0,0.0,0.0,0.0,0.0,0.0,0.0,0.0,0.0,0.0,0.0,0.0,0.0,0.0,1.0444,1.2265,1.2747,1.2748,1.2278,1.1327,1.0367,0.0,0.0,0.0,0.0,0.0,0.0,0.0,0.0,0.0,0.0,0.0,0.0,0.0,0.0,0.0,0.0,0.0,0.0,0.0,0.0,0.0,0.0,0.0,0.0,0.0,0.0,0.0,0.0,0.0,0.0,0.0,0.0,0.0,0.0,0.0,0.0,0.0,0.0,0.0,0.0,0.0,0.0,0.0,0.0,0.0,0.0,0.0,0.0,0.0,0.0,0.0,0.0,0.0,0.0,0.0,0.0,0.0,0.0,0.0,0.0,0.0,0.0,0.0,0.0,0.0,0.0,0.0,0.0,0.0,0.0,0.0,0.0,0.0,0.0,0.0,0.0,0.0,0.0,0.0,0.0,0.0,0.0,0.0,0.0,0.0,0.0,0.0,0.0,0.0,0.0,0.0,0.0,0.0,0.0,0.0,0.0,0.0,0.0,0.0,0.0,0.0,0.0,0.0,0.0,0.0,0.0,0.0,0.0,1.0974,1.237,1.3224,1.3942,1.4437,1.3199,1.1587,0.0,0.0,0.0,0.0,0.0,0.0,0.0,0.0,0.0,0.0,0.0,0.0,0.0,0.0,0.0,0.0,0.0,0.0,0.0,0.0,0.0,0.0,0.0,0.0,0.0,0.0,0.0,0.0,0.0,0.0,0.0,0.0,0.0,0.0,0.0,0.0,0.0,0.0,0.0,0.0,0.0,0.0,0.0,0.0,0.0,0.0,0.0,0.0,0.0,0.0,0.0,0.0,0.0,0.0,0.0,0.0,0.0,0.0,0.0,0.0,0.0,0.0,0.0,0.0,0.0,0.0,0.0,0.0,0.0,0.0,0.0,0.0,0.0,0.0,0.0,0.0,0.0,0.0,0.0,0.0,0.0,0.0,0.0,0.0,0.0,0.0,0.0,0.0,0.0,0.0,0.0,0.0,0.0,0.0,0.0,0.0,0.0,0.0,0.0,0.0,0.0,0.0,0.0,0.0,0.0,0.0,0.0,0.0,1.2268,1.3643,1.4446,1.4887,1.5026,1.3396,1.1983,0.0,0.0,0.0,0.0,0.0,0.0,0.0,0.0,0.0,0.0,0.0,0.0,0.0,0.0,0.0,0.0,0.0,0.0,0.0,0.0,0.0,0.0,0.0,0.0,0.0,0.0,0.0,0.0,0.0,0.0,0.0,0.0,0.0,0.0,0.0,0.0,0.0,0.0,0.0,0.0,0.0,0.0,0.0,0.0,0.0,0.0,0.0,0.0,0.765,0.0,0.0,0.0,0.0,0.0,0.0,0.0,0.0,0.0,0.0,0.0,0.0,0.0,0.0,0.0,0.0,0.0,0.0,0.0,0.0,0.0,0.0,0.0,0.0,0.0,0.0,0.0,0.0,0.0,0.0,0.0,0.0,0.0,0.0,0.0,0.0,0.0,0.0,0.0,0.0,0.0,0.0,0.0,0.0,0.0,0.0,0.0,0.0,0.0,0.0,0.0,0.0,0.0,0.0,0.0,0.0,0.0,0.0,0.0,1.2621,1.3959,1.475,1.5308,1.5511,1.4069,1.2598,0.0,0.0,0.0,0.0,0.0,0.0,0.0,0.0,0.0,0.0,0.0,0.0,0.0,0.0,0.0,0.0,0.0,0.0,0.0,0.0,0.0,0.0,0.0,0.0,0.0,0.0,0.0,0.0,0.0,0.0,0.0,0.0,0.0,0.0,0.0,0.0,0.0,0.0,0.0,0.0,0.0,0.0,0.0,0.0,0.0,0.0,0.0,0.0,0.0,0.0,0.0,0.0,0.0,0.0,0.0,0.0,0.0,0.0,0.0,0.0,0.0,0.0,0.0,0.0,0.0,0.0,0.0,0.0,0.0,0.0,0.0,0.0,0.0,0.0,0.0,0.0,0.0,0.0,0.0,0.0,0.0,0.0,0.0,0.0,0.0,0.0,0.0,0.0,0.0,0.0,0.0,0.0,0.0,0.0,0.0,0.0,0.0,0.0,0.0,0.0,0.0,0.0,0.0,0.0,0.0,0.0,0.0,1.1356,1.2689,1.3825,1.4686,1.5379,1.5866,1.4678,1.3145,1.1287,0.0,0.0,0.0,0.0,0.0,0.0,0.0,0.0,0.0,0.0,0.0,0.0,0.0,0.0,0.0,0.0,0.0,0.0,0.0,0.0,0.0,0.0,0.0,0.0,0.0,0.0,0.0,0.0,0.0,0.0,0.0,0.0,0.0,0.0,0.0,0.0,0.0,0.0,0.6338,0.6978,0.0,0.0,0.0,0.0,0.0,0.0,0.0,0.0,0.7329,0.0,0.0,0.0,0.0,0.0,0.0,0.0,0.0,0.0,0.0,0.0,0.0,0.0,0.0,0.0,0.0,0.0,0.0,0.0,0.0,0.0,0.0,0.0,0.0,0.0,0.0,0.0,0.0,0.0,0.0,0.0,0.0,0.0,0.0,0.0,0.0,0.0,0.0,0.0,0.0,0.0,0.0,0.0,0.0,0.0,0.0,0.0,0.0,0.0,0.0,0.0,0.0,0.0,0.0,0.0,0.0,0.9669,1.1966,1.3293,1.3591,1.474,1.5433,1.5536,1.435,1.304,1.1644,0.0,0.0,0.0,0.0,0.0,0.0,0.0,0.0,0.0,0.0,0.0,0.0,0.0,0.0,0.0,0.0,0.0,0.0,0.0,0.0,0.0,0.0,0.0,0.0,0.0,0.0,0.0,0.0,0.0,0.0,0.0,0.0,0.0,0.0,0.0,0.0,0.0,0.0,0.0,0.7116,0.7171,0.0,0.0,0.0,0.0,0.0,0.0,0.0,0.0,0.7294,0.0,0.0,0.0,0.0,0.0,0.0,0.0,0.0,0.0,0.0,0.0,0.0,0.0,0.0,0.0,0.0,0.0,0.0,0.0,0.0,0.0,0.0,0.0,0.0,0.0,0.0,0.0,0.0,0.0,0.0,0.0,0.0,0.0,0.0,0.0,0.0,0.0,0.0,0.0,0.0,0.0,0.0,0.0,0.0,0.0,0.0,0.0,0.0,0.0,0.0,0.0,0.0,0.0,0.0,0.0,0.9999,1.2105,1.3408,1.3724,1.4688,1.5239,1.5329,1.4105,1.2823,0.0,0.0,0.0,0.0,0.0,0.0,0.0,0.0,0.0,0.0,0.0,0.0,0.0,0.0,0.0,0.0,0.0,0.0,0.0,0.0,0.0,0.0,0.0,0.0,0.0,0.0,0.0,0.0,0.0,0.0,0.0,0.0,0.0,0.0,0.0,0.0,0.0,0.0,0.0,0.0,0.7347,0.7533,0.7567,0.0,0.0,0.0,0.0,0.0,0.0,0.7793,0.7608,0.0,0.0,0.0,0.0,0.0,0.0,0.0,0.0,0.0,0.0,0.0,0.0,0.0,0.0,0.0,0.0,0.0,0.0,0.0,0.0,0.0,0.0,0.0,0.0,0.0,0.0,0.0,0.0,0.0,0.0,0.0,0.0,0.0,0.0,0.0,0.0,0.0,0.0,0.0,0.0,0.0,0.0,0.0,0.0,0.0,0.0,0.0,0.0,0.0,0.0,0.0,0.0,0.0,0.0,0.0,1.0114,1.1908,1.3137,1.3766,1.4473,1.4935,1.5013,1.3813,1.2596,0.0,0.0,0.0,0.0,0.0,0.0,0.0,0.0,0.0,0.0,0.0,0.0,0.0,0.0,0.0,0.0,0.0,0.0,0.0,0.0,0.0,0.0,0.0,0.0,0.0,0.0,0.0,0.0,0.0,0.0,0.0,0.0,0.0,0.0,0.0,0.0,0.0,0.0,0.0,0.0,0.0,0.7904,0.7944,0.7968,0.0,0.0,0.0,0.0,0.861,0.8339,0.0,0.0,0.0,0.0,0.0,0.0,0.0,0.0,0.0,0.0,0.0,0.0,0.0,0.0,0.0,0.0,0.0,0.0,0.0,0.0,0.0,0.0,0.0,0.0,0.0,0.0,0.0,0.0,0.0,0.0,0.0,0.0,0.0,0.0,0.0,0.0,0.0,0.0,0.0,0.0,0.0,0.0,0.0,0.0,0.0,0.0,0.0,0.0,0.0,0.0,0.0,0.0,0.0,0.0,0.0,0.0,0.9706,1.1243,1.2484,1.3364,1.4024,1.4447,1.455,1.3443,1.231,0.0,0.0,0.0,0.0,0.0,0.0,0.0,0.0,0.0,0.0,0.0,0.0,0.0,0.0,0.0,0.0,0.0,0.0,0.0,0.0,0.0,0.0,0.0,0.0,0.0,0.0,0.0,0.0,0.0,0.0,0.0,0.0,0.0,0.0,0.0,0.0,0.0,0.0,0.0,0.0,0.0,0.7947,0.8061,0.8313,0.8416,0.0,0.0,0.8555,0.8696,0.8656,0.0,0.0,0.0,0.0,0.0,0.0,0.0,0.0,0.0,0.0,0.0,0.0,0.0,0.0,0.0,0.0,0.0,0.0,0.0,0.0,0.0,0.0,0.0,0.0,0.0,0.0,0.0,0.0,0.0,0.0,0.0,0.0,0.0,0.0,0.0,0.0,0.0,0.0,0.0,0.0,0.0,0.0,0.0,0.0,0.0,0.0,0.0,0.0,0.0,0.0,0.0,0.0,0.0,0.0,0.0,0.8978,0.9824,1.1114,1.2277,1.3298,1.3684,1.3927,1.4065,1.2987,1.1912,0.0,0.0,0.0,0.0,0.0,0.0,0.0,0.0,0.0,0.0,0.0,0.0,0.0,0.0,0.0,0.0,0.0,0.0,0.0,0.0,0.0,0.0,0.0,0.0,0.0,0.0,0.0,0.0,0.0,0.0,0.0,0.0,0.0,0.0,0.0,0.0,0.0,0.0,0.0,0.0,0.0,0.0,0.8633,0.9076,0.0,0.0,0.0,1.0007,1.0456,0.0,0.0,0.0,0.0,0.0,0.0,0.0,0.0,0.0,0.0,0.0,0.0,0.0,0.0,0.0,0.0,0.0,0.0,0.0,0.0,0.0,0.0,0.0,0.0,0.0,0.0,0.0,0.0,0.0,0.0,0.0,0.0,0.0,0.0,0.0,0.0,0.0,0.0,0.0,0.0,0.0,0.0,0.0,0.0,0.0,0.0,0.0,0.0,0.0,0.0,0.0,0.0,0.0,0.0,0.0,0.0,0.0,0.9893,1.1064,1.2172,1.3204,1.3276,1.3378,1.3535,1.2515,0.0,0.0,0.0,0.0,0.0,0.0,0.0,0.0,0.0,0.0,0.0,0.0,0.0,0.0,0.0,0.0,0.0,0.0,0.0,0.0,0.0,0.0,0.0,0.0,0.0,0.0,0.0,0.3777,0.0,0.0,0.0,0.0,0.0,0.0,0.0,0.0,0.0,0.0,0.0,0.0,0.0,0.0,0.9014,0.9305,0.9894,1.0606,0.0,0.0,1.114,1.1708,1.0979,1.0187,0.0,0.0,0.0,0.0,0.0,0.0,0.0,0.0,0.0,0.0,0.0,0.0,0.0,0.0,0.0,0.0,0.0,0.0,0.0,0.0,0.0,0.0,0.0,0.0,0.0,0.0,0.0,0.0,0.0,0.0,0.0,0.0,0.0,0.0,0.0,0.0,0.0,0.0,0.0,0.0,0.0,0.0,0.0,0.0,0.0,0.0,0.0,0.0,0.0,0.0,0.0,0.0,0.0,0.0,0.0,0.9605,1.0932,1.1984,1.2801,1.2766,1.2883,1.3116,1.2109,1.1051,0.0,0.0,0.0,0.0,0.0,0.0,0.0,0.0,0.0,0.0,0.0,0.0,0.0,0.0,0.0,0.0,0.0,0.0,0.0,0.0,0.0,0.0,0.0,0.0,0.0,0.0,0.0,0.0,0.0,0.0,0.0,0.0,0.0,0.0,0.0,0.0,0.0,0.0,0.0,0.0,0.0,0.9792,1.0007,1.0675,1.1402,0.0,0.0,1.1399,1.152,1.1103,1.0566,1.0045,0.0,0.0,0.0,0.0,0.0,0.0,0.0,0.0,0.0,0.0,0.0,0.0,0.0,0.0,0.0,0.0,0.0,0.0,0.0,0.0,0.0,0.0,0.0,0.0,0.0,0.0,0.0,0.0,0.0,0.0,0.0,0.0,0.0,0.0,0.0,0.0,0.0,0.0,0.0,0.0,0.0,0.0,0.0,0.0,0.0,0.0,0.0,0.0,0.0,0.0,0.0,0.0,0.0,0.8311,0.9298,1.0325,1.1279,1.2139,1.221,1.2318,1.2473,1.1628,1.0658,0.0,0.0,0.0,0.0,0.0,0.0,0.0,0.0,0.0,0.0,0.0,0.0,0.0,0.0,0.0,0.0,0.0,0.0,0.0,0.0,0.0,0.0,0.0,0.0,0.0,0.0,0.0,0.0,0.5493,0.5895,0.6187,0.0,0.0,0.0,0.0,0.0,0.0,0.0,0.0,0.0,0.0,0.9634,1.0526,1.0908,0.0,0.0,1.1896,1.1914,1.2137,1.1748,1.113,1.0281,0.9632,0.0,0.0,0.0,0.0,0.0,0.0,0.0,0.0,0.0,0.0,0.0,0.0,0.0,0.0,0.0,0.0,0.0,0.0,0.0,0.0,0.0,0.0,0.0,0.0,0.0,0.0,0.0,0.0,0.0,0.0,0.0,0.0,0.0,0.0,0.0,0.0,0.0,0.0,0.0,0.0,0.0,0.0,0.0,0.0,0.0,0.0,0.0,0.0,0.0,0.0,0.0,0.0,0.8079,0.9119,0.9872,1.0721,1.1641,1.1689,1.1763,1.1898,1.109,1.0251,0.0,0.0,0.0,0.0,0.0,0.0,0.0,0.0,0.0,0.0,0.0,0.0,0.0,0.0,0.0,0.0,0.0,0.0,0.0,0.0,0.0,0.0,0.0,0.0,0.0,0.0,0.0,0.0,0.5704,0.5928,0.6189,0.0,0.0,0.0,0.0,0.0,0.0,0.0,0.0,0.0,0.0,0.9709,1.0638,1.0934,1.1168,1.1383,1.1675,1.1957,1.2234,1.1803,1.1195,1.0448,0.0,0.0,0.0,0.0,0.0,0.0,0.0,0.0,0.0,0.0,0.0,0.0,0.0,0.0,0.0,0.0,0.0,0.0,0.0,0.0,0.0,0.0,0.0,0.0,0.0,0.0,0.0,0.0,0.0,0.0,0.5446,0.0,0.0,0.0,0.0,0.0,0.0,0.0,0.0,0.0,0.0,0.0,0.0,0.0,0.0,0.0,0.0,0.0,0.0,0.0,0.0,0.0,0.0,0.0,0.9193,0.9649,1.0381,1.1276,1.1308,1.1394,1.1457,1.055,0.986,0.9463,0.0,0.0,0.0,0.0,0.0,0.0,0.0,0.0,0.0,0.0,0.0,0.0,0.0,0.0,0.0,0.0,0.0,0.0,0.0,0.0,0.0,0.0,0.0,0.0,0.0,0.0,0.5415,0.5797,0.6009,0.0,0.0,0.0,0.0,0.0,0.0,0.0,0.0,0.0,0.0,0.939,1.0161,1.0223,1.0691,1.0926,1.069,1.105,1.1367,1.1549,1.1028,1.062,0.0,0.0,0.0,0.0,0.0,0.0,0.0,0.0,0.0,0.0,0.0,0.0,0.0,0.0,0.0,0.0,0.0,0.0,0.0,0.0,0.0,0.0,0.0,0.0,0.0,0.0,0.0,0.5989,0.6032,0.0,0.0,0.0,0.0,0.0,0.0,0.0,0.0,0.0,0.0,0.0,0.9023,0.9197,0.0,0.0,0.0,0.0,0.0,0.0,0.0,0.0,0.0,0.0,0.0,0.0,0.8065,0.8725,0.9416,1.0051,1.0629,1.0677,1.0715,1.0753,1.0288,0.958,0.8656,0.0,0.0,0.0,0.0,0.0,0.0,0.0,0.0,0.0,0.0,0.0,0.0,0.0,0.0,0.0,0.0,0.0,0.0,0.0,0.0,0.0,0.0,0.0,0.0,0.0,0.5558,0.0,0.0,0.0,0.0,0.0,0.0,0.0,0.0,0.0,0.0,0.0,0.8146,0.9178,0.9655,1.0041,1.041,1.082,1.1064,0.0,0.0,0.0,0.0,0.0,0.0,0.0,0.0,0.0,0.0,0.0,0.0,0.0,0.0,0.7568,0.7466,0.7143,0.6867,0.6867,0.0,0.0,0.0,0.0,0.0,0.0,0.0,0.0,0.0,0.0,0.0,0.0,0.0,0.0,0.6581,0.0,0.6632,0.0,0.0,0.0,0.0,0.0,0.0,0.0,0.0,0.8322,0.8911,0.9551,0.9739,0.9873,0.0,0.946,0.8844,0.0,0.0,0.0,0.0,0.0,0.0,0.0,0.0,0.8114,0.8824,0.9379,0.9906,1.04,1.0366,1.0329,1.032,0.9904,0.9126,0.7938,0.7373,0.6683,0.0,0.0,0.0,0.0,0.0,0.0,0.0,0.0,0.0,0.0,0.0,0.0,0.0,0.0,0.0,0.0,0.0,0.0,0.0,0.0,0.0,0.0,0.0,0.5453,0.0,0.0,0.0,0.0,0.0,0.0,0.0,0.0,0.0,0.807,0.815,0.8523,0.9529,0.9835,1.0131,1.0507,0.0,0.0,0.0,0.0,0.0,0.0,0.0,1.0874,1.0459,1.0249,0.9984,0.9384,0.8977,0.8713,0.8574,0.0,0.0,0.8008,0.7682,0.7448,0.7468,0.7142,0.702,0.7427,0.7512,0.7558,0.0,0.0,0.0,0.0,0.0,0.0,0.0,0.0,0.6853,0.6935,0.0,0.6978,0.0,0.0,0.0,0.0,0.0,0.7141,0.0,0.0,0.8621,0.9114,0.934,0.9843,1.0112,1.0157,0.9831,0.9459,0.901,0.7661,0.0,0.0,0.0,0.0,0.0,0.0,0.8054,0.9397,0.9545,0.9944,1.0615,1.0342,1.0176,1.014,0.9463,0.8544,0.7412,0.7498,0.7205,0.6322,0.5504,0.0,0.0,0.0,0.0,0.0,0.0,0.0,0.0,0.0,0.0,0.0,0.0,0.0,0.0,0.0,0.0,0.0,0.0,0.0,0.0,0.5282,0.0,0.0,0.0,0.0,0.0,0.0,0.0,0.0,0.0,0.0,0.7875,0.8716,0.9413,0.9448,0.0,0.0,0.0,0.0,1.001,1.012,1.0039,1.0026,0.9981,0.9892,0.9839,0.9823,0.0,0.0,0.9166,0.9119,0.904,0.8562,0.8517,0.8466,0.8017,0.7881,0.7844,0.7817,0.7746,0.7795,0.7859,0.787,0.7799,0.6961,0.0,0.0,0.0,0.0,0.7211,0.7378,0.7547,0.7486,0.7579,0.7741,0.7725,0.0,0.0,0.0,0.0,0.0,0.0,0.8129,0.8328,0.8759,0.9096,0.9439,0.958,0.9723,0.9859,0.9755,0.9538,0.9213,0.8594,0.7904,0.7191,0.0,0.0,0.0,0.0,0.8562,0.8918,0.935,0.9729,0.9893,0.9838,0.9697,0.9486,0.8765,0.8259,0.7971,0.7732,0.7274,0.6542,0.6101,0.0,0.0,0.0,0.0,0.0,0.0,0.0,0.0,0.0,0.0,0.0,0.0,0.0,0.0,0.0,0.0,0.0,0.0,0.0,0.5117,0.5357,0.5456,0.0,0.0,0.0,0.0,0.0,0.0,0.0,0.0,0.0,0.8358,0.8865,0.9364,0.0,0.0,1.0188,1.0623,1.0284,0.9953,0.9771,0.0,0.0,0.0,0.9765,0.9807,0.978,0.9647,0.9452,0.9098,0.8962,0.8811,0.8453,0.8158,0.7972,0.8086,0.7943,0.7868,0.7963,0.7842,0.7701,0.7747,0.7747,0.7763,0.6668,0.6848,0.7103,0.7235,0.728,0.7463,0.7551,0.7595,0.7676,0.7771,0.7866,0.799,0.8034,0.8034,0.795,0.0,0.0,0.0,0.8306,0.8521,0.8616,0.8826,0.9184,0.9242,0.9285,0.9386,0.9437,0.9316,0.9044,0.8842,0.8361,0.7679,0.0,0.0,0.7941,0.8471,0.8861,0.9117,0.939,0.9621,0.9763,0.9581,0.9282,0.8766,0.8385,0.8079,0.7871,0.7672,0.7233,0.6602,0.6253,0.578,0.0,0.0,0.0,0.0,0.0,0.0,0.0,0.0,0.0,0.0,0.0,0.3216,0.0,0.0,0.0,0.0,0.4468,0.4624,0.5135,0.5376,0.0,0.0,0.0,0.0,0.0,0.0,0.0,0.7205,0.7979,0.855,0.8579,0.8835,0.9187,0.9696,0.9745,0.9857,1.0328,0.0,0.9451,0.919,0.919,0.9197,0.9152,0.92,0.9238,0.9242,0.9145,0.8988,0.8751,0.8501,0.8296,0.8137,0.783,0.767,0.7895,0.7729,0.7591,0.7904,0.7835,0.7704,0.7704,0.7704,0.7672,0.5996,0.6171,0.6806,0.7158,0.7297,0.7297,0.7393,0.7483,0.7532,0.7592,0.7695,0.7839,0.7976,0.8112,0.8065,0.0,0.7589,0.7802,0.8074,0.8383,0.8296,0.8383,0.8692,0.8699,0.8798,0.8903,0.8956,0.8865,0.8691,0.8677,0.849,0.8201,0.8275,0.8497,0.8842,0.8733,0.9005,0.9573,0.9513,0.958,0.988,0.9472,0.886,0.8112,0.8194,0.7922,0.7319,0.7422,0.716,0.6507,0.6114,0.5784,0.5487,0.0,0.0,0.0,0.0,0.0,0.0,0.0,0.0,0.0,0.0,0.0,0.0,0.0,0.0,0.0,0.503,0.0,0.5298,0.5436,0.0,0.0,0.0,0.6427,0.6203,0.7074,0.7615,0.7321,0.0,0.0,0.8602,0.0,0.884,0.9126,0.9234,0.9458,0.9777,0.9197,0.8666,0.8402,0.8355,0.8315,0.8315,0.8309,0.8309,0.8256,0.8162,0.8109,0.8049,0.7783,0.7616,0.7563,0.7402,0.7295,0.7413,0.7224,0.7139,0.7433,0.7587,0.77,0.7581,0.7517,0.7346,0.534,0.5386,0.5618,0.6057,0.6481,0.6576,0.6681,0.6681,0.6791,0.6849,0.6907,0.7059,0.7205,0.7361,0.7106,0.7078,0.7224,0.7188,0.7302,0.7571,0.7524,0.7617,0.7836,0.7889,0.8043,0.8196,0.8315,0.8396,0.8482,0.8476,0.8443,0.8378,0.8386,0.8372,0.8382,0.8461,0.8651,0.8799,0.8885,0.8992,0.9106,0.8714,0.8323,0.7942,0.7711,0.7462,0.71,0.7086,0.6852,0.6297,0.5979,0.5697,0.55,0.4603,0.0,0.0,0.0,0.0,0.0,0.0,0.0,0.0,0.0,0.3857,0.4268,0.0,0.4317,0.0,0.5074,0.5578,0.561,0.6089,0.0,0.0,0.6949,0.725,0.7055,0.7475,0.7802,0.7889,0.801,0.8164,0.8307,0.8193,0.8066,0.7958,0.8317,0.8738,0.9015,0.8514,0.7925,0.7563,0.7515,0.758,0.7574,0.7467,0.7354,0.7036,0.7139,0.7128,0.6848,0.675,0.6652,0.6603,0.6539,0.6539,0.6707,0.6544,0.6322,0.6213,0.6431,0.6756,0.6707,0.6539,0.6376,0.4487,0.4545,0.4596,0.4822,0.5163,0.5763,0.6001,0.6072,0.6251,0.6312,0.6308,0.6421,0.6525,0.6638,0.6478,0.6421,0.6553,0.6558,0.6624,0.6745,0.6799,0.6858,0.7031,0.7079,0.7187,0.7337,0.7456,0.7509,0.761,0.7616,0.7616,0.761,0.7616,0.757,0.7502,0.8101,0.8448,0.8448,0.8508,0.848,0.8315,0.8118,0.7841,0.7494,0.7276,0.7058,0.6757,0.6738,0.6476,0.5969,0.5789,0.5581,0.5291,0.4598,0.4082,0.0,0.0,0.0,0.0,0.0,0.0,0.0,0.0,0.0,0.0,0.0,0.4814,0.4536,0.554,0.6143,0.5996,0.6391,0.6696,0.6817,0.7154,0.7391,0.7329,0.7479,0.7548,0.7508,0.7586,0.757,0.7374,0.7337,0.723,0.6972,0.7187,0.7563,0.8055,0.7717,0.7182,0.681,0.6756,0.6815,0.6712,0.6598,0.6485,0.6327,0.6322,0.6312,0.6145,0.6263,0.6268,0.6055,0.6,0.5941,0.6059,0.6,0.5832,0.5508,0.5563,0.5778,0.6,0.595,0.5782,0.3625,0.3628,0.3625,0.3635,0.3699,0.473,0.5273,0.5438,0.5562,0.5627,0.5623,0.5739,0.5796,0.58,0.5796,0.577,0.5682,0.5859,0.5888,0.5835,0.5927,0.6087,0.6256,0.6287,0.6322,0.648,0.6485,0.6475,0.6475,0.6475,0.6534,0.648,0.6475,0.648,0.6475,0.7509,0.8096,0.8156,0.8055,0.7836,0.7557,0.7557,0.7338,0.6847,0.6784,0.6643,0.6316,0.6251,0.6008,0.5573,0.5494,0.5353,0.4927,0.4569,0.4199,0.0,0.3972,0.0,0.0,0.0,0.0,0.0,0.0,0.0,0.0,0.5314,0.5392,0.5246,0.6099,0.6584,0.6369,0.6513,0.6801,0.7026,0.7127,0.7197,0.732,0.7241,0.7108,0.6714,0.6918,0.6874,0.6263,0.6396,0.6475,0.627,0.6142,0.6382,0.6931,0.6841,0.6485,0.6154,0.6154,0.6159,0.5941,0.5782,0.5668,0.5664,0.5609,0.5664,0.5609,0.5828,0.5937,0.5664,0.5504,0.5454,0.5454,0.5454,0.5344,0.5018,0.4901,0.5011,0.5399,0.5399,0.5289,0.2588,0.2588,0.2588,0.2622,0.2802,0.2975,0.3497,0.4172,0.4174,0.4235,0.4174,0.4235,0.4232,0.4235,0.4232,0.4278,0.4445,0.4502,0.4667,0.5043,0.4926,0.5106,0.5498,0.5516,0.5614,0.5782,0.5887,0.5937,0.5937,0.5937,0.5932,0.5937,0.5937,0.5882,0.5837,0.0,0.0,0.0,0.6912,0.6858,0.6799,0.6804,0.668,0.6416,0.6224,0.0,0.5783,0.5585,0.5355,0.5054,0.5039,0.0,0.0,0.0,0.0,0.0,0.0,0.0,0.0,0.0,0.0,0.0,0.4983,0.5145,0.534,0.5419,0.5669,0.6042,0.6329,0.6492,0.663,0.6847,0.6968,0.6957,0.7097,0.7136,0.6908,0.6854,0.6714,0.6539,0.6386,0.6114,0.5808,0.597,0.6072,0.5857,0.5918,0.5847,0.5529,0.5806,0.5841,0.555,0.5749,0.5727,0.5175,0.5081,0.4927,0.4794,0.4736,0.4798,0.4809,0.4908,0.5018,0.4802,0.4739,0.4739,0.4736,0.4684,0.4629,0.4415,0.4349,0.4453,0.4897,0.4739,0.4411,0.2256,0.0,0.2256,0.2274,0.0,0.2368,0.2608,0.3023,0.3279,0.3407,0.3407,0.3407,0.3341,0.3279,0.3277,0.3314,0.346,0.3523,0.3742,0.4111,0.4108,0.432,0.4677,0.4718,0.4793,0.4966,0.5024,0.5037,0.5016,0.5012,0.4975,0.4901,0.4897,0.4846,0.4794,0.4794,0.5171,0.5932,0.5932,0.5937,0.5828,0.5832,0.5735,0.5544,0.0,0.0,0.0,0.0,0.0,0.0,0.0,0.0,0.0,0.0,0.0,0.4098,0.4123,0.4239,0.4449,0.4512,0.4615,0.4817,0.5116,0.5348,0.555,0.5867,0.6018,0.5929,0.6171,0.6324,0.6318,0.6504,0.6639,0.6586,0.664,0.6603,0.6381,0.6322,0.6201,0.6137,0.5987,0.5793,0.5489,0.5564,0.5561,0.5336,0.534,0.5196,0.4959,0.5221,0.5431,0.5085,0.5148,0.5174,0.4834,0.4552,0.4441,0.4444,0.4477,0.4445,0.4449,0.4449,0.4376,0.4323,0.4185,0.4079,0.4242,0.4184,0.4132,0.4021,0.391,0.3852,0.4132,0.4132,0.4079,0.1748,0.1748,0.1748,0.1748,0.1748,0.1748,0.1748,0.1883,0.0,0.0,0.0,0.2891,0.2757,0.2619,0.2619,0.2654,0.2725,0.2788,0.2945,0.3192,0.3292,0.3532,0.3843,0.3886,0.3933,0.405,0.4172,0.418,0.4133,0.4133,0.407,0.3955,0.3946,0.3931,0.3913,0.3858,0.4184,0.4893,0.5007,0.5011,0.4904,0.4904,0.4837,0.4647,0.4613,0.4524,0.4315,0.4274,0.413,0.3859,0.384,0.3814,0.3746,0.3719,0.3734,0.3871,0.3974,0.4121,0.4272,0.4407,0.455,0.453,0.4934,0.5302,0.5611,0.6219,0.6344,0.5608,0.5804,0.5923,0.5872,0.5998,0.61,0.61,0.6,0.5896,0.5837,0.5758,0.5673,0.5588,0.5582,0.5479,0.5186,0.5175,0.5078,0.4836,0.4742,0.4621,0.4674,0.4874,0.5005,0.4756,0.4753,0.466,0.4496,0.4372,0.4186,0.4264,0.4306,0.4296,0.427,0.4124,0.4044,0.401,0.3765,0.3724,0.3818,0.3829,0.3744,0.3722,0.3535,0.336,0.3357,0.3635,0.3799,-0.0134,-0.0134,-0.0134,-0.0134,-0.0134,-0.0134,-0.0,0.047,0.2018,0.2762,0.2695,0.2423,0.2287,0.2288,0.2288,0.2284,0.2274,0.2274,0.2333,0.2384,0.2395,0.256,0.2872,0.2925,0.3075,0.3199,0.3503,0.3676,0.3724,0.3782,0.3787,0.374,0.3727,0.3675,0.3477,0.3299,0.3297,0.3405,0.391,0.4187,0.4135,0.4132,0.4122,0.41,0.3984,0.3906,0.3865,0.3701,0.3627,0.3538,0.3535,0.3547,0.3554,0.3649,0.37,0.3711,0.3781,0.383,0.3801,0.3821,0.3886,0.3907,0.412,0.4527,0.5371,0.5967,0.6124,0.5748,0.5362,0.5273,0.5738,0.5814,0.5778,0.5673,0.5622,0.5508,0.5132,0.5136,0.5121,0.4882,0.4746,0.4823,0.4755,0.4721,0.4725,0.4677,0.4669,0.4695,0.4582,0.4565,0.4497,0.4479,0.4412,0.4403,0.4323,0.4298,0.4179,0.4011,0.4,0.3963,0.3848,0.3867,0.3832,0.3544,0.3476,0.3464,0.3515,0.3464,0.3413,0.3341,0.3268,0.3212,0.31,0.3151,0.3195,-0.1412,-0.1412,-0.1412,-0.1412,-0.1412,-0.1412,-0.121,-0.0806,0.0202,0.0941,0.1412,0.1277,0.1143,0.1008,0.1008,0.1143,0.1344,0.1412,0.1547,0.1879,0.1858,0.2045,0.2436,0.2473,0.2521,0.2587,0.2713,0.2817,0.2715,0.2774,0.2857,0.2893,0.3023,0.3065,0.2916,0.2912,0.2854,0.291,0.3299,0.3522,0.3519,0.3519,0.3519,0.3522,0.3465,0.3409,0.335,0.33,0.319,0.3126,0.3124,0.3105,0.3123,0.3255,0.3369,0.3412,0.3545,0.3606,0.3676,0.3626,0.3652,0.371,0.377,0.3944,0.4368,0.507,0.5332,0.4948,0.4622,0.4625,0.5066,0.5117,0.5066,0.5011,0.4904,0.4779,0.4681,0.4579,0.4631,0.4597,0.4618,0.4624,0.4635,0.4631,0.454,0.4483,0.4472,0.45,0.4431,0.4404,0.4321,0.4321,0.4324,0.4324,0.4268,0.4284,0.4175,0.4011,0.3872,0.3811,0.362,0.3747,0.3653,0.3425,0.3194,0.312,0.3175,0.3018,0.2875,0.2792,0.2628,0.2539,0.2475,0.2456,0.2531,-0.2534,-0.2534,-0.2536,-0.2536,-0.2536,-0.2467,-0.2262,-0.185,-0.1438,-0.089,-0.0205,-0.0,-0.0067,-0.0269,-0.0269,-0.0067,0.0269,0.0403,0.0672,0.1144,0.1211,0.1412,0.1681,0.1816,0.1884,0.1884,0.2018,0.1995,0.1892,0.2018,0.2117,0.2178,0.234,0.2383,0.238,0.2417,0.2521,0.2521,0.2685,0.2907,0.3021,0.3021,0.3019,0.3021,0.3021,0.2984,0.2915,0.2911,0.2874,0.2798,0.2792,0.2792,0.2792,0.2843,0.2985,0.3108,0.3174,0.3266,0.3403,0.3416,0.3416,0.3418,0.3416,0.3416,0.3471,0.4018,0.4349,0.4073,0.3907,0.3965,0.4245,0.4301,0.4307,0.4281,0.4179,0.4128,0.4179,0.4171,0.4206,0.4399,0.4458,0.4452,0.4532,0.4495,0.4359,0.4159,0.41,0.41,0.41,0.4033,0.4033,0.4097,0.4164,0.422,0.4233,0.4095,0.3959,0.3828,0.3685,0.3473,0.3345,0.3418,0.3465,0.3075,0.2775,0.2701,0.2858,0.271,0.2453,0.2438,0.2236,0.2046,0.2023,0.194,0.2018,-0.3462,-0.3467,-0.3458,-0.3467,-0.3458,-0.3243,-0.3099,-0.2815,-0.2166,-0.1735,-0.1582,-0.1172,-0.0945,-0.1011,-0.0944,-0.0944,-0.0876,-0.0472,-0.027,-0.0135,0.0067,0.0202,0.0269,0.0672,0.0873,0.0941,0.1344,0.1545,0.1604,0.194,0.2179,0.2175,0.1999,0.1883,0.1868,0.1876,0.1903,0.1903,0.1902,0.2183,0.2691,0.2747,0.2747,0.2747,0.2747,0.2742,0.2672,0.2734,0.273,0.2724,0.2715,0.2717,0.2717,0.272,0.2724,0.2788,0.2788,0.2794,0.2802,0.2805,0.2802,0.2802,0.2802,0.2802,0.2802,0.2856,0.3137,0.3421,0.3357,0.3357,0.3638,0.3702,0.3744,0.3842,0.3793,0.3722,0.3716,0.3763,0.3837,0.3849,0.3944,0.4084,0.4225,0.4095,0.3897,0.3632,0.3565,0.3496,0.3426,0.336,0.336,0.3426,0.3627,0.3894,0.3961,0.3627,0.336,0.3293,0.3157,0.2956,0.2822,0.2889,0.3084,0.2533,0.2274,0.2272,0.2469,0.2469,0.2308,0.2002,0.1922,0.204,0.1928,0.1792,0.1767,-0.3923,-0.3923,-0.3993,-0.3996,-0.3923,-0.3851,-0.3706,-0.3495,-0.3127,-0.2766,-0.2472,-0.2208,-0.1679,-0.1103,-0.1085,-0.1078,-0.1079,-0.0877,-0.0809,-0.0809,-0.0674,-0.0673,-0.0606,-0.0472,-0.0202,0.0067,0.0337,0.0471,0.0672,0.1076,0.126,0.1292,0.1508,0.1601,0.151,0.1698,0.1786,0.1785,0.1811,0.1906,0.2132,0.2186,0.2184,0.2184,0.224,0.2296,0.2296,0.2465,0.2579,0.2579,0.2635,0.2691,0.2691,0.2691,0.2691,0.2579,0.241,0.2296,0.2296,0.224,0.2184,0.2184,0.2184,0.2184,0.2184,0.2465,0.2653,0.2579,0.2719,0.2988,0.3332,0.3402,0.3442,0.3537,0.3503,0.3484,0.34,0.3512,0.3494,0.3488,0.3465,0.3556,0.3627,0.3493,0.336,0.3228,0.3092,0.2958,0.2889,0.2889,0.2889,0.2956,0.3157,0.3291,0.3357,0.309,0.2889,0.2956,0.2824,0.2557,0.2353,0.242,0.2421,0.1882,0.1682,0.1751,0.2284,0.1614,0.1204,0.1123,0.0991,0.0855,0.078,0.0779,0.077,-0.4741,-0.4741,-0.4741,-0.4741,-0.4741,-0.4741,-0.4596,-0.438,-0.4156,-0.3786,-0.3268,-0.3099,-0.2475,-0.1712,-0.1451,-0.1289,-0.1146,-0.1146,-0.1146,-0.1078,-0.1078,-0.1078,-0.1078,-0.1078,-0.0945,-0.0674,-0.0607,-0.0472,-0.0269,-0.0,0.0266,0.0393,0.0842,0.102,0.0998,0.1211,0.1304,0.1291,0.1323,0.1303,0.1293,0.1288,0.1455,0.1736,0.1905,0.1959,0.1959,0.2184,0.2296,0.2296,0.241,0.2465,0.2465,0.2465,0.241,0.2354,0.2184,0.2015,0.1961,0.1847,0.1792,0.1793,0.1792,0.1792,0.1905,0.2352,0.2389,0.193,0.2064,0.239,0.2846,0.2918,0.2957,0.2979,0.2993,0.303,0.2986,0.3065,0.3023,0.3013,0.2948,0.3017,0.309,0.3023,0.2889,0.2485,0.2351,0.2159,0.2101,0.204,0.2045,0.2058,0.2132,0.2458,0.2767,0.2688,0.2552,0.242,0.2287,0.1749,0.1682,0.1682,0.1614,0.1008,0.0808,0.0808,0.1144,0.0673,0.0202,-0.0,-0.0134,-0.0201,-0.02,-0.0269,-0.0267,-0.6146,-0.606,-0.6063,-0.605,-0.6063,-0.6056,-0.5829,-0.5499,-0.5286,-0.475,-0.4106,-0.3806,-0.339,-0.2993,-0.2362,-0.1726,-0.135,-0.1346,-0.1278,-0.1143,-0.1143,-0.1143,-0.1076,-0.1078,-0.1079,-0.1012,-0.1012,-0.1011,-0.1011,-0.1011,-0.0809,-0.0336,-0.0262,-0.0129,-0.0,0.0063,-0.0,0.0119,0.0118,0.0116,0.0113,0.0112,0.0618,0.1515,0.1797,0.1738,0.179,0.1846,0.1846,0.1846,0.1847,0.1902,0.1846,0.1846,0.1959,0.2071,0.2071,0.1961,0.1796,0.1685,0.1684,0.174,0.1628,0.1742,0.1635,0.2133,0.2224,0.1823,0.1332,0.1362,0.1866,0.2032,0.2118,0.2177,0.2123,0.2217,0.2272,0.2541,0.2484,0.235,0.2214,0.2281,0.2753,0.2889,0.2223,0.1551,0.1212,0.1088,0.0834,0.0699,0.0705,0.0645,0.0719,0.1069,0.2453,0.2237,0.2031,0.1884,0.1211,0.0538,0.0337,0.0269,0.0269,0.0202,-0.0067,-0.0135,-0.0,-0.0067,-0.0337,-0.0539,-0.0741,-0.0876,-0.074,-0.0943,-0.0939,-0.663,-0.663,-0.6633,-0.663,-0.663,-0.663,-0.6479,-0.6247,-0.6173,-0.5783,-0.5309,-0.5115,-0.482,-0.4218,-0.3999,-0.323,-0.2208,-0.1967,-0.1748,-0.1614,-0.1614,-0.1479,-0.121,-0.1212,-0.1144,-0.1077,-0.1076,-0.1077,-0.1077,-0.1078,-0.1012,-0.0876,-0.0868,-0.0797,-0.0727,-0.071,-0.0695,-0.0688,-0.0675,-0.0598,-0.0581,-0.0579,-0.0344,0.0056,0.0673,0.1066,0.1008,0.1289,0.1513,0.1514,0.1682,0.1794,0.1794,0.1794,0.1794,0.185,0.1345,0.0896,0.0841,0.0729,0.0617,0.0617,0.0673,0.068,0.0689,0.0968,0.104,0.0681,0.0326,0.0266,0.072,0.1411,0.199,0.2108,0.2121,0.206,0.2214,0.2288,0.2017,0.1343,0.1074,0.1208,0.135,0.1296,0.1035,0.0622,0.042,0.0284,0.0143,0.0144,0.0072,0.0073,-0.0073,-0.0,0.0499,0.0911,0.0832,0.0748,0.0337,-0.0067,-0.0337,-0.0472,-0.0539,-0.0471,-0.074,-0.074,-0.0539,-0.0539,-0.0809,-0.0875,-0.1077,-0.1078,-0.1076,-0.1077,-0.1077,-0.7096,-0.7096,-0.7096,-0.7096,-0.7099,-0.7096,-0.6945,-0.6795,-0.6795,-0.6563,-0.617,-0.6093,-0.5803,-0.5333,-0.5217,-0.467,-0.3507,-0.2842,-0.2387,-0.2111,-0.2026,-0.1816,-0.1614,-0.1614,-0.1547,-0.1479,-0.1479,-0.1412,-0.1344,-0.1346,-0.128,-0.1145,-0.1146,-0.1146,-0.1141,-0.1123,-0.1109,-0.1096,-0.1013,-0.0988,-0.0962,-0.0898,-0.0943,-0.0803,-0.0228,0.0227,0.0281,0.0617,0.0841,0.0898,0.1122,0.1234,0.129,0.1234,0.1234,0.1122,0.0617,0.0112,-0.0056,-0.0224,-0.0282,-0.0342,-0.0285,-0.0347,-0.0297,-0.0176,-0.0181,-0.0383,-0.053,-0.0605,-0.0268,0.0397,0.1054,0.1407,0.1479,0.1479,0.148,0.1481,0.1076,0.0538,0.0403,0.0337,0.0274,0.0139,-0.0,-0.0212,-0.0361,-0.0437,-0.044,-0.0442,-0.0445,-0.0522,-0.0675,-0.0746,-0.0444,-0.022,-0.0144,-0.0283,-0.0206,-0.0614,-0.0816,-0.1017,-0.108,-0.1078,-0.1077,-0.1077,-0.1077,-0.1078,-0.1078,-0.1076,-0.1076,-0.1076,-0.1076,-0.1076,-0.1076,-0.7484,-0.748,-0.748,-0.7484,-0.748,-0.748,-0.7407,-0.718,-0.718,-0.6949,-0.6637,-0.6637,-0.6472,-0.6203,-0.5947,-0.5654,-0.5149,-0.3949,-0.3159,-0.2725,-0.2458,-0.2296,-0.2161,-0.2155,-0.2153,-0.2085,-0.2153,-0.2085,-0.1884,-0.1817,-0.1682,-0.1412,-0.1345,-0.1345,-0.1143,-0.1205,-0.1126,-0.1042,-0.1035,-0.1018,-0.0992,-0.0989,-0.0974,-0.0946,-0.0823,-0.0637,-0.0281,-0.0281,-0.0112,-0.0,0.0056,0.0112,0.028,0.0168,-0.0,0.0056,-0.0,-0.0336,-0.0729,-0.0844,-0.08,-0.0874,-0.0941,-0.0897,-0.0859,-0.0923,-0.0936,-0.0969,-0.0994,-0.1009,-0.101,-0.0874,-0.0537,-0.0134,0.0134,0.0134,0.0067,-0.0,-0.0,-0.0067,-0.0067,-0.0068,-0.014,-0.0284,-0.0571,-0.0871,-0.1026,-0.1036,-0.105,-0.1057,-0.1148,-0.1243,-0.1164,-0.1075,-0.1153,-0.1153,-0.1131,-0.1107,-0.0996,-0.1044,-0.104,-0.1106,-0.1089,-0.1084,-0.1078,-0.1078,-0.1076,-0.1077,-0.1076,-0.1076,-0.1076,-0.1076,-0.1076,-0.1076,-0.1076,-0.748,-0.748,-0.748,-0.748,-0.748,-0.748,-0.7484,-0.7407,-0.7407,-0.733,-0.7253,-0.7253,-0.7099,-0.6938,-0.6812,-0.6565,-0.6242,-0.538,-0.4528,-0.3804,-0.35,-0.3111,-0.2756,-0.2578,-0.2421,-0.2221,-0.2221,-0.2154,-0.2153,-0.2153,-0.2018,-0.1951,-0.1884,-0.1816,-0.1614,-0.168,-0.1538,-0.1263,-0.1195,-0.1114,-0.1022,-0.102,-0.1005,-0.0976,-0.0954,-0.082,-0.0696,-0.0738,-0.0673,-0.0617,-0.0617,-0.0561,-0.0561,-0.0617,-0.0617,-0.0617,-0.0617,-0.0673,-0.0844,-0.0917,-0.0932,-0.0945,-0.0962,-0.0988,-0.1013,-0.1012,-0.1088,-0.1121,-0.1071,-0.1076,-0.1077,-0.1077,-0.0942,-0.074,-0.0741,-0.074,-0.0674,-0.0742,-0.0742,-0.0743,-0.0753,-0.0767,-0.0783,-0.0868,-0.0961,-0.1122,-0.1213,-0.1306,-0.1313,-0.1237,-0.1244,-0.1335,-0.1256,-0.1255,-0.1249,-0.1245,-0.1234,-0.122,-0.119,-0.1152,-0.1142,-0.1123,-0.1105,-0.1097,-0.109,-0.1085,-0.1082,-0.1082,-0.1087,-0.1082,-0.1084,-0.1082,-0.1077,-0.1078,-0.1083,-0.748,-0.748,-0.748,-0.748,-0.748,-0.748,-0.748,-0.748,-0.748,-0.748,-0.748,-0.748,-0.7407,-0.733,-0.7334,-0.7103,-0.6784,-0.6453,-0.5836,-0.5061,-0.4467,-0.3977,-0.3606,-0.3453,-0.3271,-0.3061,-0.2971,-0.2889,-0.2757,-0.2757,-0.269,-0.2421,-0.2354,-0.222,-0.2018,-0.2018,-0.1816,-0.1547,-0.1546,-0.1401,-0.1185,-0.1115,-0.11,-0.1007,-0.0986,-0.0971,-0.09,-0.0941,-0.0921,-0.0902,-0.0897,-0.0897,-0.0897,-0.0897,-0.0897,-0.0897,-0.0898,-0.0902,-0.0857,-0.0874,-0.0896,-0.0973,-0.0994,-0.1018,-0.104,-0.1042,-0.1052,-0.1069,-0.1076,-0.1076,-0.1076,-0.1076,-0.1076,-0.1078,-0.1078,-0.1078,-0.1079,-0.1089,-0.1087,-0.109,-0.1112,-0.1146,-0.1182,-0.119,-0.1218,-0.1228,-0.1245,-0.1336,-0.1336,-0.1335,-0.1336,-0.1336,-0.1335,-0.1335,-0.1336,-0.1335,-0.1335,-0.1252,-0.1244,-0.1209,-0.1187,-0.1153,-0.1127,-0.1132,-0.1128,-0.1127,-0.1125,-0.1121,-0.1121,-0.111,-0.1172,-0.1114,-0.112,-0.1102,-0.1101,-0.748,-0.748,-0.748,-0.748,-0.748,-0.748,-0.748,-0.748,-0.748,-0.748,-0.748,-0.748,-0.748,-0.748,-0.7484,-0.733,-0.7176,-0.7096,-0.6842,-0.6301,-0.5455,-0.4823,-0.4547,-0.4383,-0.4263,-0.4301,-0.4222,-0.4036,-0.3692,-0.3689,-0.3491,-0.2954,-0.2887,-0.2619,-0.2488,-0.2354,-0.222,-0.2017,-0.195,-0.1747,-0.1409,-0.1343,-0.1262,-0.1036,-0.1029,-0.1014,-0.1056,-0.1044,-0.1016,-0.091,-0.0904,-0.0902,-0.0899,-0.0898,-0.0903,-0.0909,-0.0905,-0.0921,-0.0939,-0.0955,-0.0914,-0.1018,-0.1031,-0.1046,-0.1066,-0.1069,-0.1069,-0.1075,-0.1076,-0.1076,-0.1076,-0.1076,-0.1076,-0.1079,-0.1079,-0.1078,-0.1081,-0.1104,-0.1107,-0.1101,-0.1205,-0.1263,-0.1314,-0.1228,-0.1232,-0.1245,-0.1255,-0.1335,-0.1336,-0.1336,-0.1336,-0.1336,-0.1336,-0.1336,-0.1336,-0.1336,-0.1336,-0.1336,-0.1258,-0.1241,-0.1218,-0.1185,-0.1225,-0.1157,-0.1163,-0.1164,-0.1159,-0.1151,-0.1149,-0.1144,-0.1149,-0.1163,-0.1155,-0.1134,-0.1124,-0.748,-0.748,-0.748,-0.748,-0.748,-0.748,-0.748,-0.748,-0.748,-0.748,-0.748,-0.748,-0.748,-0.748,-0.748,-0.7484,-0.7407,-0.7257,-0.7184,-0.7015,-0.6561,-0.577,-0.5041,-0.4764,-0.4629,-0.4555,-0.4582,-0.4376,-0.4161,-0.4231,-0.4092,-0.3887,-0.3818,-0.3687,-0.3424,-0.3357,-0.3021,-0.2552,-0.2487,-0.2285,-0.1816,-0.1748,-0.1542,-0.1264,-0.1239,-0.1222,-0.1208,-0.1248,-0.1093,-0.0937,-0.0873,-0.0862,-0.0902,-0.0918,-0.0941,-0.096,-0.0962,-0.0966,-0.0977,-0.0995,-0.0953,-0.1031,-0.1052,-0.1067,-0.1074,-0.1076,-0.1076,-0.1076,-0.1076,-0.1076,-0.1076,-0.1076,-0.1085,-0.1102,-0.1093,-0.1089,-0.1106,-0.1116,-0.1125,-0.1143,-0.1175,-0.1291,-0.1319,-0.1329,-0.1324,-0.1333,-0.1336,-0.1336,-0.1336,-0.1415,-0.1415,-0.1336,-0.1336,-0.1336,-0.1336,-0.1336,-0.1336,-0.1336,-0.1336,-0.1335,-0.1237,-0.1217,-0.1189,-0.1172,-0.1254,-0.1257,-0.1173,-0.1163,-0.1167,-0.1179,-0.1176,-0.1181,-0.1172,-0.1156,-0.1155,-0.748,-0.748,-0.748,-0.748,-0.748,-0.748,-0.748,-0.748,-0.748,-0.748,-0.748,-0.748,-0.748,-0.748,-0.748,-0.748,-0.7484,-0.7411,-0.7334,-0.7334,-0.7092,-0.6525,-0.5783,-0.5424,-0.5198,-0.5126,-0.5062,-0.4963,-0.4727,-0.4704,-0.4607,-0.4428,-0.442,-0.4289,-0.3956,-0.4023,-0.3756,-0.3288,-0.3155,-0.2887,-0.2421,-0.2285,-0.2017,-0.1744,-0.1652,-0.1641,-0.1571,-0.1422,-0.1258,-0.1094,-0.102,-0.0943,-0.0907,-0.0939,-0.098,-0.1018,-0.1004,-0.0992,-0.1007,-0.1024,-0.1039,-0.105,-0.1069,-0.1074,-0.1076,-0.1076,-0.1076,-0.1076,-0.1076,-0.1076,-0.1078,-0.1087,-0.1102,-0.1116,-0.1186,-0.119,-0.1139,-0.1153,-0.1159,-0.1249,-0.1279,-0.1467,-0.1492,-0.1572,-0.1572,-0.1573,-0.1573,-0.1493,-0.1336,-0.1493,-0.1572,-0.1572,-0.1493,-0.1493,-0.1493,-0.1493,-0.1415,-0.1415,-0.1414,-0.1414,-0.133,-0.1317,-0.1227,-0.1207,-0.128,-0.1277,-0.1272,-0.1198,-0.1211,-0.1216,-0.1206,-0.1202,-0.12,-0.1186,-0.1185,-0.7633,-0.7633,-0.7633,-0.7638,-0.7638,-0.7561,-0.7638,-0.7561,-0.7561,-0.7557,-0.748,-0.748,-0.748,-0.748,-0.748,-0.748,-0.748,-0.7484,-0.748,-0.7407,-0.7257,-0.6915,-0.6579,-0.617,-0.5952,-0.5899,-0.5878,-0.5603,-0.5345,-0.5312,-0.5102,-0.4882,-0.4712,-0.4558,-0.4422,-0.4422,-0.4223,-0.3959,-0.3825,-0.3625,-0.3157,-0.2889,-0.2688,-0.2285,-0.2083,-0.2009,-0.1877,-0.1603,-0.1311,-0.1313,-0.112,-0.0966,-0.0926,-0.0965,-0.1014,-0.1051,-0.1031,-0.1016,-0.1033,-0.1041,-0.1049,-0.1068,-0.1074,-0.1076,-0.1076,-0.1076,-0.1076,-0.1076,-0.1076,-0.1078,-0.1087,-0.1106,-0.1125,-0.1138,-0.1375,-0.1388,-0.1327,-0.1272,-0.1277,-0.133,-0.1534,-0.1799,-0.1964,-0.1964,-0.1964,-0.1963,-0.1963,-0.1885,-0.1806,-0.1885,-0.1963,-0.2043,-0.1963,-0.1729,-0.1649,-0.1649,-0.1571,-0.1571,-0.157,-0.1571,-0.1493,-0.1409,-0.1333,-0.1326,-0.1311,-0.131,-0.1317,-0.1323,-0.1327,-0.1325,-0.131,-0.132,-0.1328,-0.1226,-0.1216,-0.8399,-0.8475,-0.8475,-0.8322,-0.825,-0.8169,-0.8025,-0.7723,-0.7723,-0.7642,-0.7557,-0.748,-0.748,-0.748,-0.748,-0.748,-0.748,-0.748,-0.748,-0.7484,-0.7334,-0.718,-0.6945,-0.6663,-0.6366,-0.6279,-0.6077,-0.5901,-0.5701,-0.559,-0.5503,-0.5395,-0.5225,-0.516,-0.4954,-0.4888,-0.4755,-0.4492,-0.4425,-0.4225,-0.3825,-0.3625,-0.3357,-0.2822,-0.2421,-0.2221,-0.2085,-0.1748,-0.1537,-0.1451,-0.1228,-0.1005,-0.0984,-0.1003,-0.1039,-0.1061,-0.1066,-0.1058,-0.1064,-0.1064,-0.1068,-0.1073,-0.1076,-0.1076,-0.1076,-0.1076,-0.1076,-0.1076,-0.1076,-0.1088,-0.1109,-0.1117,-0.1215,-0.1249,-0.142,-0.1589,-0.1534,-0.1755,-0.1903,-0.2002,-0.2098,-0.2433,-0.2591,-0.2511,-0.2433,-0.2433,-0.2354,-0.2354,-0.2354,-0.2354,-0.2511,-0.2746,-0.2433,-0.2276,-0.2198,-0.2041,-0.1962,-0.1884,-0.1884,-0.1884,-0.1806,-0.165,-0.1571,-0.1415,-0.1333,-0.1336,-0.1336,-0.1336,-0.1332,-0.1335,-0.1336,-0.1336,-0.1333,-0.1245,-0.1241,-0.8998,-0.8998,-0.8998,-0.8851,-0.8703,-0.8703,-0.8479,-0.8102,-0.7953,-0.7799,-0.7642,-0.7561,-0.748,-0.748,-0.748,-0.748,-0.748,-0.748,-0.748,-0.7484,-0.7407,-0.733,-0.7257,-0.7022,-0.6816,-0.6583,-0.6359,-0.6197,-0.6065,-0.5892,-0.5732,-0.5596,-0.5573,-0.5363,-0.5299,-0.5226,-0.509,-0.4891,-0.496,-0.4761,-0.4425,-0.4295,-0.3959,-0.3355,-0.2688,-0.2285,-0.2288,-0.1748,-0.1479,-0.1407,-0.1194,-0.1046,-0.1034,-0.1044,-0.106,-0.1072,-0.1076,-0.1076,-0.1075,-0.1076,-0.1075,-0.1076,-0.1076,-0.1076,-0.1076,-0.1076,-0.1084,-0.1093,-0.11,-0.1109,-0.1281,-0.1304,-0.1405,-0.1652,-0.1837,-0.2014,-0.2109,-0.2171,-0.2316,-0.2425,-0.2585,-0.2902,-0.3059,-0.3059,-0.3136,-0.3136,-0.3215,-0.3137,-0.2902,-0.2981,-0.3292,-0.337,-0.2978,-0.2743,-0.2744,-0.2588,-0.2353,-0.2275,-0.2275,-0.2276,-0.2199,-0.2042,-0.1884,-0.1728,-0.1571,-0.1493,-0.1493,-0.1415,-0.1336,-0.1335,-0.1335,-0.1336,-0.1335,-0.133,-0.1329,-0.9599,-0.9599,-0.9599,-0.9448,-0.9226,-0.9226,-0.8927,-0.8556,-0.8327,-0.8178,-0.7876,-0.7718,-0.7714,-0.7561,-0.7561,-0.7561,-0.748,-0.748,-0.748,-0.748,-0.748,-0.748,-0.7407,-0.7253,-0.7173,-0.6942,-0.67,-0.6536,-0.6382,-0.6172,-0.603,-0.5832,-0.5734,-0.5662,-0.5557,-0.5533,-0.548,-0.5349,-0.5487,-0.5349,-0.4995,-0.4919,-0.4495,-0.3758,-0.3021,-0.2554,-0.2421,-0.1951,-0.1479,-0.1412,-0.1277,-0.1143,-0.1076,-0.1076,-0.1076,-0.1076,-0.1076,-0.1076,-0.1076,-0.1076,-0.1076,-0.1076,-0.1076,-0.1076,-0.1076,-0.1084,-0.1097,-0.1181,-0.1264,-0.1425,-0.1609,-0.1707,-0.1885,-0.2137,-0.2406,-0.2584,-0.2668,-0.251,-0.2741,-0.2979,-0.3137,-0.3452,-0.3684,-0.3763,-0.3839,-0.3917,-0.3919,-0.3843,-0.3608,-0.3606,-0.3995,-0.4226,-0.3834,-0.3756,-0.3679,-0.3524,-0.329,-0.3056,-0.2899,-0.2823,-0.2824,-0.2746,-0.2589,-0.2119,-0.1885,-0.1807,-0.1806,-0.1806,-0.1727,-0.1492,-0.1492,-0.1571,-0.1492,-0.1336,-0.1336,-1.1031,-1.1031,-1.0887,-1.0582,-1.0288,-1.0067,-0.9695,-0.9165,-0.8932,-0.8627,-0.8331,-0.825,-0.8021,-0.7795,-0.7723,-0.7642,-0.7561,-0.748,-0.748,-0.748,-0.748,-0.748,-0.748,-0.7484,-0.7403,-0.7326,-0.7096,-0.6839,-0.6783,-0.6614,-0.6452,-0.6346,-0.6153,-0.6073,-0.6051,-0.6032,-0.5964,-0.596,-0.5964,-0.5888,-0.5641,-0.5353,-0.4894,-0.4095,-0.3424,-0.3023,-0.2824,-0.2354,-0.2018,-0.2018,-0.1748,-0.1412,-0.121,-0.1143,-0.1143,-0.1143,-0.1143,-0.1143,-0.1143,-0.1143,-0.1076,-0.1076,-0.1146,-0.1145,-0.1151,-0.1169,-0.1328,-0.1485,-0.1727,-0.198,-0.2097,-0.2196,-0.2371,-0.248,-0.2733,-0.2902,-0.2981,-0.3136,-0.3368,-0.3684,-0.3843,-0.3999,-0.4153,-0.4384,-0.4462,-0.454,-0.4621,-0.4543,-0.4389,-0.4462,-0.4771,-0.4849,-0.4771,-0.4771,-0.4693,-0.4616,-0.438,-0.407,-0.3915,-0.3759,-0.3682,-0.3606,-0.3372,-0.2979,-0.2588,-0.2354,-0.2276,-0.2196,-0.2118,-0.204,-0.1962,-0.1962,-0.1806,-0.1649,-0.1492,-1.1781,-1.1706,-1.1558,-1.1335,-1.0962,-1.0738,-1.0363,-0.9922,-0.9463,-0.916,-0.8861,-0.8556,-0.8255,-0.803,-0.788,-0.7718,-0.7561,-0.748,-0.748,-0.748,-0.748,-0.748,-0.748,-0.748,-0.748,-0.748,-0.7249,-0.7173,-0.7019,-0.6874,-0.6708,-0.6604,-0.6451,-0.6358,-0.6283,-0.6265,-0.6339,-0.6335,-0.6405,-0.6363,-0.6069,-0.5649,-0.5043,-0.4561,-0.3897,-0.3491,-0.3157,-0.2755,-0.242,-0.2284,-0.2149,-0.1813,-0.1546,-0.1546,-0.1614,-0.1479,-0.1412,-0.1344,-0.1344,-0.1277,-0.1277,-0.1348,-0.1293,-0.1373,-0.1522,-0.1619,-0.1723,-0.1974,-0.2089,-0.2435,-0.2616,-0.2768,-0.3021,-0.3433,-0.3526,-0.3682,-0.3915,-0.4146,-0.4304,-0.4387,-0.4233,-0.4309,-0.4696,-0.4849,-0.5007,-0.5162,-0.5243,-0.5246,-0.509,-0.5165,-0.5318,-0.5395,-0.5395,-0.524,-0.524,-0.5162,-0.516,-0.4849,-0.4693,-0.4618,-0.454,-0.4384,-0.4304,-0.4068,-0.36,-0.3057,-0.2668,-0.2589,-0.2588,-0.2588,-0.2431,-0.2353,-0.2041,-0.1885,-0.1805,-1.2305,-1.2157,-1.2077,-1.1855,-1.1477,-1.1329,-1.0962,-1.0588,-1.0073,-0.962,-0.9397,-0.8861,-0.8484,-0.8183,-0.7876,-0.7642,-0.748,-0.748,-0.748,-0.748,-0.748,-0.748,-0.748,-0.748,-0.748,-0.748,-0.7484,-0.7407,-0.7253,-0.7157,-0.6935,-0.6855,-0.6809,-0.6644,-0.6596,-0.6649,-0.6573,-0.6573,-0.6717,-0.6639,-0.6267,-0.5795,-0.545,-0.5241,-0.4566,-0.4102,-0.3981,-0.3502,-0.3211,-0.2993,-0.2779,-0.2502,-0.2018,-0.2285,-0.2353,-0.215,-0.1883,-0.1748,-0.1681,-0.1614,-0.1619,-0.1772,-0.173,-0.1819,-0.2059,-0.2239,-0.2367,-0.2582,-0.2855,-0.3042,-0.3354,-0.3441,-0.383,-0.4222,-0.446,-0.4618,-0.4693,-0.4849,-0.4851,-0.4854,-0.4543,-0.4698,-0.5162,-0.5315,-0.5473,-0.5634,-0.5792,-0.5792,-0.5637,-0.5637,-0.5792,-0.5948,-0.5867,-0.5553,-0.5476,-0.5476,-0.5473,-0.5315,-0.524,-0.5162,-0.5085,-0.5087,-0.4929,-0.4849,-0.438,-0.3837,-0.337,-0.3137,-0.3368,-0.3446,-0.3056,-0.2744,-0.2588,-0.2431,-0.2353,-1.2826,-1.2753,-1.2372,-1.215,-1.1935,-1.1706,-1.1409,-1.1037,-1.0588,-1.0218,-0.9765,-0.9322,-0.8861,-0.8331,-0.7795,-0.7561,-0.748,-0.748,-0.748,-0.748,-0.748,-0.748,-0.748,-0.748,-0.748,-0.748,-0.748,-0.7484,-0.7407,-0.7403,-0.7395,-0.7339,-0.7159,-0.7142,-0.7052,-0.7044,-0.7122,-0.7118,-0.7118,-0.6956,-0.667,-0.6321,-0.6015,-0.5796,-0.5506,-0.5213,-0.4986,-0.4621,-0.4388,-0.4248,-0.3963,-0.3438,-0.2836,-0.3222,-0.3689,-0.3487,-0.2954,-0.2154,-0.2227,-0.2164,-0.2188,-0.2361,-0.239,-0.2484,-0.2758,-0.2881,-0.3022,-0.3267,-0.3679,-0.399,-0.4226,-0.4538,-0.4768,-0.4846,-0.5004,-0.5004,-0.5082,-0.5395,-0.5398,-0.5398,-0.5168,-0.5401,-0.5709,-0.5783,-0.586,-0.6103,-0.6183,-0.6183,-0.6106,-0.6106,-0.6028,-0.6106,-0.618,-0.5944,-0.5789,-0.5789,-0.5786,-0.5705,-0.5705,-0.5631,-0.5631,-0.5556,-0.5556,-0.5323,-0.5007,-0.4849,-0.4616,-0.446,-0.446,-0.4304,-0.3915,-0.3524,-0.3132,-0.2978,-0.2899,-1.2826,-1.2673,-1.2526,-1.2378,-1.2157,-1.1929,-1.1706,-1.1409,-1.0887,-1.0519,-1.0143,-0.9544,-0.8937,-0.825,-0.7714,-0.748,-0.748,-0.748,-0.748,-0.748,-0.748,-0.748,-0.748,-0.748,-0.748,-0.748,-0.748,-0.748,-0.748,-0.748,-0.748,-0.7468,-0.7415,-0.7378,-0.7354,-0.7366,-0.737,-0.7342,-0.7281,-0.7118,-0.696,-0.666,-0.6463,-0.6388,-0.6104,-0.5964,-0.582,-0.5584,-0.5343,-0.521,-0.4924,-0.4474,-0.4039,-0.4269,-0.4917,-0.5329,-0.4566,-0.3844,-0.3313,-0.3029,-0.3072,-0.3283,-0.3334,-0.3409,-0.3699,-0.3812,-0.3919,-0.4292,-0.4696,-0.4932,-0.4932,-0.5087,-0.524,-0.5395,-0.5473,-0.555,-0.5628,-0.5709,-0.5867,-0.5867,-0.587,-0.5944,-0.6022,-0.5941,-0.6018,-0.618,-0.6261,-0.6261,-0.6261,-0.6183,-0.6183,-0.6261,-0.6257,-0.618,-0.618,-0.6103,-0.6103,-0.6022,-0.6022,-0.6022,-0.6025,-0.6025,-0.5951,-0.5948,-0.5789,-0.5709,-0.5631,-0.5318,-0.4927,-0.4851,-0.4851,-0.4304,-0.3837,-0.3837,-0.368,-1.2753,-1.2526,-1.2526,-1.2452,-1.2298,-1.2157,-1.1929,-1.1632,-1.1186,-1.0738,-1.0288,-0.9539,-0.8713,-0.8183,-0.7714,-0.748,-0.748,-0.748,-0.748,-0.748,-0.748,-0.748,-0.748,-0.748,-0.748,-0.748,-0.748,-0.748,-0.748,-0.748,-0.748,-0.748,-0.7464,-0.7464,-0.7476,-0.7464,-0.746,-0.7452,-0.7358,-0.7305,-0.7194,-0.7024,-0.6903,-0.681,-0.6653,-0.6507,-0.6507,-0.6372,-0.6145,-0.6002,-0.5854,-0.5464,-0.5196,-0.5396,-0.5851,-0.6144,-0.5711,-0.5256,-0.4708,-0.4341,-0.4227,-0.4317,-0.4497,-0.4584,-0.4884,-0.4851,-0.4849,-0.5157,-0.5476,-0.5556,-0.5556,-0.5476,-0.5712,-0.5864,-0.5941,-0.6099,-0.618,-0.6103,-0.6103,-0.6103,-0.6103,-0.618,-0.618,-0.6099,-0.6099,-0.6257,-0.6261,-0.6261,-0.6261,-0.6261,-0.6261,-0.6261,-0.6261,-0.6261,-0.6261,-0.6261,-0.6261,-0.6261,-0.6261,-0.6261,-0.6183,-0.6183,-0.6183,-0.6261,-0.6261,-0.618,-0.5944,-0.5631,-0.5318,-0.5318,-0.524,-0.4929,-0.4696,-0.454,-0.4307,-1.2673,-1.2298,-1.2305,-1.2305,-1.2305,-1.2305,-1.2077,-1.1706,-1.1477,-1.0962,-1.0363,-0.9387,-0.8632,-0.8102,-0.7714,-0.7557,-0.748,-0.748,-0.748,-0.748,-0.748,-0.748,-0.748,-0.748,-0.748,-0.748,-0.748,-0.748,-0.748,-0.748,-0.748,-0.748,-0.748,-0.748,-0.748,-0.748,-0.748,-0.748,-0.7435,-0.7435,-0.7435,-0.7407,-0.7399,-0.7407,-0.7427,-0.7443,-0.7363,-0.7095,-0.6961,-0.676,-0.6604,-0.6585,-0.6321,-0.6302,-0.6572,-0.6676,-0.6569,-0.6273,-0.5995,-0.5498,-0.5362,-0.5402,-0.5588,-0.5745,-0.5928,-0.5709,-0.5709,-0.586,-0.6099,-0.6099,-0.6022,-0.6022,-0.618,-0.618,-0.6177,-0.618,-0.6257,-0.6257,-0.6257,-0.6257,-0.6261,-0.6261,-0.6261,-0.618,-0.6177,-0.6257,-0.6261,-0.6261,-0.6261,-0.6261,-0.6261,-0.6261,-0.6261,-0.6261,-0.6261,-0.6261,-0.6261,-0.6261,-0.6261,-0.6261,-0.6261,-0.6261,-0.6261,-0.6261,-0.6261,-0.6261,-0.6257,-0.6022,-0.5789,-0.5786,-0.5631,-0.5321,-0.501,-0.4776,-0.4545,-1.2746,-1.2445,-1.2378,-1.2305,-1.2305,-1.2305,-1.2157,-1.1855,-1.1632,-1.1111,-1.0293,-0.9468,-0.8784,-0.8327,-0.7872,-0.7638,-0.7557,-0.748,-0.748,-0.748,-0.748,-0.748,-0.748,-0.748,-0.748,-0.748,-0.748,-0.748,-0.748,-0.748,-0.748,-0.748,-0.748,-0.748,-0.748,-0.748,-0.748,-0.748,-0.748,-0.748,-0.748,-0.748,-0.748,-0.748,-0.748,-0.748,-0.7472,-0.7403,-0.7363,-0.7323,-0.7223,-0.7195,-0.7175,-0.7045,-0.7049,-0.7163,-0.7033,-0.7068,-0.6938,-0.6481,-0.6088,-0.6204,-0.6447,-0.6633,-0.663,-0.6633,-0.6633,-0.6633,-0.656,-0.656,-0.656,-0.6483,-0.649,-0.6412,-0.6412,-0.6335,-0.6261,-0.6261,-0.6261,-0.6261,-0.6261,-0.6261,-0.6261,-0.6257,-0.6257,-0.6261,-0.6261,-0.6261,-0.6261,-0.6261,-0.6261,-0.6261,-0.6261,-0.6281,-0.6288,-0.6274,-0.6268,-0.6281,-0.6288,-0.6288,-0.6298,-0.6261,-0.6261,-0.6261,-0.6261,-0.6261,-0.6261,-0.6261,-0.618,-0.6099,-0.5867,-0.5631,-0.5321,-0.4935,-0.4779,-1.282,-1.2599,-1.2452,-1.2378,-1.2305,-1.2305,-1.2231,-1.2003,-1.1855,-1.126,-1.0212,-0.962,-0.8937,-0.8403,-0.7953,-0.7718,-0.7561,-0.748,-0.748,-0.748,-0.748,-0.748,-0.748,-0.748,-0.748,-0.748,-0.748,-0.748,-0.748,-0.748,-0.748,-0.748,-0.748,-0.748,-0.748,-0.748,-0.748,-0.748,-0.748,-0.748,-0.748,-0.748,-0.748,-0.748,-0.748,-0.748,-0.748,-0.748,-0.748,-0.7468,-0.7464,-0.7472,-0.7476,-0.748,-0.748,-0.748,-0.748,-0.748,-0.7367,-0.7095,-0.6745,-0.6835,-0.7007,-0.7099,-0.7176,-0.733,-0.7173,-0.7022,-0.7022,-0.7019,-0.6942,-0.6714,-0.6563,-0.6486,-0.6335,-0.6261,-0.6261,-0.6261,-0.6261,-0.6261,-0.6261,-0.6261,-0.6264,-0.6268,-0.6281,-0.6274,-0.6261,-0.6261,-0.6261,-0.6261,-0.6261,-0.6261,-0.6261,-0.6291,-0.6322,-0.6407,-0.6481,-0.6461,-0.6451,-0.638,-0.6359,-0.6308,-0.6264,-0.6261,-0.6261,-0.6261,-0.6261,-0.6261,-0.6261,-0.6257,-0.6022,-0.5705,-0.5326,-0.4937,-0.4937,-1.2973,-1.2599,-1.2599,-1.2452,-1.2305,-1.2305,-1.215,-1.2003,-1.1929,-1.1403,-1.0513,-0.9771,-0.9013,-0.8479,-0.8106,-0.7795,-0.7561,-0.7561,-0.7557,-0.748,-0.748,-0.748,-0.748,-0.748,-0.748,-0.748,-0.748,-0.748,-0.748,-0.748,-0.748,-0.748,-0.748,-0.748,-0.748,-0.748,-0.748,-0.748,-0.748,-0.748,-0.748,-0.748,-0.748,-0.748,-0.748,-0.748,-0.748,-0.748,-0.748,-0.748,-0.748,-0.748,-0.748,-0.748,-0.748,-0.748,-0.748,-0.748,-0.7476,-0.7468,-0.7395,-0.7322,-0.7407,-0.7403,-0.748,-0.7484,-0.7407,-0.7176,-0.733,-0.7253,-0.7019,-0.6788,-0.6714,-0.6563,-0.6409,-0.6335,-0.6335,-0.6261,-0.6261,-0.6261,-0.6261,-0.6261,-0.6345,-0.6352,-0.6373,-0.6291,-0.6268,-0.6268,-0.6291,-0.6342,-0.6373,-0.6335,-0.6342,-0.6369,-0.6444,-0.6535,-0.6609,-0.6664,-0.66,-0.6515,-0.6413,-0.6332,-0.6295,-0.6271,-0.6261,-0.6261,-0.6261,-0.6261,-0.6257,-0.618,-0.5938,-0.5625,-0.5246,-0.5018,-0.5096,-1.3046,-1.2826,-1.2673,-1.2452,-1.2305,-1.2305,-1.2231,-1.2157,-1.2009,-1.1632,-1.1037,-1.0363,-0.9695,-0.9089,-0.8556,-0.8178,-0.7718,-0.7718,-0.7642,-0.748,-0.7557,-0.748,-0.748,-0.748,-0.748,-0.748,-0.748,-0.748,-0.748,-0.748,-0.748,-0.748,-0.748,-0.748,-0.748,-0.748,-0.748,-0.748,-0.748,-0.748,-0.748,-0.748,-0.748,-0.748,-0.748,-0.748,-0.748,-0.748,-0.748,-0.748,-0.748,-0.748,-0.748,-0.748,-0.748,-0.748,-0.748,-0.748,-0.748,-0.7476,-0.748,-0.748,-0.748,-0.748,-0.748,-0.748,-0.748,-0.7403,-0.748,-0.7407,-0.733,-0.7099,-0.7022,-0.6788,-0.6637,-0.6412,-0.6335,-0.6335,-0.6261,-0.6261,-0.6261,-0.6346,-0.6383,-0.6407,-0.642,-0.6458,-0.6458,-0.6417,-0.642,-0.6525,-0.6586,-0.6498,-0.6471,-0.6488,-0.6563,-0.6676,-0.6733,-0.6763,-0.6698,-0.6699,-0.6589,-0.6493,-0.6414,-0.6393,-0.6362,-0.6261,-0.6261,-0.6257,-0.6177,-0.6018,-0.586,-0.5702,-0.5473,-0.5323,-0.5326,-1.3193,-1.2973,-1.2746,-1.2599,-1.2378,-1.2298,-1.2305,-1.2231,-1.2077,-1.1781,-1.1335,-1.0812,-1.0143,-0.9468,-0.9013,-0.8556,-0.803,-0.803,-0.7799,-0.7638,-0.7638,-0.7561,-0.7557,-0.748,-0.748,-0.748,-0.748,-0.748,-0.748,-0.748,-0.748,-0.748,-0.748,-0.748,-0.748,-0.748,-0.748,-0.748,-0.748,-0.748,-0.748,-0.748,-0.748,-0.748,-0.748,-0.748,-0.748,-0.748,-0.748,-0.748,-0.748,-0.748,-0.748,-0.748,-0.748,-0.748,-0.748,-0.748,-0.748,-0.748,-0.748,-0.748,-0.748,-0.748,-0.748,-0.748,-0.748,-0.748,-0.748,-0.748,-0.7484,-0.733,-0.7099,-0.6942,-0.6721,-0.6574,-0.6362,-0.6362,-0.6349,-0.6339,-0.639,-0.6464,-0.6525,-0.6546,-0.6573,-0.6617,-0.6658,-0.6614,-0.6573,-0.6661,-0.6746,-0.6675,-0.6641,-0.6671,-0.6766,-0.6932,-0.6946,-0.6868,-0.6803,-0.6746,-0.6754,-0.6668,-0.6551,-0.651,-0.6393,-0.6285,-0.6264,-0.6257,-0.618,-0.6177,-0.6099,-0.5864,-0.5625,-0.5631,-0.5559,-1.3419,-1.3193,-1.2973,-1.2753,-1.2599,-1.2372,-1.2305,-1.2305,-1.2077,-1.1774,-1.1409,-1.1037,-1.0438,-0.9765,-0.9468,-0.9013,-0.8556,-0.8484,-0.8178,-0.7953,-0.7876,-0.7718,-0.7561,-0.748,-0.748,-0.748,-0.748,-0.748,-0.748,-0.748,-0.748,-0.748,-0.748,-0.748,-0.748,-0.748,-0.748,-0.748,-0.748,-0.748,-0.748,-0.748,-0.748,-0.748,-0.748,-0.748,-0.748,-0.748,-0.748,-0.748,-0.748,-0.748,-0.748,-0.748,-0.748,-0.748,-0.748,-0.748,-0.748,-0.748,-0.748,-0.748,-0.748,-0.748,-0.748,-0.748,-0.748,-0.748,-0.748,-0.748,-0.748,-0.733,-0.7176,-0.6957,-0.6743,-0.6606,-0.6397,-0.6369,-0.6458,-0.6512,-0.6586,-0.6651,-0.6688,-0.6712,-0.6732,-0.6807,-0.6844,-0.6837,-0.6797,-0.6773,-0.6837,-0.6831,-0.682,-0.6786,-0.689,-0.7068,-0.7071,-0.6987,-0.6959,-0.6905,-0.6831,-0.6783,-0.6729,-0.6692,-0.6479,-0.64,-0.6332,-0.6302,-0.6257,-0.6257,-0.618,-0.6103,-0.5867,-0.5789,-0.5792,-1.3346,-1.32,-1.2973,-1.2753,-1.2599,-1.2378,-1.2305,-1.2305,-1.2224,-1.2077,-1.1787,-1.1558,-1.1037,-1.0443,-1.0212,-0.9695,-0.9316,-0.8937,-0.8637,-0.8408,-0.8102,-0.7876,-0.7723,-0.7638,-0.7561,-0.748,-0.748,-0.748,-0.748,-0.748,-0.748,-0.748,-0.748,-0.748,-0.748,-0.748,-0.748,-0.748,-0.748,-0.748,-0.748,-0.748,-0.748,-0.748,-0.748,-0.748,-0.748,-0.748,-0.748,-0.748,-0.748,-0.748,-0.748,-0.748,-0.748,-0.748,-0.748,-0.748,-0.748,-0.748,-0.748,-0.748,-0.748,-0.748,-0.748,-0.748,-0.748,-0.748,-0.7484,-0.7488,-0.7521,-0.7455,-0.7243,-0.704,-0.6917,-0.6813,-0.661,-0.6532,-0.6617,-0.6692,-0.6766,-0.68,-0.6841,-0.6861,-0.6888,-0.698,-0.7024,-0.701,-0.6993,-0.6959,-0.6943,-0.6943,-0.6959,-0.7,-0.7037,-0.7119,-0.7129,-0.7115,-0.7071,-0.7048,-0.7017,-0.6983,-0.69,-0.6776,-0.6634,-0.6498,-0.6424,-0.6376,-0.6308,-0.6345,-0.6264,-0.6183,-0.6106,-0.6025,-0.5948,-1.3419,-1.3273,-1.3127,-1.29,-1.2599,-1.2378,-1.2305,-1.2305,-1.2305,-1.2231,-1.2003,-1.1855,-1.1558,-1.1031,-1.0887,-1.0438,-0.9846,-0.969,-0.9316,-0.8865,-0.8479,-0.8255,-0.8025,-0.7795,-0.7642,-0.7561,-0.7561,-0.748,-0.748,-0.748,-0.748,-0.748,-0.748,-0.748,-0.748,-0.748,-0.748,-0.748,-0.748,-0.748,-0.748,-0.748,-0.748,-0.748,-0.748,-0.748,-0.748,-0.748,-0.748,-0.748,-0.748,-0.748,-0.748,-0.748,-0.748,-0.748,-0.748,-0.748,-0.748,-0.748,-0.748,-0.748,-0.748,-0.748,-0.748,-0.748,-0.748,-0.748,-0.7492,-0.7508,-0.7557,-0.7606,-0.734,-0.7149,-0.7057,-0.7046,-0.688,-0.6798,-0.679,-0.6865,-0.6912,-0.6943,-0.6973,-0.6993,-0.7021,-0.7068,-0.7095,-0.7092,-0.7085,-0.7075,-0.7065,-0.7061,-0.7082,-0.7112,-0.7139,-0.7139,-0.7139,-0.7139,-0.7126,-0.7112,-0.7139,-0.7122,-0.6987,-0.6897,-0.6858,-0.6722,-0.658,-0.6447,-0.6445,-0.6417,-0.639,-0.6288,-0.6278,-0.6183,-0.6103,-1.3492,-1.3499,-1.3273,-1.29,-1.2606,-1.2372,-1.2305,-1.2305,-1.2305,-1.2224,-1.2077,-1.2003,-1.1781,-1.1484,-1.1409,-1.1111,-1.0588,-1.0368,-0.9992,-0.9402,-0.9013,-0.8708,-0.8484,-0.8102,-0.7949,-0.7795,-0.7642,-0.7561,-0.748,-0.748,-0.748,-0.748,-0.748,-0.748,-0.748,-0.748,-0.748,-0.748,-0.748,-0.748,-0.748,-0.748,-0.748,-0.748,-0.748,-0.748,-0.748,-0.748,-0.748,-0.748,-0.748,-0.748,-0.748,-0.748,-0.748,-0.748,-0.748,-0.748,-0.748,-0.748,-0.748,-0.748,-0.748,-0.748,-0.748,-0.748,-0.748,-0.7529,-0.7553,-0.7626,-0.7683,-0.7756,-0.7652,-0.7396,-0.7308,-0.7112,-0.692,-0.6844,-0.6946,-0.7007,-0.7027,-0.7058,-0.7061,-0.7075,-0.7071,-0.7126,-0.7139,-0.7139,-0.7139,-0.7139,-0.7139,-0.7139,-0.7139,-0.7139,-0.7139,-0.7139,-0.7139,-0.7139,-0.7139,-0.7139,-0.7139,-0.7139,-0.7139,-0.7044,-0.6946,-0.6858,-0.6736,-0.6597,-0.6498,-0.6481,-0.6437,-0.6346,-0.6315,-0.6332,-0.6281,-1.3492,-1.3492,-1.3119,-1.282,-1.2599,-1.2378,-1.2305,-1.2305,-1.2305,-1.2231,-1.2224,-1.2231,-1.2077,-1.1855,-1.1855,-1.1558,-1.1186,-1.0887,-1.0594,-1.0143,-0.9614,-0.9311,-0.9013,-0.856,-0.8327,-0.8102,-0.7949,-0.7714,-0.7633,-0.7557,-0.748,-0.748,-0.7557,-0.7557,-0.748,-0.748,-0.7565,-0.7512,-0.7516,-0.7529,-0.7541,-0.75,-0.748,-0.748,-0.748,-0.748,-0.748,-0.748,-0.748,-0.748,-0.748,-0.748,-0.748,-0.748,-0.748,-0.748,-0.748,-0.748,-0.748,-0.748,-0.748,-0.748,-0.748,-0.748,-0.748,-0.748,-0.7512,-0.7577,-0.7659,-0.7744,-0.7833,-0.791,-0.7827,-0.7658,-0.7476,-0.7176,-0.6871,-0.6976,-0.7001,-0.7115,-0.7136,-0.7139,-0.7139,-0.7139,-0.7139,-0.7139,-0.7139,-0.7139,-0.7139,-0.7139,-0.7139,-0.7139,-0.7139,-0.7139,-0.7139,-0.7139,-0.7139,-0.7139,-0.7139,-0.7139,-0.7139,-0.7139,-0.7136,-0.7095,-0.7021,-0.6946,-0.6861,-0.6746,-0.6668,-0.6641,-0.6586,-0.6505,-0.6522,-0.6549,-0.6427,-1.3492,-1.3492,-1.3193,-1.29,-1.2753,-1.2526,-1.2372,-1.2305,-1.2305,-1.2305,-1.2305,-1.2305,-1.2231,-1.215,-1.215,-1.2003,-1.1632,-1.1484,-1.1186,-1.0812,-1.0288,-0.9992,-0.9614,-0.9165,-0.8941,-0.8713,-0.8403,-0.8169,-0.794,-0.7613,-0.7532,-0.7544,-0.7625,-0.771,-0.7633,-0.7569,-0.7614,-0.7606,-0.7598,-0.7638,-0.765,-0.7598,-0.7496,-0.748,-0.7484,-0.7488,-0.748,-0.748,-0.748,-0.748,-0.748,-0.748,-0.748,-0.748,-0.748,-0.748,-0.748,-0.748,-0.748,-0.748,-0.748,-0.748,-0.748,-0.748,-0.748,-0.7488,-0.7565,-0.7638,-0.7817,-0.7918,-0.804,-0.813,-0.7974,-0.7804,-0.767,-0.7447,-0.7198,-0.7068,-0.7034,-0.7129,-0.7139,-0.7139,-0.7139,-0.7139,-0.7139,-0.7139,-0.7139,-0.7139,-0.7139,-0.7139,-0.7139,-0.7139,-0.7139,-0.7139,-0.7139,-0.7139,-0.7139,-0.7139,-0.7139,-0.7139,-0.7139,-0.7139,-0.7129,-0.7105,-0.7085,-0.7061,-0.697,-0.6871,-0.6827,-0.68,-0.6739,-0.6671,-0.6709,-0.6736,-0.6627,-1.3492,-1.3492,-1.3266,-1.3119,-1.29,-1.268,-1.2526,-1.2378,-1.2305,-1.2305,-1.2305,-1.2305,-1.2305,-1.2305,-1.2305,-1.2157,-1.2003,-1.1781,-1.1558,-1.1335,-1.0893,-1.0669,-1.0293,-0.9846,-0.9468,-0.917,-0.8861,-0.8708,-0.8551,-0.8147,-0.7833,-0.7757,-0.7923,-0.8089,-0.7795,-0.7769,-0.7914,-0.7861,-0.7848,-0.7862,-0.7817,-0.7732,-0.7634,-0.7573,-0.7529,-0.7521,-0.7521,-0.7492,-0.7492,-0.748,-0.748,-0.748,-0.748,-0.748,-0.748,-0.748,-0.748,-0.748,-0.748,-0.748,-0.748,-0.748,-0.7484,-0.7496,-0.7504,-0.7577,-0.7729,-0.7813,-0.7992,-0.8109,-0.8227,-0.8325,-0.8166,-0.7964,-0.7819,-0.7665,-0.7312,-0.7136,-0.7136,-0.7139,-0.7139,-0.7139,-0.7139,-0.7139,-0.7139,-0.7139,-0.7139,-0.7139,-0.7139,-0.7139,-0.7139,-0.7139,-0.7139,-0.7139,-0.7139,-0.7139,-0.7139,-0.7139,-0.7139,-0.7139,-0.7139,-0.7139,-0.7139,-0.7139,-0.7119,-0.7102,-0.7085,-0.701,-0.6976,-0.6943,-0.6919,-0.6868,-0.6858,-0.6868,-0.682,-1.3492,-1.3499,-1.3273,-1.32,-1.3127,-1.2753,-1.2606,-1.2526,-1.2378,-1.2305,-1.2305,-1.2305,-1.2305,-1.2305,-1.2305,-1.2231,-1.2157,-1.2009,-1.1929,-1.1781,-1.1416,-1.1267,-1.1043,-1.0519,-0.9916,-0.962,-0.9322,-0.9089,-0.9155,-0.8765,-0.8461,-0.8537,-0.8875,-0.8894,-0.853,-0.8462,-0.8295,-0.8235,-0.8085,-0.8094,-0.8016,-0.7959,-0.7939,-0.7866,-0.778,-0.7736,-0.7675,-0.7557,-0.7504,-0.748,-0.7492,-0.7496,-0.748,-0.748,-0.748,-0.748,-0.748,-0.748,-0.748,-0.748,-0.748,-0.7525,-0.7545,-0.759,-0.7725,-0.7848,-0.7979,-0.8109,-0.8251,-0.8296,-0.8394,-0.8455,-0.836,-0.8093,-0.7845,-0.758,-0.7228,-0.7139,-0.7139,-0.7139,-0.7139,-0.7139,-0.7139,-0.7139,-0.7139,-0.7139,-0.7139,-0.7139,-0.7139,-0.7139,-0.7139,-0.7139,-0.7139,-0.7139,-0.7139,-0.7139,-0.7139,-0.7139,-0.7139,-0.7139,-0.7139,-0.7139,-0.7139,-0.7139,-0.7139,-0.7129,-0.7109,-0.7092,-0.7092,-0.7061,-0.7085,-0.7071,-0.7041,-0.7004,-0.6959]},{"header":{"parameterUnit":"m.s-1","parameterCategory":1,"la1":31.0,"la2":29.5877,"lo1":-88.7671,"lo2":-86.6584,"dy":0.0162,"dx":0.0185,"nx":115,"ny":88,"refTime":"2024-07-04T18:00:00:Z","depth":0,"parameterNumber":3,"parameterNumberName":"V-component_of_WINDS"},"data":[0.0,0.0,0.0,0.0,0.0,0.0,0.0,0.0,0.0,0.0,0.0,0.0,0.0,0.0,0.0,0.0,0.0,0.0,0.0,0.0,0.0,0.0,0.0,0.0,0.0,0.0,0.0,0.0,0.0,0.0,0.0,0.0,0.0,0.0,0.0,0.0,0.0,0.0,0.0,0.0,0.0,0.0,0.0,0.0,0.0,0.0,0.0,0.0,0.0,0.0,0.0,0.0,0.0,0.0,0.0,0.0,0.0,0.0,0.0,0.0,0.0,0.0,0.0,0.0,0.0,0.0,0.0,0.0,0.0,0.0,0.0,0.0,0.0,0.0,0.0,0.0,0.0,0.0,0.0,0.0,0.0,0.0,0.0,0.0,0.0,0.0,0.0,0.0,0.0,0.0,0.0,0.0,0.0,0.0,0.0,0.0,0.0,0.0,0.0,0.0,0.0,0.0,0.0,0.0,0.0,0.0,0.0,0.0,0.0,0.0,0.0,0.0,0.0,0.0,0.0,0.0,0.0,0.0,0.0,0.0,0.0,0.0,0.0,0.0,0.0,0.0,0.0,0.0,0.0,0.0,0.0,0.0,0.0,0.0,0.0,0.0,0.0,0.0,0.0,0.0,0.0,0.0,0.0,0.0,0.0,0.0,0.0,0.0,0.0,0.0,0.0,0.0,0.0,0.0,0.0,0.0,0.0,0.0,0.0,0.0,0.0,0.0,0.0,0.0,0.0,0.0,0.0,0.0,0.0,0.0,0.0,0.0,0.0,0.0,0.0,0.0,0.0,0.0,0.0,0.0,0.0,0.0,0.0,0.0,0.0,0.0,0.0,0.0,0.0,0.0,0.0,0.0,0.0,0.0,0.0,0.0,0.0,0.0,0.0,0.0,0.0,0.0,0.0,0.0,0.0,0.0,0.0,0.0,0.0,0.0,0.0,0.0,0.0,0.0,0.0,0.0,0.0,0.0,0.0,0.0,0.0,0.0,0.0,0.0,0.0,0.0,0.0,0.0,0.0,0.0,0.0,0.0,0.0,0.0,0.0,0.0,0.0,0.0,0.0,0.0,0.0,0.0,0.0,0.0,0.0,0.0,0.0,0.0,0.0,0.0,0.0,0.0,0.0,0.0,0.0,0.0,0.0,0.0,0.0,0.0,0.0,0.0,0.0,0.0,0.0,0.0,0.0,0.0,0.0,0.0,0.0,0.0,0.0,0.0,0.0,0.0,0.0,0.0,0.0,0.0,0.0,0.0,0.0,0.0,0.0,0.0,0.0,0.0,0.0,0.0,0.0,0.0,0.0,0.0,0.0,0.0,0.0,0.0,0.0,0.0,0.0,0.0,0.0,0.0,0.0,0.0,0.0,0.0,0.0,0.0,0.0,0.0,0.0,0.0,0.0,0.0,0.0,0.0,0.0,0.0,0.0,0.0,0.0,0.0,0.0,0.0,0.0,0.0,0.0,0.0,0.0,0.0,0.0,0.0,0.0,0.0,0.0,0.0,0.0,0.0,0.0,0.0,0.0,0.0,0.0,0.0,0.0,0.0,0.0,0.0,0.0,0.0,0.0,0.0,0.0,0.0,0.0,0.0,0.0,0.0,0.0,0.0,0.0,0.0,0.0,0.0,0.0,0.0,0.0,0.0,0.0,0.0,0.0,0.0,0.0,0.0,0.0,0.0,0.0,0.0,0.0,0.0,0.0,0.0,0.0,0.0,0.0,0.0,0.0,0.0,0.0,0.0,0.0,0.0,0.0,0.0,0.0,0.0,0.0,0.0,0.0,0.0,0.0,0.0,0.0,0.0,0.0,0.0,0.0,0.0,0.0,0.0,0.0,0.0,0.0,0.0,0.0,0.0,0.0,0.0,0.0,0.0,0.0,0.0,0.0,0.0,0.0,0.0,0.0,0.0,0.0,0.0,0.0,0.0,0.0,0.0,0.0,0.0,0.0,0.0,0.0,0.0,0.0,0.0,0.0,0.0,0.0,0.0,0.0,0.0,0.0,0.0,0.0,0.0,0.0,0.0,0.0,0.0,0.0,0.0,0.0,0.0,0.0,0.0,0.0,0.0,0.0,0.0,0.0,0.0,0.0,0.0,0.0,0.0,0.0,0.0,0.0,0.0,0.0,0.0,0.0,0.0,0.0,0.0,0.0,0.0,0.0,0.0,0.0,0.0,0.0,0.0,0.0,0.0,0.0,0.0,0.0,0.0,0.0,0.0,0.0,0.0,0.0,0.0,0.0,0.0,0.0,0.0,0.0,0.0,0.0,0.0,0.0,0.0,0.0,0.0,0.0,0.0,0.0,0.0,0.0,0.0,0.0,0.0,0.0,0.0,0.0,0.0,0.0,0.0,0.0,0.0,0.0,0.0,0.0,0.0,0.0,0.0,0.0,0.0,0.0,0.0,0.0,0.0,0.0,0.0,0.0,0.0,0.0,0.0,0.0,0.0,0.0,0.0,0.0,0.0,0.0,0.0,0.0,0.0,0.0,0.0,0.0,0.0,0.0,0.0,0.0,0.0,0.0,0.0,0.0,0.0,0.0,0.0,0.0,0.0,0.0,0.0,0.0,0.0,0.0,0.0,0.0,0.0,0.0,0.0,0.0,0.0,0.0,0.0,0.0,0.0,0.0,0.0,0.0,0.0,0.0,0.0,0.0,0.0,0.0,0.0,0.0,0.0,0.0,0.0,0.0,0.0,0.0,0.0,0.0,0.0,0.0,0.0,0.0,0.0,0.0,0.0,0.0,0.0,0.0,0.0,0.0,0.0,0.0,0.0,0.0,0.0,0.0,0.0,0.0,0.0,0.0,0.0,0.0,0.0,0.0,0.0,0.0,0.0,0.0,0.0,0.0,0.0,0.0,0.0,0.0,0.0,0.0,0.0,0.0,0.0,0.0,0.0,0.0,0.0,0.0,0.0,0.0,0.0,0.0,0.0,0.0,0.0,0.0,0.0,0.0,0.0,0.0,0.0,0.0,0.0,0.0,0.0,0.0,0.0,0.0,0.0,0.0,0.0,0.0,0.0,0.0,0.0,0.0,0.0,0.0,0.0,0.0,0.0,0.0,0.0,0.0,0.0,0.0,0.0,0.0,0.0,0.0,0.0,0.0,0.0,0.0,0.0,0.0,0.0,0.0,0.0,0.0,0.0,0.0,0.0,0.0,0.0,0.0,0.0,0.0,0.0,0.0,0.0,0.0,0.0,0.0,0.0,0.0,0.0,0.0,0.0,0.0,0.0,0.0,0.0,0.0,0.0,0.0,0.0,0.0,0.0,0.0,0.0,0.0,0.0,0.0,0.0,0.0,0.0,0.0,0.0,0.0,0.0,0.0,0.0,0.0,0.0,0.0,0.0,0.0,0.0,0.0,0.0,0.0,0.0,0.0,0.0,0.0,0.0,0.0,0.0,0.0,0.0,0.0,0.0,0.0,0.0,0.0,0.0,0.0,0.0,0.0,0.0,0.0,0.0,0.0,0.0,0.0,0.0,0.0,0.0,0.0,0.0,0.0,0.0,0.0,0.0,0.0,0.0,0.0,0.0,0.0,0.0,0.0,0.0,0.0,0.0,0.0,0.0,0.0,0.0,0.0,0.0,0.0,0.0,0.0,0.0,0.0,0.0,0.0,0.0,0.0,0.0,0.0,0.0,0.0,0.0,0.0,0.0,0.0,0.0,0.0,0.0,0.0,0.0,0.0,0.0,0.0,0.0,0.0,0.0,0.0,0.0,0.0,0.0,0.0,0.0,0.0,0.0,0.0,0.0,0.0,0.0,0.0,0.0,0.0,0.0,0.0,0.0,0.0,0.0,0.0,0.0,0.0,0.0,0.0,0.0,0.0,0.0,0.0,0.0,0.0,0.0,0.0,0.0,0.0,0.0,0.0,0.0,0.0,0.0,0.0,0.0,0.0,0.0,0.0,0.0,0.0,0.0,0.0,0.0,0.0,0.0,0.0,0.0,0.0,0.0,0.0,0.0,0.0,0.0,0.0,0.0,0.0,0.0,0.0,0.0,0.0,0.0,0.0,0.0,0.0,0.0,0.0,0.0,0.0,0.0,0.0,0.0,0.0,0.0,0.0,0.0,0.0,0.0,0.0,0.0,0.0,0.0,0.0,0.0,0.0,0.0,0.0,0.0,0.0,0.0,0.0,0.0,0.0,0.0,0.0,0.0,0.0,0.0,0.0,0.0,0.0,0.0,0.0,0.0,0.0,0.0,0.0,0.0,0.0,0.0,0.0,0.0,0.0,0.0,0.0,0.0,0.0,0.0,0.0,0.0,0.0,0.0,-0.2578,0.0,0.0,0.0,0.0,0.0,0.0,0.0,0.0,0.0,0.0,0.0,0.0,0.0,0.0,0.0,0.0,0.0,0.0,0.0,0.0,0.0,0.0,0.0,0.0,0.0,0.0,0.0,0.0,0.0,0.0,0.0,0.0,0.0,0.0,0.0,0.0,0.0,0.0,0.0,0.0,0.0,0.0,0.0,0.0,0.0,0.0,0.0,0.0,0.0,0.0,0.0,0.0,0.0,0.0,0.0,0.0,0.0,0.0,0.0,0.0,0.0,0.0,0.0,0.0,0.0,0.0,0.0,0.0,0.0,0.0,0.0,0.0,0.0,0.0,0.0,0.0,0.0,0.0,0.0,0.0,0.0,0.0,0.0,0.0,0.0,0.0,0.0,0.0,0.0,0.0,0.0,0.0,0.0,0.0,0.0,0.0,0.0,0.0,0.0,0.0,0.0,0.0,0.0,0.0,0.0,0.0,0.0,0.0,0.0,0.0,-0.2597,-0.2598,-0.2568,-0.2568,-0.2617,0.0,0.0,0.0,0.0,0.0,0.0,0.0,0.0,0.0,0.0,0.0,0.0,0.0,0.0,0.0,0.0,0.0,0.0,0.0,0.0,0.0,0.0,0.0,0.0,0.0,0.0,0.0,0.0,0.0,0.0,0.0,0.0,0.0,0.0,0.0,0.0,0.0,0.0,0.0,0.0,0.0,0.0,0.0,0.0,0.0,0.0,0.0,0.0,0.0,0.0,0.0,0.0,0.0,0.0,0.0,0.0,0.0,0.0,0.0,0.0,0.0,0.0,0.0,0.0,0.0,0.0,0.0,0.0,0.0,0.0,0.0,0.0,0.0,0.0,0.0,0.0,0.0,0.0,0.0,0.0,0.0,0.0,0.0,0.0,0.0,0.0,0.0,0.0,0.0,0.0,0.0,0.0,0.0,0.0,0.0,0.0,0.0,0.0,0.0,0.0,0.0,0.0,0.0,0.0,0.0,0.0,0.0,0.0,0.0,0.0,0.0,0.0,-0.2597,-0.2657,-0.2786,0.0,0.0,0.0,0.0,0.0,0.0,0.0,0.0,0.0,0.0,0.0,0.0,0.0,0.0,0.0,0.0,0.0,0.0,0.0,0.0,0.0,0.0,0.0,0.0,0.0,0.0,0.0,0.0,0.0,0.0,0.0,0.0,0.0,0.0,0.0,0.0,0.0,0.0,0.0,0.0,0.0,0.0,0.0,0.0,0.0,0.0,0.0,0.0,0.0,0.0,0.0,0.0,0.0,0.0,0.0,0.0,0.0,0.0,0.0,0.0,0.0,0.0,0.0,0.0,0.0,0.0,0.0,0.0,0.0,0.0,0.0,0.0,0.0,0.0,0.0,0.0,0.0,0.0,0.0,0.0,0.0,0.0,0.0,0.0,0.0,0.0,0.0,0.0,0.0,0.0,0.0,0.0,0.0,0.0,0.0,0.0,0.0,0.0,0.0,0.0,0.0,0.0,0.0,0.0,0.0,0.0,0.0,0.0,0.0,0.0,-0.2587,-0.2597,-0.2607,0.0,-0.3287,0.0,0.0,0.0,0.0,0.0,0.0,0.0,0.0,0.0,0.0,0.0,0.0,0.0,0.0,0.0,0.0,0.0,0.0,0.0,0.0,0.0,0.0,0.0,0.0,0.0,0.0,0.0,0.0,0.0,0.0,0.0,0.0,0.0,0.0,0.0,0.0,0.0,0.0,0.0,0.0,0.0,0.0,0.0,0.0,0.0,0.0,0.0,0.0,0.0,0.0,0.0,0.0,0.0,0.0,0.0,0.0,0.0,0.0,0.0,0.0,0.0,0.0,0.0,0.0,0.0,0.0,0.0,0.0,0.0,0.0,0.0,0.0,0.0,0.0,0.0,0.0,0.0,0.0,0.0,0.0,0.0,0.0,0.0,0.0,0.0,0.0,0.0,0.0,0.0,0.0,0.0,0.0,0.0,0.0,0.0,0.0,0.0,0.0,0.0,0.0,0.0,0.0,0.0,0.0,0.0,0.0,0.0,0.0,0.0,0.0,0.0,-0.3017,-0.3017,-0.3263,0.0,0.0,0.0,0.0,0.0,0.0,0.0,0.0,0.0,0.0,0.0,0.0,0.0,0.0,0.0,0.0,0.0,0.0,0.0,0.0,0.0,0.0,0.0,0.0,0.0,0.0,0.0,0.0,0.0,0.0,0.0,0.0,0.0,0.0,0.0,0.0,0.0,0.0,0.0,0.0,0.0,0.0,0.0,0.0,0.0,0.0,0.0,0.0,0.0,0.0,0.0,0.0,0.0,0.0,0.0,0.0,0.0,0.0,0.0,0.0,0.0,0.0,0.0,0.0,0.0,0.0,0.0,0.0,0.0,0.0,0.0,0.0,0.0,0.0,0.0,0.0,0.0,0.0,0.0,0.0,0.0,0.0,0.0,0.0,0.0,0.0,0.0,0.0,0.0,0.0,0.0,0.0,0.0,0.0,0.0,0.0,0.0,0.0,0.0,0.0,0.0,0.0,0.0,0.0,0.0,0.0,0.0,0.0,0.0,0.0,-0.3022,0.0,-0.3107,-0.3239,-0.3447,-0.3695,0.0,0.0,0.0,0.0,0.0,0.0,0.0,0.0,0.0,0.0,0.0,0.0,0.0,0.0,0.0,0.0,0.0,0.0,0.0,0.0,0.0,0.0,0.0,0.0,0.0,0.0,0.0,0.0,0.0,0.0,0.0,0.0,0.0,0.0,0.0,0.0,0.0,0.0,0.0,0.0,0.0,0.0,0.0,0.0,0.0,0.0,0.0,0.0,0.0,0.0,0.0,0.0,0.0,0.0,0.0,0.0,0.0,0.0,0.0,0.0,0.0,0.0,0.0,0.0,0.0,0.0,0.0,0.0,0.0,0.0,0.0,0.0,0.0,0.0,0.0,0.0,0.0,0.0,0.0,0.0,0.0,0.0,0.0,0.0,0.0,0.0,0.0,0.0,0.0,0.0,0.0,0.0,0.0,0.0,0.0,0.0,0.0,0.0,0.0,0.0,0.0,0.0,0.0,0.0,0.0,0.0,0.0,0.0,0.0,-0.2803,-0.2705,-0.2686,-0.3077,-0.3128,0.0,0.0,0.0,0.0,0.0,0.0,0.0,0.0,0.0,0.0,0.0,0.0,0.0,0.0,0.0,0.0,0.0,0.0,0.0,0.0,0.0,0.0,0.0,0.0,0.0,0.0,0.0,0.0,0.0,0.0,0.0,0.0,0.0,0.0,0.0,0.0,0.0,0.0,0.0,0.0,0.0,0.0,0.0,0.0,0.0,0.0,0.0,0.0,0.0,0.0,0.0,0.0,0.0,0.0,0.0,0.0,0.0,0.0,0.0,0.0,0.0,0.0,0.0,0.0,0.0,0.0,0.0,0.0,0.0,0.0,0.0,0.0,0.0,0.0,0.0,0.0,0.0,0.0,0.0,0.0,0.0,0.0,0.0,0.0,0.0,0.0,0.0,0.0,0.0,0.0,0.0,0.0,0.0,0.0,0.0,0.0,0.0,0.0,0.0,0.0,0.0,0.0,0.0,0.0,0.0,0.0,0.0,0.0,0.0,-0.2908,-0.3257,-0.3579,0.0,-0.3751,-0.3508,0.0,0.0,0.0,0.0,0.0,0.0,0.0,0.0,0.0,0.0,0.0,0.0,0.0,0.0,0.0,0.0,0.0,0.0,0.0,0.0,0.0,0.0,0.0,0.0,0.0,0.0,0.0,0.0,0.0,0.0,0.0,0.0,0.0,0.0,0.0,0.0,0.0,0.0,0.0,0.0,0.0,0.0,0.0,0.0,0.0,0.0,0.0,0.0,0.0,0.0,0.0,0.0,0.0,0.0,0.0,0.0,0.0,0.0,0.0,0.0,0.0,0.0,0.0,0.0,0.0,0.0,0.0,0.0,0.0,0.0,0.0,0.0,0.0,0.0,0.0,0.0,0.0,0.0,0.0,0.0,0.0,0.0,0.0,0.0,0.0,0.0,0.0,0.0,0.0,0.0,0.0,0.0,0.0,0.0,0.0,0.0,0.0,0.0,0.0,0.0,0.0,0.0,0.0,0.0,0.0,0.0,0.0,0.0,0.0,-0.3084,0.0,-0.4209,0.0,-0.4229,-0.3941,0.0,0.0,0.0,0.0,0.0,0.0,0.0,0.0,0.0,0.0,0.0,0.0,0.0,0.0,0.0,0.0,0.0,0.0,0.0,0.0,0.0,0.0,0.0,0.0,0.0,0.0,0.0,0.0,0.0,0.0,0.0,0.0,0.0,0.0,0.0,0.0,0.0,0.0,0.0,0.0,0.0,0.0,0.0,0.0,0.0,0.0,0.0,0.0,0.0,0.0,0.0,0.0,0.0,0.0,0.0,0.0,0.0,0.0,0.0,0.0,0.0,0.0,0.0,0.0,0.0,0.0,0.0,0.0,0.0,0.0,0.0,0.0,0.0,0.0,0.0,0.0,0.0,0.0,0.0,0.0,0.0,0.0,0.0,0.0,0.0,0.0,0.0,0.0,0.0,0.0,0.0,0.0,0.0,0.0,0.0,0.0,0.0,0.0,0.0,0.0,0.0,0.0,0.0,0.0,0.0,0.0,0.0,0.0,0.0,-0.3441,-0.4195,-0.44,-0.4043,-0.4454,-0.4291,0.0,0.0,0.0,0.0,0.0,0.0,0.0,0.0,0.0,0.0,0.0,0.0,0.0,0.0,0.0,0.0,0.0,0.0,0.0,0.0,0.0,0.0,0.0,0.0,0.0,0.0,0.0,0.0,0.0,0.0,0.0,0.0,0.0,0.0,0.0,0.0,0.0,0.0,0.0,0.0,0.0,0.0,0.0,0.0,0.0,0.0,0.0,0.0,0.0,0.0,0.0,0.0,0.0,0.0,0.0,0.0,0.0,0.0,0.0,0.0,0.0,0.0,0.0,0.0,0.0,0.0,0.0,0.0,0.0,0.0,0.0,0.0,0.0,0.0,0.0,0.0,0.0,0.0,0.0,0.0,0.0,0.0,0.0,0.0,0.0,0.0,0.0,0.0,0.0,0.0,0.0,0.0,0.0,0.0,0.0,0.0,0.0,0.0,0.0,0.0,0.0,0.0,0.0,0.0,0.0,0.0,0.0,0.0,0.0,-0.4438,-0.4594,-0.46,-0.4505,-0.4627,-0.4476,0.0,0.0,0.0,0.0,0.0,0.0,0.0,0.0,0.0,0.0,0.0,0.0,0.0,0.0,0.0,0.0,0.0,0.0,0.0,0.0,0.0,0.0,0.0,0.0,0.0,0.0,0.0,0.0,0.0,0.0,0.0,0.0,0.0,0.0,0.0,0.0,0.0,0.0,0.0,0.0,0.0,0.0,0.0,0.0,0.0,0.0,0.0,0.0,0.0,0.0,0.0,0.0,0.0,0.0,0.0,0.0,0.0,0.0,0.0,0.0,0.0,0.0,0.0,0.0,0.0,0.0,0.0,0.0,0.0,0.0,0.0,0.0,0.0,0.0,0.0,0.0,0.0,0.0,0.0,0.0,0.0,0.0,0.0,0.0,0.0,0.0,0.0,0.0,0.0,0.0,0.0,0.0,0.0,0.0,0.0,0.0,0.0,0.0,0.0,0.0,0.0,0.0,0.0,0.0,0.0,0.0,0.0,0.0,0.0,-0.5545,-0.5381,-0.5278,-0.525,-0.5278,-0.5075,-0.4579,0.0,0.0,0.0,0.0,0.0,0.0,0.0,0.0,0.0,0.0,0.0,0.0,0.0,0.0,0.0,0.0,0.0,0.0,0.0,0.0,0.0,0.0,0.0,0.0,0.0,0.0,0.0,0.0,0.0,0.0,0.0,0.0,0.0,0.0,0.0,0.0,0.0,0.0,0.0,0.0,0.0,0.0,0.0,0.0,0.0,0.0,0.0,0.0,0.0,0.0,0.0,0.0,0.0,0.0,0.0,0.0,0.0,0.0,0.0,0.0,0.0,0.0,0.0,0.0,0.0,0.0,0.0,0.0,0.0,0.0,0.0,0.0,0.0,0.0,0.0,0.0,0.0,0.0,0.0,0.0,0.0,0.0,0.0,0.0,0.0,0.0,0.0,0.0,0.0,0.0,0.0,0.0,0.0,0.0,0.0,0.0,0.0,0.0,0.0,0.0,0.0,0.0,0.0,0.0,0.0,0.0,0.0,0.0,-0.6734,-0.6543,-0.6382,-0.6255,-0.6266,-0.5933,0.0,0.0,0.0,0.0,0.0,0.0,0.0,0.0,0.0,0.0,0.0,0.0,0.0,0.0,0.0,0.0,0.0,0.0,0.0,0.0,0.0,0.0,0.0,0.0,0.0,0.0,0.0,0.0,0.0,0.0,0.0,0.0,0.0,0.0,0.0,0.0,0.0,0.0,0.0,0.0,0.0,0.0,0.0,0.0,0.0,0.0,0.0,0.0,0.0,0.0,0.0,0.0,0.0,0.0,0.0,0.0,0.0,0.0,0.0,0.0,0.0,0.0,0.0,0.0,0.0,0.0,0.0,0.0,0.0,0.0,0.0,0.0,0.0,0.0,0.0,0.0,0.0,0.0,0.0,0.0,0.0,0.0,0.0,0.0,0.0,0.0,0.0,0.0,0.0,0.0,0.0,0.0,0.0,0.0,0.0,0.0,0.0,0.0,0.0,0.0,0.0,0.0,0.0,0.0,0.0,0.0,0.0,0.0,0.0,-0.8403,-0.8356,-0.7868,-0.6988,-0.6587,-0.6366,0.0,0.0,0.0,0.0,0.0,0.0,0.0,0.0,0.0,0.0,0.0,0.0,0.0,0.0,0.0,0.0,0.0,0.0,0.0,0.0,0.0,0.0,0.0,0.0,0.0,0.0,0.0,0.0,0.0,0.0,0.0,0.0,0.0,0.0,0.0,0.0,0.0,0.0,0.0,0.0,0.0,0.0,0.0,0.0,0.0,0.0,0.0,0.0,0.0,0.0,0.0,0.0,0.0,0.0,0.0,0.0,0.0,0.0,0.0,0.0,0.0,0.0,0.0,0.0,0.0,0.0,0.0,0.0,0.0,0.0,0.0,0.0,0.0,0.0,0.0,0.0,0.0,0.0,0.0,0.0,0.0,0.0,0.0,0.0,0.0,0.0,0.0,0.0,0.0,0.0,0.0,0.0,0.0,0.0,0.0,0.0,0.0,0.0,0.0,0.0,0.0,0.0,0.0,0.0,0.0,0.0,0.0,0.0,-0.8014,-0.92,-0.9304,-0.9135,-0.8718,-0.7931,-0.7259,0.0,0.0,0.0,0.0,0.0,0.0,0.0,0.0,0.0,0.0,0.0,0.0,0.0,0.0,0.0,0.0,0.0,0.0,0.0,0.0,0.0,0.0,0.0,0.0,0.0,0.0,0.0,0.0,0.0,0.0,0.0,0.0,0.0,0.0,0.0,0.0,0.0,0.0,0.0,0.0,0.0,0.0,0.0,0.0,0.0,0.0,0.0,0.0,0.0,0.0,0.0,0.0,0.0,0.0,0.0,0.0,0.0,0.0,0.0,0.0,0.0,0.0,0.0,0.0,0.0,0.0,0.0,0.0,0.0,0.0,0.0,0.0,0.0,0.0,0.0,0.0,0.0,0.0,0.0,0.0,0.0,0.0,0.0,0.0,0.0,0.0,0.0,0.0,0.0,0.0,0.0,0.0,0.0,0.0,0.0,0.0,0.0,0.0,0.0,0.0,0.0,0.0,0.0,0.0,0.0,0.0,0.0,0.0,-0.8574,-0.9578,-0.9875,-1.0316,-1.0829,-0.9678,-0.8342,0.0,0.0,0.0,0.0,0.0,0.0,0.0,0.0,0.0,0.0,0.0,0.0,0.0,0.0,0.0,0.0,0.0,0.0,0.0,0.0,0.0,0.0,0.0,0.0,0.0,0.0,0.0,0.0,0.0,0.0,0.0,0.0,0.0,0.0,0.0,0.0,0.0,0.0,0.0,0.0,0.0,0.0,0.0,0.0,0.0,0.0,0.0,0.0,0.0,0.0,0.0,0.0,0.0,0.0,0.0,0.0,0.0,0.0,0.0,0.0,0.0,0.0,0.0,0.0,0.0,0.0,0.0,0.0,0.0,0.0,0.0,0.0,0.0,0.0,0.0,0.0,0.0,0.0,0.0,0.0,0.0,0.0,0.0,0.0,0.0,0.0,0.0,0.0,0.0,0.0,0.0,0.0,0.0,0.0,0.0,0.0,0.0,0.0,0.0,0.0,0.0,0.0,0.0,0.0,0.0,0.0,0.0,0.0,-0.9802,-1.0803,-1.1236,-1.1527,-1.1634,-1.0003,-0.8826,0.0,0.0,0.0,0.0,0.0,0.0,0.0,0.0,0.0,0.0,0.0,0.0,0.0,0.0,0.0,0.0,0.0,0.0,0.0,0.0,0.0,0.0,0.0,0.0,0.0,0.0,0.0,0.0,0.0,0.0,0.0,0.0,0.0,0.0,0.0,0.0,0.0,0.0,0.0,0.0,0.0,0.0,0.0,0.0,0.0,0.0,0.0,0.0,-0.6858,0.0,0.0,0.0,0.0,0.0,0.0,0.0,0.0,0.0,0.0,0.0,0.0,0.0,0.0,0.0,0.0,0.0,0.0,0.0,0.0,0.0,0.0,0.0,0.0,0.0,0.0,0.0,0.0,0.0,0.0,0.0,0.0,0.0,0.0,0.0,0.0,0.0,0.0,0.0,0.0,0.0,0.0,0.0,0.0,0.0,0.0,0.0,0.0,0.0,0.0,0.0,0.0,0.0,0.0,0.0,0.0,0.0,0.0,0.0,-1.0266,-1.1253,-1.1733,-1.2067,-1.2283,-1.0893,-0.9666,0.0,0.0,0.0,0.0,0.0,0.0,0.0,0.0,0.0,0.0,0.0,0.0,0.0,0.0,0.0,0.0,0.0,0.0,0.0,0.0,0.0,0.0,0.0,0.0,0.0,0.0,0.0,0.0,0.0,0.0,0.0,0.0,0.0,0.0,0.0,0.0,0.0,0.0,0.0,0.0,0.0,0.0,0.0,0.0,0.0,0.0,0.0,0.0,0.0,0.0,0.0,0.0,0.0,0.0,0.0,0.0,0.0,0.0,0.0,0.0,0.0,0.0,0.0,0.0,0.0,0.0,0.0,0.0,0.0,0.0,0.0,0.0,0.0,0.0,0.0,0.0,0.0,0.0,0.0,0.0,0.0,0.0,0.0,0.0,0.0,0.0,0.0,0.0,0.0,0.0,0.0,0.0,0.0,0.0,0.0,0.0,0.0,0.0,0.0,0.0,0.0,0.0,0.0,0.0,0.0,0.0,0.0,-0.9529,-1.0553,-1.1447,-1.1999,-1.2509,-1.2963,-1.1886,-1.055,-0.9059,0.0,0.0,0.0,0.0,0.0,0.0,0.0,0.0,0.0,0.0,0.0,0.0,0.0,0.0,0.0,0.0,0.0,0.0,0.0,0.0,0.0,0.0,0.0,0.0,0.0,0.0,0.0,0.0,0.0,0.0,0.0,0.0,0.0,0.0,0.0,0.0,0.0,0.0,-0.6478,-0.6887,0.0,0.0,0.0,0.0,0.0,0.0,0.0,0.0,-0.7171,0.0,0.0,0.0,0.0,0.0,0.0,0.0,0.0,0.0,0.0,0.0,0.0,0.0,0.0,0.0,0.0,0.0,0.0,0.0,0.0,0.0,0.0,0.0,0.0,0.0,0.0,0.0,0.0,0.0,0.0,0.0,0.0,0.0,0.0,0.0,0.0,0.0,0.0,0.0,0.0,0.0,0.0,0.0,0.0,0.0,0.0,0.0,0.0,0.0,0.0,0.0,0.0,0.0,0.0,0.0,0.0,-0.8555,-1.0586,-1.1709,-1.1814,-1.2814,-1.3357,-1.3387,-1.231,-1.1137,-0.9945,0.0,0.0,0.0,0.0,0.0,0.0,0.0,0.0,0.0,0.0,0.0,0.0,0.0,0.0,0.0,0.0,0.0,0.0,0.0,0.0,0.0,0.0,0.0,0.0,0.0,0.0,0.0,0.0,0.0,0.0,0.0,0.0,0.0,0.0,0.0,0.0,0.0,0.0,0.0,-0.7273,-0.7329,0.0,0.0,0.0,0.0,0.0,0.0,0.0,0.0,-0.7262,0.0,0.0,0.0,0.0,0.0,0.0,0.0,0.0,0.0,0.0,0.0,0.0,0.0,0.0,0.0,0.0,0.0,0.0,0.0,0.0,0.0,0.0,0.0,0.0,0.0,0.0,0.0,0.0,0.0,0.0,0.0,0.0,0.0,0.0,0.0,0.0,0.0,0.0,0.0,0.0,0.0,0.0,0.0,0.0,0.0,0.0,0.0,0.0,0.0,0.0,0.0,0.0,0.0,0.0,0.0,-0.9324,-1.119,-1.234,-1.2631,-1.3401,-1.3782,-1.3682,-1.2589,-1.1445,0.0,0.0,0.0,0.0,0.0,0.0,0.0,0.0,0.0,0.0,0.0,0.0,0.0,0.0,0.0,0.0,0.0,0.0,0.0,0.0,0.0,0.0,0.0,0.0,0.0,0.0,0.0,0.0,0.0,0.0,0.0,0.0,0.0,0.0,0.0,0.0,0.0,0.0,0.0,0.0,-0.7675,-0.7903,-0.787,0.0,0.0,0.0,0.0,0.0,0.0,-0.8141,-0.7912,0.0,0.0,0.0,0.0,0.0,0.0,0.0,0.0,0.0,0.0,0.0,0.0,0.0,0.0,0.0,0.0,0.0,0.0,0.0,0.0,0.0,0.0,0.0,0.0,0.0,0.0,0.0,0.0,0.0,0.0,0.0,0.0,0.0,0.0,0.0,0.0,0.0,0.0,0.0,0.0,0.0,0.0,0.0,0.0,0.0,0.0,0.0,0.0,0.0,0.0,0.0,0.0,0.0,0.0,0.0,-0.9939,-1.1651,-1.2853,-1.3411,-1.3916,-1.4111,-1.4,-1.2881,-1.1694,0.0,0.0,0.0,0.0,0.0,0.0,0.0,0.0,0.0,0.0,0.0,0.0,0.0,0.0,0.0,0.0,0.0,0.0,0.0,0.0,0.0,0.0,0.0,0.0,0.0,0.0,0.0,0.0,0.0,0.0,0.0,0.0,0.0,0.0,0.0,0.0,0.0,0.0,0.0,0.0,0.0,-0.8439,-0.8482,-0.862,0.0,0.0,0.0,0.0,-0.9356,-0.9021,0.0,0.0,0.0,0.0,0.0,0.0,0.0,0.0,0.0,0.0,0.0,0.0,0.0,0.0,0.0,0.0,0.0,0.0,0.0,0.0,0.0,0.0,0.0,0.0,0.0,0.0,0.0,0.0,0.0,0.0,0.0,0.0,0.0,0.0,0.0,0.0,0.0,0.0,0.0,0.0,0.0,0.0,0.0,0.0,0.0,0.0,0.0,0.0,0.0,0.0,0.0,0.0,0.0,0.0,0.0,0.0,-1.0363,-1.2162,-1.3329,-1.3839,-1.4396,-1.4637,-1.4424,-1.321,-1.1939,0.0,0.0,0.0,0.0,0.0,0.0,0.0,0.0,0.0,0.0,0.0,0.0,0.0,0.0,0.0,0.0,0.0,0.0,0.0,0.0,0.0,0.0,0.0,0.0,0.0,0.0,0.0,0.0,0.0,0.0,0.0,0.0,0.0,0.0,0.0,0.0,0.0,0.0,0.0,0.0,0.0,-0.8559,-0.872,-0.9152,-0.9347,0.0,0.0,-0.9459,-0.949,-0.9446,0.0,0.0,0.0,0.0,0.0,0.0,0.0,0.0,0.0,0.0,0.0,0.0,0.0,0.0,0.0,0.0,0.0,0.0,0.0,0.0,0.0,0.0,0.0,0.0,0.0,0.0,0.0,0.0,0.0,0.0,0.0,0.0,0.0,0.0,0.0,0.0,0.0,0.0,0.0,0.0,0.0,0.0,0.0,0.0,0.0,0.0,0.0,0.0,0.0,0.0,0.0,0.0,0.0,0.0,0.0,-1.0103,-1.1153,-1.2673,-1.3938,-1.4834,-1.5065,-1.5133,-1.4951,-1.3686,-1.2336,0.0,0.0,0.0,0.0,0.0,0.0,0.0,0.0,0.0,0.0,0.0,0.0,0.0,0.0,0.0,0.0,0.0,0.0,0.0,0.0,0.0,0.0,0.0,0.0,0.0,0.0,0.0,0.0,0.0,0.0,0.0,0.0,0.0,0.0,0.0,0.0,0.0,0.0,0.0,0.0,0.0,0.0,-0.9546,-1.0303,0.0,0.0,0.0,-1.1512,-1.1715,0.0,0.0,0.0,0.0,0.0,0.0,0.0,0.0,0.0,0.0,0.0,0.0,0.0,0.0,0.0,0.0,0.0,0.0,0.0,0.0,0.0,0.0,0.0,0.0,0.0,0.0,0.0,0.0,0.0,0.0,0.0,0.0,0.0,0.0,0.0,0.0,0.0,0.0,0.0,0.0,0.0,0.0,0.0,0.0,0.0,0.0,0.0,0.0,0.0,0.0,0.0,0.0,0.0,0.0,0.0,0.0,0.0,-1.179,-1.3127,-1.4442,-1.5666,-1.5682,-1.5595,-1.5433,-1.4145,0.0,0.0,0.0,0.0,0.0,0.0,0.0,0.0,0.0,0.0,0.0,0.0,0.0,0.0,0.0,0.0,0.0,0.0,0.0,0.0,0.0,0.0,0.0,0.0,0.0,0.0,0.0,-0.4325,0.0,0.0,0.0,0.0,0.0,0.0,0.0,0.0,0.0,0.0,0.0,0.0,0.0,0.0,-1.0279,-1.0518,-1.1584,-1.2696,0.0,0.0,-1.3217,-1.3528,-1.2686,-1.1719,0.0,0.0,0.0,0.0,0.0,0.0,0.0,0.0,0.0,0.0,0.0,0.0,0.0,0.0,0.0,0.0,0.0,0.0,0.0,0.0,0.0,0.0,0.0,0.0,0.0,0.0,0.0,0.0,0.0,0.0,0.0,0.0,0.0,0.0,0.0,0.0,0.0,0.0,0.0,0.0,0.0,0.0,0.0,0.0,0.0,0.0,0.0,0.0,0.0,0.0,0.0,0.0,0.0,0.0,0.0,-1.2075,-1.344,-1.4799,-1.6022,-1.605,-1.5981,-1.5841,-1.4494,-1.3112,0.0,0.0,0.0,0.0,0.0,0.0,0.0,0.0,0.0,0.0,0.0,0.0,0.0,0.0,0.0,0.0,0.0,0.0,0.0,0.0,0.0,0.0,0.0,0.0,0.0,0.0,0.0,0.0,0.0,0.0,0.0,0.0,0.0,0.0,0.0,0.0,0.0,0.0,0.0,0.0,0.0,-1.167,-1.1512,-1.2892,-1.4464,0.0,0.0,-1.389,-1.379,-1.335,-1.2704,-1.1866,0.0,0.0,0.0,0.0,0.0,0.0,0.0,0.0,0.0,0.0,0.0,0.0,0.0,0.0,0.0,0.0,0.0,0.0,0.0,0.0,0.0,0.0,0.0,0.0,0.0,0.0,0.0,0.0,0.0,0.0,0.0,0.0,0.0,0.0,0.0,0.0,0.0,0.0,0.0,0.0,0.0,0.0,0.0,0.0,0.0,0.0,0.0,0.0,0.0,0.0,0.0,0.0,0.0,-1.0929,-1.2338,-1.3765,-1.5173,-1.648,-1.6501,-1.6421,-1.6328,-1.4883,-1.3459,0.0,0.0,0.0,0.0,0.0,0.0,0.0,0.0,0.0,0.0,0.0,0.0,0.0,0.0,0.0,0.0,0.0,0.0,0.0,0.0,0.0,0.0,0.0,0.0,0.0,0.0,0.0,0.0,-0.6634,-0.7088,-0.7505,0.0,0.0,0.0,0.0,0.0,0.0,0.0,0.0,0.0,0.0,-1.2499,-1.3115,-1.4279,0.0,0.0,-1.6077,-1.5526,-1.5327,-1.4638,-1.3806,-1.281,-1.2054,0.0,0.0,0.0,0.0,0.0,0.0,0.0,0.0,0.0,0.0,0.0,0.0,0.0,0.0,0.0,0.0,0.0,0.0,0.0,0.0,0.0,0.0,0.0,0.0,0.0,0.0,0.0,0.0,0.0,0.0,0.0,0.0,0.0,0.0,0.0,0.0,0.0,0.0,0.0,0.0,0.0,0.0,0.0,0.0,0.0,0.0,0.0,0.0,0.0,0.0,0.0,0.0,-1.1223,-1.2904,-1.4165,-1.5454,-1.686,-1.685,-1.6799,-1.668,-1.5264,-1.3917,0.0,0.0,0.0,0.0,0.0,0.0,0.0,0.0,0.0,0.0,0.0,0.0,0.0,0.0,0.0,0.0,0.0,0.0,0.0,0.0,0.0,0.0,0.0,0.0,0.0,0.0,0.0,0.0,-0.7267,-0.7588,-0.8102,0.0,0.0,0.0,0.0,0.0,0.0,0.0,0.0,0.0,0.0,-1.3802,-1.4311,-1.54,-1.6403,-1.7035,-1.6908,-1.6686,-1.6459,-1.5806,-1.4992,-1.4184,0.0,0.0,0.0,0.0,0.0,0.0,0.0,0.0,0.0,0.0,0.0,0.0,0.0,0.0,0.0,0.0,0.0,0.0,0.0,0.0,0.0,0.0,0.0,0.0,0.0,0.0,0.0,0.0,0.0,0.0,-0.7195,0.0,0.0,0.0,0.0,0.0,0.0,0.0,0.0,0.0,0.0,0.0,0.0,0.0,0.0,0.0,0.0,0.0,0.0,0.0,0.0,0.0,0.0,0.0,-1.3824,-1.4647,-1.5684,-1.7036,-1.7085,-1.7052,-1.6986,-1.5642,-1.4481,-1.3641,0.0,0.0,0.0,0.0,0.0,0.0,0.0,0.0,0.0,0.0,0.0,0.0,0.0,0.0,0.0,0.0,0.0,0.0,0.0,0.0,0.0,0.0,0.0,0.0,0.0,0.0,-0.7218,-0.7834,-0.8309,0.0,0.0,0.0,0.0,0.0,0.0,0.0,0.0,0.0,0.0,-1.4883,-1.5874,-1.5014,-1.6229,-1.7401,-1.7616,-1.7345,-1.7093,-1.7041,-1.6661,-1.6275,0.0,0.0,0.0,0.0,0.0,0.0,0.0,0.0,0.0,0.0,0.0,0.0,0.0,0.0,0.0,0.0,0.0,0.0,0.0,0.0,0.0,0.0,0.0,0.0,0.0,0.0,0.0,-0.9822,-0.9796,0.0,0.0,0.0,0.0,0.0,0.0,0.0,0.0,0.0,0.0,0.0,-1.5017,-1.5231,0.0,0.0,0.0,0.0,0.0,0.0,0.0,0.0,0.0,0.0,0.0,0.0,-1.297,-1.4238,-1.5441,-1.6564,-1.7516,-1.7509,-1.7486,-1.7462,-1.6464,-1.511,-1.3266,0.0,0.0,0.0,0.0,0.0,0.0,0.0,0.0,0.0,0.0,0.0,0.0,0.0,0.0,0.0,0.0,0.0,0.0,0.0,0.0,0.0,0.0,0.0,0.0,0.0,-0.8125,0.0,0.0,0.0,0.0,0.0,0.0,0.0,0.0,0.0,0.0,0.0,-1.4038,-1.6058,-1.6978,-1.7567,-1.7941,-1.8741,-1.9457,0.0,0.0,0.0,0.0,0.0,0.0,0.0,0.0,0.0,0.0,0.0,0.0,0.0,0.0,-1.5866,-1.4653,-1.4094,-1.3774,-1.3774,0.0,0.0,0.0,0.0,0.0,0.0,0.0,0.0,0.0,0.0,0.0,0.0,0.0,0.0,-1.2184,0.0,-1.2089,0.0,0.0,0.0,0.0,0.0,0.0,0.0,0.0,-1.5328,-1.6497,-1.7683,-1.7937,-1.7997,0.0,-1.7243,-1.5955,0.0,0.0,0.0,0.0,0.0,0.0,0.0,0.0,-1.4124,-1.5675,-1.6663,-1.7688,-1.8665,-1.8416,-1.8257,-1.824,-1.7241,-1.557,-1.3277,-1.2272,-1.1068,0.0,0.0,0.0,0.0,0.0,0.0,0.0,0.0,0.0,0.0,0.0,0.0,0.0,0.0,0.0,0.0,0.0,0.0,0.0,0.0,0.0,0.0,0.0,-0.8684,0.0,0.0,0.0,0.0,0.0,0.0,0.0,0.0,0.0,-1.502,-1.5088,-1.5863,-1.7828,-1.8594,-1.9255,-2.0183,0.0,0.0,0.0,0.0,0.0,0.0,0.0,-1.9026,-1.9568,-2.0555,-2.0815,-1.9565,-1.8612,-1.837,-1.9486,0.0,0.0,-1.7471,-1.6761,-1.6438,-1.6386,-1.6041,-1.586,-1.6298,-1.6388,-1.6302,0.0,0.0,0.0,0.0,0.0,0.0,0.0,0.0,-1.4367,-1.4458,0.0,-1.4307,0.0,0.0,0.0,0.0,0.0,-1.4401,0.0,0.0,-1.7873,-1.9001,-1.9803,-2.0406,-2.0732,-2.071,-1.9934,-1.9181,-1.827,-1.4485,0.0,0.0,0.0,0.0,0.0,0.0,-1.5228,-1.8052,-1.8239,-1.9001,-2.0391,-1.9762,-1.9342,-1.9273,-1.7797,-1.5985,-1.3866,-1.3597,-1.2799,-1.1346,-0.9879,0.0,0.0,0.0,0.0,0.0,0.0,0.0,0.0,0.0,0.0,0.0,0.0,0.0,0.0,0.0,0.0,0.0,0.0,0.0,0.0,-0.8834,0.0,0.0,0.0,0.0,0.0,0.0,0.0,0.0,0.0,0.0,-1.554,-1.7107,-1.8374,-1.8443,0.0,0.0,0.0,0.0,-2.1106,-2.1702,-2.1286,-2.0903,-2.0925,-2.1334,-2.1466,-2.1065,0.0,0.0,-2.1464,-2.0847,-2.0668,-2.1461,-2.2045,-2.1771,-1.9595,-1.9144,-1.9054,-1.9107,-1.9052,-1.9053,-1.909,-1.9001,-1.8713,-1.9124,0.0,0.0,0.0,0.0,-1.7625,-1.7704,-1.7887,-1.7637,-1.764,-1.7804,-1.7555,0.0,0.0,0.0,0.0,0.0,0.0,-1.8807,-1.9039,-2.0024,-2.092,-2.1708,-2.1903,-2.1968,-2.1886,-2.1654,-2.1173,-2.0334,-1.8642,-1.6571,-1.4267,0.0,0.0,0.0,0.0,-1.7555,-1.8489,-1.9603,-2.0396,-2.0859,-2.0625,-2.0217,-1.9668,-1.8172,-1.7028,-1.6343,-1.5765,-1.4749,-1.3194,-1.217,0.0,0.0,0.0,0.0,0.0,0.0,0.0,0.0,0.0,0.0,0.0,0.0,0.0,0.0,0.0,0.0,0.0,0.0,0.0,-0.9777,-1.0401,-1.0767,0.0,0.0,0.0,0.0,0.0,0.0,0.0,0.0,0.0,-1.8663,-1.9119,-1.9856,0.0,0.0,-2.21,-2.2782,-2.283,-2.2891,-2.316,0.0,0.0,0.0,-2.2865,-2.2826,-2.2901,-2.3148,-2.325,-2.3097,-2.3045,-2.3103,-2.3382,-2.3693,-2.3654,-2.2995,-2.1822,-2.1184,-2.144,-2.1256,-2.1016,-2.0999,-2.0999,-2.0764,-2.251,-2.1392,-2.0628,-2.0292,-2.0276,-2.023,-2.0197,-2.018,-2.0129,-2.0113,-2.0097,-2.0027,-2.001,-2.001,-1.9433,0.0,0.0,0.0,-2.0953,-2.1224,-2.1733,-2.2406,-2.3168,-2.3166,-2.3127,-2.3087,-2.3066,-2.263,-2.1834,-2.1347,-1.9939,-1.7661,0.0,0.0,-1.7029,-1.8376,-1.9443,-2.0121,-2.109,-2.1736,-2.2057,-2.1774,-2.1095,-2.0042,-1.9057,-1.8253,-1.7576,-1.713,-1.615,-1.457,-1.372,-1.2325,0.0,0.0,0.0,0.0,0.0,0.0,0.0,0.0,0.0,0.0,0.0,-0.6667,0.0,0.0,0.0,0.0,-0.9012,-0.9804,-1.1332,-1.1866,0.0,0.0,0.0,0.0,0.0,0.0,0.0,-1.7395,-1.9146,-2.0516,-2.0969,-2.1329,-2.1774,-2.23,-2.2683,-2.3081,-2.3473,0.0,-2.384,-2.3941,-2.3941,-2.3959,-2.3998,-2.3812,-2.3755,-2.3921,-2.3979,-2.4039,-2.4043,-2.4174,-2.4265,-2.4319,-2.4461,-2.4512,-2.4481,-2.3611,-2.3019,-2.3285,-2.3081,-2.2858,-2.2858,-2.2858,-2.2765,-2.4974,-2.475,-2.2978,-2.2195,-2.2129,-2.2129,-2.2097,-2.2046,-2.2029,-2.205,-2.2035,-2.1984,-2.1914,-2.1843,-2.1861,0.0,-2.0849,-2.1582,-2.2335,-2.3033,-2.3107,-2.3511,-2.4209,-2.4228,-2.4171,-2.4133,-2.4113,-2.3709,-2.294,-2.2903,-2.2557,-2.1789,-2.0102,-1.9541,-2.0094,-2.0205,-2.096,-2.2416,-2.2548,-2.2986,-2.3707,-2.3009,-2.193,-2.0462,-2.0282,-1.9486,-1.8003,-1.7918,-1.7181,-1.5612,-1.476,-1.3543,-1.1902,0.0,0.0,0.0,0.0,0.0,0.0,0.0,0.0,0.0,0.0,0.0,0.0,0.0,0.0,0.0,-1.1101,0.0,-1.3195,-1.3371,0.0,0.0,0.0,-1.6109,-1.6927,-1.831,-1.921,-1.9198,0.0,0.0,-2.2556,0.0,-2.3802,-2.2876,-2.3442,-2.3858,-2.375,-2.3959,-2.4136,-2.4229,-2.4266,-2.4321,-2.4321,-2.4302,-2.4302,-2.4321,-2.4393,-2.4411,-2.441,-2.4497,-2.4528,-2.4545,-2.4594,-2.4626,-2.4631,-2.4586,-2.4692,-2.4503,-2.4435,-2.442,-2.4416,-2.4396,-2.4407,-2.5122,-2.5072,-2.4581,-2.4295,-2.4186,-2.412,-2.4091,-2.4091,-2.408,-2.4084,-2.4088,-2.4023,-2.3939,-2.3892,-2.3989,-2.3896,-2.3627,-2.3883,-2.4073,-2.4195,-2.423,-2.4344,-2.4479,-2.4462,-2.4392,-2.432,-2.4321,-2.4211,-2.3953,-2.3934,-2.3842,-2.3658,-2.3199,-2.2392,-2.128,-2.1899,-2.2391,-2.2773,-2.3451,-2.3891,-2.4036,-2.3307,-2.241,-2.1385,-2.0763,-1.9959,-1.899,-1.8953,-1.8206,-1.6621,-1.578,-1.4842,-1.3787,-1.1685,0.0,0.0,0.0,0.0,0.0,0.0,0.0,0.0,0.0,-0.9311,-1.0303,0.0,-1.0684,0.0,-1.3304,-1.5429,-1.5105,-1.6177,0.0,0.0,-1.8462,-1.9392,-1.9651,-2.0537,-2.1291,-2.1675,-2.2462,-2.3216,-2.3787,-2.4136,-2.4281,-2.4132,-2.4155,-2.4172,-2.4112,-2.4211,-2.4389,-2.4545,-2.458,-2.4601,-2.4582,-2.4615,-2.4629,-2.4742,-2.4692,-2.4654,-2.4693,-2.476,-2.4827,-2.4861,-2.4837,-2.4837,-2.4813,-2.4856,-2.4893,-2.4921,-2.4865,-2.4779,-2.4813,-2.4837,-2.4879,-2.6458,-2.6448,-2.64,-2.6339,-2.6255,-2.573,-2.5735,-2.604,-2.6037,-2.6043,-2.6024,-2.5996,-2.593,-2.5901,-2.5982,-2.5754,-2.5338,-2.5357,-2.5158,-2.4741,-2.4727,-2.4731,-2.4723,-2.4689,-2.4657,-2.4572,-2.4578,-2.4561,-2.451,-2.4528,-2.4528,-2.451,-2.4528,-2.4011,-2.3089,-2.3362,-2.3529,-2.3529,-2.4026,-2.4284,-2.4321,-2.3914,-2.31,-2.1918,-2.1435,-2.0643,-1.9487,-1.9431,-1.8675,-1.7093,-1.6577,-1.576,-1.4536,-1.2896,-1.1608,0.0,0.0,0.0,0.0,0.0,0.0,0.0,0.0,0.0,0.0,0.0,-1.3317,-1.2462,-1.6559,-1.8766,-1.7538,-1.8559,-1.9446,-1.9797,-2.0631,-2.1313,-2.1747,-2.2191,-2.2724,-2.3456,-2.3698,-2.4011,-2.45,-2.4572,-2.4604,-2.4719,-2.4657,-2.4545,-2.4429,-2.4476,-2.4639,-2.4764,-2.4779,-2.4783,-2.4832,-2.4842,-2.4851,-2.4912,-2.4893,-2.4855,-2.4877,-2.4888,-2.4907,-2.498,-2.4993,-2.4987,-2.4999,-2.4993,-2.5013,-2.5106,-2.5094,-2.5025,-2.4993,-2.5025,-2.5044,-2.8008,-2.8028,-2.8008,-2.8086,-2.8097,-2.7169,-2.7129,-2.7654,-2.7649,-2.7656,-2.7637,-2.7593,-2.7561,-2.758,-2.7561,-2.7147,-2.6447,-2.6429,-2.6022,-2.5273,-2.5171,-2.5113,-2.5091,-2.4983,-2.4893,-2.4832,-2.4851,-2.4814,-2.4814,-2.4814,-2.4818,-2.4832,-2.4814,-2.4832,-2.4814,-2.4561,-2.4374,-2.4375,-2.4429,-2.4479,-2.4526,-2.4526,-2.3817,-2.2395,-2.2189,-2.1395,-1.988,-1.9675,-1.8912,-1.7411,-1.7293,-1.6476,-1.4725,-1.4061,-1.3523,0.0,-1.2694,0.0,0.0,0.0,0.0,0.0,0.0,0.0,0.0,-1.5542,-1.6114,-1.6511,-1.9948,-2.1535,-2.0048,-2.0658,-2.1407,-2.2114,-2.2266,-2.2654,-2.3393,-2.35,-2.3805,-2.4628,-2.4734,-2.4787,-2.4888,-2.4955,-2.5036,-2.5148,-2.534,-2.5362,-2.4994,-2.4877,-2.4851,-2.4915,-2.4915,-2.4934,-2.4987,-2.5044,-2.505,-2.5031,-2.5043,-2.5031,-2.5043,-2.4994,-2.4968,-2.5031,-2.5087,-2.5118,-2.5118,-2.5118,-2.5141,-2.5228,-2.5212,-2.519,-2.513,-2.513,-2.5153,-2.8163,-2.8163,-2.8163,-2.8532,-2.9104,-2.891,-2.8477,-2.7913,-2.7932,-2.7923,-2.7932,-2.7923,-2.7903,-2.7923,-2.7903,-2.7798,-2.7673,-2.7644,-2.7517,-2.7212,-2.6579,-2.6266,-2.6147,-2.5404,-2.5063,-2.5044,-2.5,-2.4968,-2.4968,-2.4968,-2.4949,-2.4968,-2.4968,-2.4981,-2.5032,0.0,0.0,0.0,-2.4716,-2.4731,-2.4727,-2.4746,-2.4294,-2.3333,-2.2636,0.0,-2.0854,-2.0138,-1.931,-1.838,-1.8324,0.0,0.0,0.0,0.0,0.0,0.0,0.0,0.0,0.0,0.0,0.0,-1.8278,-1.8091,-1.6809,-1.6804,-1.7709,-1.9761,-2.1367,-2.2093,-2.1685,-2.2395,-2.297,-2.3116,-2.3768,-2.4286,-2.4494,-2.4509,-2.4628,-2.4837,-2.4917,-2.4985,-2.5158,-2.5602,-2.604,-2.6149,-2.6696,-2.6931,-2.6579,-2.566,-2.5051,-2.5037,-2.5152,-2.5057,-2.5157,-2.5256,-2.5346,-2.5252,-2.5243,-2.5271,-2.5329,-2.525,-2.5228,-2.529,-2.5262,-2.5262,-2.5243,-2.5273,-2.5283,-2.5361,-2.5313,-2.5255,-2.5192,-2.5262,-2.5341,-2.9484,0.0,-2.9484,-2.9718,0.0,-3.0083,-2.9808,-2.9376,-2.9349,-2.9334,-2.9334,-2.9334,-2.9322,-2.9349,-2.9329,-2.9089,-2.8698,-2.8691,-2.8427,-2.7922,-2.7488,-2.7277,-2.7218,-2.6755,-2.6504,-2.6472,-2.6461,-2.622,-2.5806,-2.5787,-2.5595,-2.5212,-2.5192,-2.5222,-2.5252,-2.5252,-2.5138,-2.4949,-2.4949,-2.4968,-2.4994,-2.5013,-2.4594,-2.3776,0.0,0.0,0.0,0.0,0.0,0.0,0.0,0.0,0.0,0.0,0.0,-1.8677,-1.7509,-1.716,-1.8013,-1.844,-1.9039,-1.9874,-2.1107,-2.1251,-1.9844,-1.965,-2.0156,-2.1563,-2.2833,-2.3399,-2.2975,-2.3653,-2.4143,-2.4157,-2.4568,-2.4861,-2.4898,-2.4893,-2.5105,-2.5563,-2.5678,-2.5863,-2.6388,-2.6752,-2.7031,-2.7136,-2.7474,-2.77,-2.7426,-2.686,-2.64,-2.6469,-2.6178,-2.6014,-2.6079,-2.615,-2.6189,-2.6208,-2.64,-2.6564,-2.6583,-2.589,-2.5467,-2.5832,-2.5697,-2.5397,-2.5351,-2.534,-2.5369,-2.5387,-2.5404,-2.5393,-2.5369,-2.5369,-2.5397,-3.079,-3.079,-3.079,-3.079,-3.079,-3.079,-3.079,-3.0782,0.0,0.0,0.0,-3.0724,-3.0736,-3.0709,-3.0709,-3.0333,-2.966,-2.9635,-2.9247,-2.8572,-2.8345,-2.8257,-2.8236,-2.8092,-2.7987,-2.7931,-2.7913,-2.7556,-2.6852,-2.6852,-2.6446,-2.5693,-2.5636,-2.5539,-2.5423,-2.5432,-2.534,-2.5173,-2.5171,-2.519,-2.5231,-2.5231,-2.4886,-2.4187,-2.4014,-2.3275,-2.1943,-2.1732,-2.1004,-1.9624,-1.9528,-1.9394,-1.9049,-1.8696,-1.9211,-2.0636,-1.998,-1.981,-2.0537,-2.1187,-2.1636,-2.178,-2.3212,-2.3671,-2.2716,-2.2617,-2.2684,-2.2918,-2.4176,-2.467,-2.3999,-2.4511,-2.4929,-2.4929,-2.4993,-2.5038,-2.5032,-2.519,-2.559,-2.6288,-2.6548,-2.6929,-2.7643,-2.7923,-2.808,-2.8142,-2.8336,-2.8376,-2.8308,-2.7997,-2.7676,-2.768,-2.7304,-2.7122,-2.7229,-2.7605,-2.7594,-2.7306,-2.7576,-2.7913,-2.774,-2.6794,-2.6273,-2.6831,-2.6373,-2.6083,-2.5931,-2.6009,-2.5824,-2.5669,-2.5557,-2.5522,-2.5503,-2.5464,-2.5421,-3.08,-3.08,-3.08,-3.08,-3.08,-3.08,-3.0801,-3.0797,-3.0793,-3.0794,-3.08,-3.0784,-3.0774,-3.0794,-3.0794,-3.0735,-3.0599,-3.0599,-3.0497,-3.0297,-2.961,-2.9263,-2.9156,-2.8424,-2.8074,-2.808,-2.8024,-2.7923,-2.7818,-2.7791,-2.7376,-2.6613,-2.6517,-2.6149,-2.5546,-2.549,-2.5471,-2.5437,-2.5404,-2.536,-2.5388,-2.5369,-2.5311,-2.5176,-2.4463,-2.3981,-2.373,-2.3044,-2.2582,-2.2339,-2.2319,-2.208,-2.1525,-2.1806,-2.2411,-2.3102,-2.2596,-2.229,-2.2414,-2.253,-2.2915,-2.3664,-2.4619,-2.4726,-2.3736,-2.4157,-2.4561,-2.4651,-2.4958,-2.5077,-2.4854,-2.4937,-2.5025,-2.5069,-2.5101,-2.5106,-2.5225,-2.5822,-2.6343,-2.6666,-2.7266,-2.7708,-2.8037,-2.8597,-2.9012,-2.9119,-2.9476,-3.0065,-2.9767,-2.882,-2.8,-2.7885,-2.7856,-2.7798,-2.8087,-2.9197,-2.9273,-2.8094,-2.8017,-2.8199,-2.8274,-2.7956,-2.7705,-2.7861,-2.7811,-2.7714,-2.7629,-2.7714,-2.7307,-2.6726,-2.6144,-2.5698,-2.5712,-2.5667,-2.5563,-3.0788,-3.0788,-3.0788,-3.0788,-3.0788,-3.0788,-3.0796,-3.079,-3.08,-3.0786,-3.0788,-3.0794,-3.0799,-3.0784,-3.0784,-3.0799,-3.0791,-3.0788,-3.0801,-3.0724,-3.0373,-3.0185,-3.0116,-2.9761,-2.9561,-2.9574,-2.9524,-2.9259,-2.8857,-2.8812,-2.8372,-2.7524,-2.7058,-2.6385,-2.5596,-2.5557,-2.5544,-2.5538,-2.549,-2.5461,-2.5441,-2.5441,-2.5441,-2.5461,-2.5054,-2.4648,-2.4222,-2.3855,-2.3436,-2.2972,-2.2952,-2.2817,-2.2578,-2.2796,-2.3234,-2.3898,-2.3721,-2.3771,-2.4234,-2.4262,-2.4436,-2.4822,-2.5228,-2.526,-2.4774,-2.4919,-2.5084,-2.5163,-2.5244,-2.5264,-2.5179,-2.5149,-2.5179,-2.519,-2.5231,-2.5474,-2.5889,-2.6304,-2.6949,-2.7846,-2.8357,-2.8791,-2.9264,-2.966,-2.9931,-2.9999,-3.0376,-3.0569,-3.0559,-2.9912,-2.9352,-2.9352,-2.9371,-2.9371,-2.9438,-3.0008,-3.0181,-2.9474,-2.9414,-2.9442,-2.9486,-2.945,-2.9226,-2.8939,-2.9162,-2.9071,-2.8417,-2.812,-2.7938,-2.7731,-2.7296,-2.699,-2.6937,-2.6723,-2.6285,-3.1323,-3.1323,-3.1343,-3.1343,-3.1343,-3.1348,-3.1364,-3.1371,-3.1373,-3.1374,-3.1347,-3.1016,-3.082,-3.0819,-3.0819,-3.082,-3.0819,-3.0818,-3.0813,-3.0838,-3.0816,-3.0788,-3.0794,-3.0786,-3.0802,-3.0802,-3.0793,-3.0442,-2.9862,-2.9795,-2.9357,-2.8471,-2.7439,-2.6573,-2.5906,-2.5687,-2.5599,-2.5599,-2.5543,-2.5518,-2.5525,-2.5525,-2.5506,-2.5525,-2.5525,-2.5215,-2.4633,-2.4594,-2.4284,-2.3644,-2.3585,-2.3585,-2.3585,-2.3579,-2.3877,-2.4432,-2.4522,-2.4805,-2.5418,-2.5515,-2.5515,-2.5534,-2.5515,-2.5515,-2.5507,-2.5367,-2.5313,-2.5359,-2.5385,-2.5395,-2.537,-2.5361,-2.5399,-2.5582,-2.5658,-2.6062,-2.6765,-2.7103,-2.773,-2.9004,-2.939,-2.9786,-3.0327,-3.053,-3.053,-3.0558,-3.0625,-3.0625,-3.0625,-3.0634,-3.0634,-3.0606,-3.0597,-3.051,-3.0607,-3.0586,-3.0585,-3.0621,-3.056,-3.0486,-3.054,-3.0591,-3.0409,-2.9881,-3.0205,-3.0113,-2.902,-2.8799,-2.8763,-2.8588,-2.8408,-2.8364,-2.8052,-2.7745,-2.7152,-3.2943,-3.2982,-3.2905,-3.2982,-3.2905,-3.2927,-3.294,-3.3005,-3.3054,-3.3099,-3.2931,-3.158,-3.0943,-3.0882,-3.0903,-3.0884,-3.0886,-3.0895,-3.0897,-3.0879,-3.084,-3.08,-3.08,-3.0793,-3.0788,-3.0786,-3.0791,-3.0762,-3.0602,-3.0622,-3.0214,-2.9275,-2.7721,-2.6926,-2.6712,-2.6007,-2.5613,-2.5613,-2.5593,-2.5591,-2.5601,-2.5595,-2.5595,-2.5595,-2.5595,-2.5556,-2.5426,-2.5479,-2.544,-2.5382,-2.5304,-2.5323,-2.5323,-2.5343,-2.5382,-2.5453,-2.5453,-2.5511,-2.5589,-2.5609,-2.5589,-2.5589,-2.5589,-2.5589,-2.5589,-2.5564,-2.555,-2.5553,-2.5503,-2.5503,-2.5484,-2.5534,-2.5824,-2.65,-2.6566,-2.6912,-2.776,-2.8581,-2.9143,-2.924,-2.9956,-3.0509,-3.0549,-3.0586,-3.0632,-3.0684,-3.0692,-3.068,-3.0668,-3.0676,-3.0676,-3.0668,-3.0645,-3.0613,-3.0604,-3.0645,-3.0676,-3.0683,-3.0678,-3.0698,-3.071,-3.0704,-3.0626,-3.0481,-3.0599,-3.058,-3.0525,-3.0525,-3.0166,-2.9561,-2.9332,-2.9167,-2.847,-2.8283,-2.7893,-3.3147,-3.3147,-3.3119,-3.3139,-3.3147,-3.3156,-3.3172,-3.3254,-3.3232,-3.3284,-3.3268,-3.2601,-3.2046,-3.1582,-3.1075,-3.086,-3.0899,-3.0925,-3.0907,-3.0888,-3.0871,-3.0852,-3.0873,-3.0875,-3.0859,-3.0859,-3.0857,-3.0817,-3.0813,-3.0801,-3.0384,-2.9601,-2.8769,-2.8197,-2.7654,-2.6802,-2.6365,-2.6346,-2.5894,-2.5652,-2.5654,-2.563,-2.561,-2.561,-2.5605,-2.56,-2.56,-2.5604,-2.5613,-2.5613,-2.5607,-2.5601,-2.5601,-2.5601,-2.5601,-2.5613,-2.5609,-2.56,-2.56,-2.5605,-2.561,-2.561,-2.561,-2.561,-2.561,-2.5604,-2.5782,-2.6182,-2.5873,-2.5725,-2.6195,-2.6285,-2.6595,-2.7331,-2.7532,-2.7869,-2.8725,-2.9125,-2.952,-3.0032,-3.0409,-3.0614,-3.0645,-3.0661,-3.0676,-3.071,-3.0704,-3.0717,-3.0704,-3.0704,-3.0704,-3.0698,-3.0678,-3.0664,-3.0656,-3.0685,-3.0704,-3.0698,-3.073,-3.0773,-3.075,-3.0745,-3.0764,-3.0763,-3.0813,-3.0829,-3.0735,-3.0798,-3.064,-3.0253,-3.0257,-3.0125,-2.9775,-2.9755,-2.9423,-3.3731,-3.3731,-3.3731,-3.3731,-3.3731,-3.3731,-3.3771,-3.3839,-3.3847,-3.3891,-3.3944,-3.3725,-3.3307,-3.267,-3.1646,-3.1067,-3.0877,-3.0877,-3.0877,-3.086,-3.086,-3.088,-3.088,-3.088,-3.0923,-3.0911,-3.0912,-3.0875,-3.0819,-3.082,-3.0526,-2.9997,-2.9675,-2.922,-2.8576,-2.7727,-2.7156,-2.6883,-2.6334,-2.5944,-2.5749,-2.5651,-2.5623,-2.5625,-2.5632,-2.5609,-2.5609,-2.561,-2.56,-2.56,-2.5609,-2.5604,-2.5604,-2.5604,-2.5609,-2.5615,-2.561,-2.5604,-2.5628,-2.5617,-2.5621,-2.564,-2.5621,-2.5621,-2.5632,-2.5595,-2.6004,-2.6766,-2.6972,-2.7317,-2.7077,-2.7188,-2.7557,-2.834,-2.8476,-2.8826,-2.9655,-2.9784,-3.0024,-3.0594,-3.062,-3.0633,-3.0685,-3.0691,-3.0704,-3.072,-3.073,-3.0882,-3.1023,-3.1125,-3.1203,-3.1397,-3.1471,-3.1231,-3.0853,-3.0722,-3.0714,-3.0745,-3.0774,-3.081,-3.0813,-3.0813,-3.0798,-3.0804,-3.0868,-3.0868,-3.0838,-3.0832,-3.082,-3.082,-3.08,-3.0761,-3.0605,-3.08,-3.0604,-3.5309,-3.5264,-3.5284,-3.5207,-3.5284,-3.5245,-3.5303,-3.5218,-3.5369,-3.5484,-3.5348,-3.4753,-3.4423,-3.4205,-3.2747,-3.1613,-3.0927,-3.083,-3.0813,-3.0799,-3.0799,-3.0799,-3.0801,-3.088,-3.0899,-3.0901,-3.0901,-3.0882,-3.0882,-3.0882,-3.0888,-3.0799,-3.0057,-2.9629,-2.9414,-2.8672,-2.7832,-2.7246,-2.7031,-2.6562,-2.584,-2.5722,-2.5754,-2.5697,-2.5699,-2.5664,-2.5601,-2.5598,-2.5598,-2.5598,-2.5617,-2.5593,-2.5598,-2.5598,-2.5609,-2.56,-2.56,-2.5628,-2.5679,-2.5707,-2.5687,-2.5683,-2.5691,-2.5722,-2.5808,-2.5673,-2.6077,-2.6911,-2.9051,-2.9715,-2.8474,-2.8169,-2.8496,-2.9294,-2.9435,-2.984,-3.058,-3.0578,-3.07,-3.0711,-3.0701,-3.0697,-3.0697,-3.0704,-3.0818,-3.0879,-3.0855,-3.1153,-3.1844,-3.2024,-3.2316,-3.2826,-3.2961,-3.2658,-3.1173,-3.1013,-3.0988,-3.0802,-3.0816,-3.0835,-3.0857,-3.0878,-3.0839,-3.082,-3.0859,-3.0859,-3.0879,-3.0879,-3.0877,-3.0874,-3.087,-3.0866,-3.085,-3.0864,-3.0728,-3.534,-3.534,-3.536,-3.534,-3.534,-3.534,-3.5388,-3.543,-3.5463,-3.5509,-3.5523,-3.5276,-3.4844,-3.4351,-3.3788,-3.279,-3.1583,-3.1051,-3.079,-3.0798,-3.0798,-3.0785,-3.0796,-3.0836,-3.0838,-3.0841,-3.0821,-3.0841,-3.0841,-3.088,-3.0921,-3.0886,-3.0593,-3.0439,-3.0284,-2.9562,-2.8956,-2.8644,-2.8136,-2.7415,-2.6615,-2.6537,-2.6287,-2.5742,-2.5694,-2.5701,-2.5664,-2.5671,-2.5658,-2.5678,-2.5668,-2.566,-2.566,-2.566,-2.566,-2.5656,-2.5668,-2.5668,-2.5689,-2.5693,-2.5696,-2.5696,-2.5694,-2.5987,-2.6319,-2.6076,-2.6464,-2.8371,-2.99,-3.0428,-2.9991,-2.938,-2.9386,-3.0141,-3.0336,-3.0419,-3.0701,-3.0794,-3.0774,-3.0752,-3.0762,-3.0757,-3.0927,-3.1243,-3.1604,-3.1674,-3.2087,-3.2518,-3.2793,-3.2929,-3.3086,-3.3301,-3.3379,-3.3184,-3.2672,-3.2096,-3.1766,-3.1143,-3.0877,-3.0898,-3.0916,-3.0895,-3.0855,-3.0836,-3.085,-3.085,-3.0855,-3.0894,-3.0888,-3.0847,-3.0841,-3.086,-3.0821,-3.0841,-3.0841,-3.527,-3.527,-3.527,-3.527,-3.5289,-3.527,-3.532,-3.5369,-3.5369,-3.5412,-3.5443,-3.5457,-3.5149,-3.465,-3.4392,-3.3761,-3.2683,-3.1689,-3.1198,-3.1159,-3.091,-3.0786,-3.0798,-3.0798,-3.0801,-3.0785,-3.0785,-3.0788,-3.0791,-3.083,-3.0872,-3.0858,-3.0877,-3.0877,-3.076,-3.0272,-2.9882,-2.955,-2.9006,-2.8283,-2.7542,-2.7427,-2.7015,-2.6277,-2.6112,-2.5976,-2.5721,-2.5696,-2.5689,-2.5707,-2.5698,-2.5693,-2.569,-2.5693,-2.5693,-2.5698,-2.5696,-2.5703,-2.5703,-2.5702,-2.5819,-2.6091,-2.6131,-2.6502,-2.7244,-2.6874,-2.7656,-2.9236,-3.0347,-3.0834,-3.0741,-3.029,-3.0196,-3.069,-3.0785,-3.0785,-3.0804,-3.0824,-3.0821,-3.0816,-3.0798,-3.0936,-3.1346,-3.1777,-3.2168,-3.246,-3.3064,-3.3415,-3.363,-3.3767,-3.3981,-3.4195,-3.4349,-3.4211,-3.3942,-3.3671,-3.3086,-3.2421,-3.1406,-3.1263,-3.1161,-3.1077,-3.0919,-3.088,-3.0841,-3.0841,-3.0841,-3.088,-3.086,-3.0801,-3.0801,-3.0821,-3.0801,-3.0801,-3.0801,-3.5209,-3.519,-3.519,-3.5209,-3.519,-3.519,-3.5226,-3.5293,-3.5293,-3.5339,-3.5379,-3.5379,-3.535,-3.518,-3.461,-3.4243,-3.3948,-3.2751,-3.2071,-3.1954,-3.1231,-3.0891,-3.0901,-3.0823,-3.0784,-3.0789,-3.0784,-3.0789,-3.0802,-3.0806,-3.0813,-3.0807,-3.081,-3.081,-3.0799,-3.0679,-3.035,-2.9845,-2.963,-2.9162,-2.842,-2.8323,-2.7893,-2.7093,-2.694,-2.6555,-2.5799,-2.5721,-2.5703,-2.5703,-2.5703,-2.5703,-2.5702,-2.5703,-2.5703,-2.5703,-2.5703,-2.5701,-2.5693,-2.5767,-2.6199,-2.6704,-2.6956,-2.7388,-2.8112,-2.8207,-2.8598,-2.9613,-3.0355,-3.0823,-3.0862,-3.0808,-3.0757,-3.082,-3.082,-3.08,-3.082,-3.0859,-3.0898,-3.0898,-3.0918,-3.1348,-3.2129,-3.2518,-3.2729,-3.325,-3.3598,-3.391,-3.4359,-3.4593,-3.5059,-3.5584,-3.5547,-3.5179,-3.5215,-3.5235,-3.4552,-3.381,-3.2602,-3.1897,-3.178,-3.166,-3.1172,-3.1036,-3.088,-3.086,-3.0801,-3.0841,-3.0821,-3.0801,-3.0801,-3.0821,-3.0801,-3.0801,-3.0801,-3.519,-3.519,-3.519,-3.519,-3.519,-3.519,-3.5209,-3.5226,-3.5226,-3.5242,-3.5258,-3.5258,-3.5289,-3.5281,-3.5047,-3.4995,-3.4955,-3.3971,-3.3267,-3.2749,-3.1957,-3.1585,-3.1501,-3.1026,-3.0764,-3.0799,-3.0799,-3.0804,-3.0784,-3.0784,-3.0793,-3.0798,-3.0802,-3.0786,-3.0798,-3.0774,-3.0625,-3.0462,-3.0426,-3.0018,-2.9279,-2.9201,-2.8771,-2.7952,-2.7327,-2.6843,-2.6592,-2.6025,-2.5714,-2.5696,-2.5696,-2.5697,-2.5697,-2.5696,-2.5696,-2.5696,-2.5696,-2.5694,-2.5787,-2.6253,-2.6683,-2.7073,-2.7542,-2.8303,-2.9006,-2.8986,-2.9335,-3.0214,-3.0665,-3.0821,-3.0841,-3.0841,-3.0845,-3.085,-3.087,-3.085,-3.0871,-3.0909,-3.0909,-3.0968,-3.1358,-3.1944,-3.2608,-3.3133,-3.3873,-3.4259,-3.4725,-3.521,-3.5386,-3.5428,-3.5623,-3.5971,-3.5955,-3.5935,-3.5779,-3.5662,-3.533,-3.494,-3.4081,-3.2988,-3.2714,-3.2148,-3.1641,-3.1407,-3.1211,-3.1075,-3.0997,-3.0997,-3.1133,-3.0997,-3.1036,-3.0977,-3.0841,-3.088,-3.1016,-3.519,-3.519,-3.519,-3.519,-3.519,-3.519,-3.519,-3.519,-3.519,-3.519,-3.519,-3.519,-3.5226,-3.5242,-3.5261,-3.5308,-3.5311,-3.4817,-3.4411,-3.3862,-3.2822,-3.2393,-3.228,-3.153,-3.1118,-3.108,-3.0853,-3.0704,-3.0736,-3.0736,-3.0742,-3.0764,-3.0769,-3.0779,-3.0793,-3.0793,-3.0786,-3.0801,-3.0781,-3.0554,-3.0152,-3.0038,-2.9647,-2.885,-2.8244,-2.7815,-2.7485,-2.6937,-2.6371,-2.5844,-2.5687,-2.5687,-2.5687,-2.5687,-2.5687,-2.5687,-2.5726,-2.5824,-2.6177,-2.6685,-2.7368,-2.7874,-2.8479,-2.9142,-2.9786,-2.9826,-3.0138,-3.0626,-3.0801,-3.0801,-3.0801,-3.0801,-3.0821,-3.086,-3.086,-3.086,-3.0899,-3.1172,-3.1133,-3.1211,-3.1856,-3.2812,-3.3846,-3.4081,-3.4881,-3.5154,-3.5642,-3.601,-3.601,-3.5971,-3.601,-3.601,-3.5991,-3.5991,-3.601,-3.5991,-3.5991,-3.5857,-3.5623,-3.4627,-3.3983,-3.3007,-3.2285,-3.2402,-3.2304,-3.2265,-3.2207,-3.209,-3.2109,-3.1797,-3.1599,-3.1914,-3.207,-3.1543,-3.1524,-3.519,-3.519,-3.519,-3.519,-3.519,-3.519,-3.519,-3.519,-3.519,-3.519,-3.519,-3.519,-3.519,-3.519,-3.5209,-3.5242,-3.5273,-3.527,-3.52,-3.4845,-3.3959,-3.3265,-3.2871,-3.2203,-3.1845,-3.1603,-3.1023,-3.0653,-3.0618,-3.0599,-3.0642,-3.0678,-3.0685,-3.0709,-3.0759,-3.0769,-3.0779,-3.0774,-3.0778,-3.0771,-3.0729,-3.0752,-3.0423,-2.9669,-2.9455,-2.9045,-2.8457,-2.8125,-2.7383,-2.6058,-2.5883,-2.5844,-2.5746,-2.5726,-2.5863,-2.6039,-2.5902,-2.6371,-2.6898,-2.7347,-2.7915,-2.9162,-2.9513,-2.9962,-3.0528,-3.0606,-3.0606,-3.0782,-3.0801,-3.0801,-3.0801,-3.0801,-3.0821,-3.0899,-3.0899,-3.086,-3.0958,-3.1602,-3.1699,-3.1524,-3.2478,-3.4039,-3.5405,-3.5174,-3.5291,-3.5662,-3.5935,-3.5991,-3.601,-3.601,-3.601,-3.601,-3.601,-3.601,-3.601,-3.601,-3.601,-3.601,-3.6013,-3.5545,-3.4881,-3.3944,-3.3024,-3.3144,-3.33,-3.3319,-3.3202,-3.2949,-3.289,-3.2773,-3.289,-3.33,-3.3066,-3.2461,-3.2187,-3.519,-3.519,-3.519,-3.519,-3.519,-3.519,-3.519,-3.519,-3.519,-3.519,-3.519,-3.519,-3.519,-3.519,-3.519,-3.5209,-3.5226,-3.5277,-3.5312,-3.5266,-3.4976,-3.4026,-3.3233,-3.2859,-3.2425,-3.1903,-3.1603,-3.1139,-3.0577,-3.0588,-3.0567,-3.0554,-3.0543,-3.0579,-3.0649,-3.0656,-3.0672,-3.0714,-3.0739,-3.0755,-3.0786,-3.079,-3.0703,-3.0482,-2.9877,-2.9467,-2.9135,-2.8586,-2.7811,-2.682,-2.6665,-2.6333,-2.5844,-2.6293,-2.6937,-2.7503,-2.7561,-2.7659,-2.7991,-2.8498,-2.9125,-2.9533,-3.0138,-3.0567,-3.0743,-3.0801,-3.0801,-3.0801,-3.0801,-3.0801,-3.0801,-3.0821,-3.1075,-3.1563,-3.1289,-3.1172,-3.166,-3.1953,-3.2207,-3.2734,-3.3651,-3.48,-3.5542,-3.5815,-3.5678,-3.5932,-3.601,-3.601,-3.601,-3.6007,-3.6007,-3.601,-3.601,-3.601,-3.601,-3.601,-3.601,-3.601,-3.601,-3.5971,-3.5428,-3.4861,-3.4042,-3.3573,-3.3785,-3.3863,-3.3593,-3.33,-3.3417,-3.3768,-3.369,-3.3807,-3.3554,-3.3105,-3.3066,-3.519,-3.519,-3.519,-3.519,-3.519,-3.519,-3.519,-3.519,-3.519,-3.519,-3.519,-3.519,-3.519,-3.519,-3.519,-3.519,-3.5209,-3.5245,-3.5261,-3.5261,-3.5251,-3.4784,-3.4103,-3.3766,-3.3288,-3.2825,-3.242,-3.1783,-3.1167,-3.1012,-3.0829,-3.054,-3.0482,-3.052,-3.0565,-3.0557,-3.0591,-3.0644,-3.0658,-3.0685,-3.0764,-3.0755,-3.0774,-3.0712,-3.0267,-3.0053,-2.9978,-2.9595,-2.882,-2.785,-2.7501,-2.6995,-2.5961,-2.6898,-2.8069,-2.9142,-2.8752,-2.8401,-2.885,-2.9338,-2.9747,-3.0079,-3.0606,-3.0743,-3.0801,-3.0801,-3.0801,-3.0801,-3.0801,-3.0801,-3.088,-3.1114,-3.1563,-3.1953,-3.197,-3.2068,-3.2617,-3.3027,-3.3202,-3.3668,-3.4468,-3.538,-3.5965,-3.6001,-3.6001,-3.602,-3.602,-3.6004,-3.601,-3.6004,-3.6001,-3.6001,-3.6004,-3.6004,-3.6004,-3.6004,-3.6007,-3.6007,-3.5988,-3.5988,-3.5835,-3.5503,-3.5135,-3.4569,-3.4488,-3.441,-3.4293,-3.4295,-3.4666,-3.4822,-3.453,-3.4413,-3.4354,-3.3964,-3.3944,-3.5157,-3.5157,-3.5157,-3.5176,-3.5176,-3.5193,-3.5176,-3.5193,-3.5193,-3.5174,-3.519,-3.519,-3.519,-3.519,-3.519,-3.519,-3.519,-3.5209,-3.519,-3.5226,-3.5277,-3.5166,-3.5072,-3.4551,-3.4193,-3.3885,-3.3333,-3.2608,-3.1939,-3.1746,-3.1325,-3.0827,-3.0616,-3.0501,-3.0501,-3.0501,-3.053,-3.0585,-3.0602,-3.0626,-3.0678,-3.0704,-3.0722,-3.0755,-3.075,-3.0657,-3.0685,-3.0583,-3.003,-2.8642,-2.8513,-2.7659,-2.6507,-2.7639,-2.9045,-3.0099,-2.9513,-2.9084,-2.9572,-2.9806,-3.004,-3.0587,-3.0743,-3.0801,-3.0801,-3.0801,-3.0801,-3.0801,-3.0801,-3.088,-3.1133,-3.166,-3.2207,-3.2597,-3.3155,-3.3467,-3.3782,-3.4293,-3.441,-3.3861,-3.5142,-3.5814,-3.5981,-3.5981,-3.5981,-3.5962,-3.5962,-3.5966,-3.597,-3.5966,-3.5962,-3.5977,-3.5962,-3.5994,-3.5978,-3.5978,-3.5981,-3.5981,-3.5962,-3.5981,-3.6004,-3.5851,-3.5913,-3.5737,-3.5327,-3.5308,-3.5503,-3.5659,-3.5757,-3.5698,-3.5308,-3.5561,-3.5796,-3.5115,-3.4822,-3.4982,-3.4964,-3.4964,-3.5001,-3.5038,-3.5037,-3.511,-3.5198,-3.5198,-3.5196,-3.5174,-3.519,-3.519,-3.519,-3.519,-3.519,-3.519,-3.519,-3.519,-3.5209,-3.5261,-3.5293,-3.532,-3.5096,-3.4773,-3.4293,-3.4032,-3.3468,-3.275,-3.2115,-3.1614,-3.1395,-3.081,-3.0425,-3.0419,-3.043,-3.0451,-3.0511,-3.0521,-3.0549,-3.0602,-3.0626,-3.0656,-3.071,-3.0764,-3.0799,-3.0789,-3.079,-3.0606,-3.0199,-2.9603,-2.8791,-2.8186,-2.8732,-2.9767,-3.0392,-3.0528,-3.0294,-3.047,-3.047,-3.0587,-3.0723,-3.0801,-3.0801,-3.0801,-3.0801,-3.0801,-3.0801,-3.0801,-3.1153,-3.1758,-3.1992,-3.2751,-3.3668,-3.4228,-3.4651,-3.5142,-3.4936,-3.485,-3.5256,-3.5583,-3.5914,-3.5922,-3.5908,-3.5914,-3.5914,-3.5919,-3.5919,-3.5919,-3.5919,-3.5908,-3.5891,-3.5914,-3.5924,-3.5929,-3.5938,-3.5942,-3.5947,-3.5947,-3.5947,-3.597,-3.5997,-3.5981,-3.6007,-3.5932,-3.601,-3.601,-3.601,-3.5893,-3.5971,-3.601,-3.601,-3.5932,-3.5642,-3.5545,-3.4793,-3.4793,-3.4793,-3.4851,-3.4908,-3.4908,-3.4983,-3.5092,-3.5147,-3.5181,-3.5196,-3.5193,-3.519,-3.519,-3.519,-3.519,-3.519,-3.519,-3.519,-3.5209,-3.5226,-3.5242,-3.5277,-3.5304,-3.5066,-3.4674,-3.4735,-3.4268,-3.3538,-3.2994,-3.2506,-3.1737,-3.1205,-3.0806,-3.0441,-3.0414,-3.0417,-3.0449,-3.0458,-3.049,-3.0521,-3.0559,-3.0585,-3.0637,-3.0722,-3.0755,-3.0794,-3.079,-3.0785,-3.069,-3.0387,-2.9962,-2.9611,-2.9904,-3.0353,-3.0684,-3.0801,-3.0801,-3.0782,-3.0801,-3.0782,-3.0801,-3.0801,-3.0801,-3.0801,-3.0801,-3.1036,-3.1289,-3.1504,-3.1758,-3.2592,-3.3197,-3.3877,-3.4394,-3.5049,-3.547,-3.5758,-3.55,-3.5334,-3.5797,-3.5844,-3.5879,-3.5866,-3.5866,-3.584,-3.584,-3.5852,-3.5859,-3.5879,-3.5872,-3.5826,-3.5818,-3.5833,-3.5852,-3.5872,-3.5883,-3.5899,-3.5904,-3.5904,-3.5924,-3.5948,-3.5958,-3.5947,-3.5974,-3.5981,-3.6004,-3.6004,-3.6007,-3.601,-3.5991,-3.5991,-3.601,-3.5971,-3.5835,-3.5815,-3.4612,-3.4612,-3.4612,-3.4653,-3.4733,-3.4733,-3.4831,-3.4964,-3.502,-3.5075,-3.5164,-3.5179,-3.516,-3.5193,-3.5193,-3.5193,-3.519,-3.519,-3.519,-3.519,-3.519,-3.519,-3.5226,-3.5258,-3.5254,-3.53,-3.5288,-3.4841,-3.4433,-3.4134,-3.3346,-3.225,-3.1712,-3.1309,-3.0732,-3.0597,-3.0686,-3.0729,-3.0725,-3.0729,-3.067,-3.0623,-3.053,-3.061,-3.0672,-3.0734,-3.0764,-3.0798,-3.0785,-3.0788,-3.0794,-3.0799,-3.0801,-3.0801,-3.0801,-3.0801,-3.0801,-3.0801,-3.0801,-3.0801,-3.0801,-3.0801,-3.0801,-3.0801,-3.0801,-3.1036,-3.1407,-3.1833,-3.2182,-3.2645,-3.3496,-3.4,-3.4519,-3.4935,-3.5524,-3.5825,-3.5897,-3.5889,-3.5833,-3.5853,-3.5859,-3.585,-3.5807,-3.5799,-3.5771,-3.5763,-3.5782,-3.581,-3.5834,-3.5815,-3.5754,-3.5708,-3.5732,-3.5741,-3.5749,-3.5784,-3.5806,-3.5827,-3.584,-3.5866,-3.5885,-3.5891,-3.5903,-3.5934,-3.5966,-3.599,-3.597,-3.597,-3.5955,-3.5965,-3.5985,-3.5981,-3.5985,-3.601,-3.601,-3.4203,-3.4203,-3.4269,-3.4344,-3.4454,-3.4539,-3.4666,-3.481,-3.485,-3.4927,-3.5039,-3.5038,-3.5091,-3.5162,-3.5198,-3.5196,-3.5193,-3.519,-3.519,-3.519,-3.519,-3.519,-3.519,-3.5209,-3.5207,-3.5223,-3.527,-3.5181,-3.4894,-3.4429,-3.3983,-3.3426,-3.2409,-3.1609,-3.1494,-3.1398,-3.1411,-3.1392,-3.1411,-3.1386,-3.1193,-3.0748,-3.0469,-3.0586,-3.0649,-3.0691,-3.073,-3.0769,-3.0793,-3.0793,-3.079,-3.0788,-3.0796,-3.0799,-3.0799,-3.0799,-3.0799,-3.0799,-3.0799,-3.0799,-3.0801,-3.0801,-3.0877,-3.0858,-3.1014,-3.1502,-3.2023,-3.2388,-3.2962,-3.3574,-3.4291,-3.4657,-3.4998,-3.546,-3.5716,-3.5879,-3.5872,-3.584,-3.5799,-3.5807,-3.581,-3.5793,-3.5756,-3.5708,-3.5699,-3.5689,-3.5698,-3.5708,-3.5747,-3.5699,-3.5639,-3.5629,-3.5639,-3.5639,-3.5649,-3.5659,-3.567,-3.5726,-3.5743,-3.576,-3.5788,-3.5815,-3.5838,-3.5853,-3.5883,-3.5919,-3.5924,-3.5909,-3.5914,-3.5919,-3.5942,-3.5942,-3.597,-3.5978,-3.5985,-3.3972,-3.3998,-3.4049,-3.4124,-3.4245,-3.4316,-3.4431,-3.4602,-3.471,-3.4791,-3.4888,-3.4964,-3.5057,-3.5129,-3.5183,-3.5179,-3.5193,-3.519,-3.519,-3.519,-3.519,-3.519,-3.519,-3.519,-3.519,-3.519,-3.5239,-3.5254,-3.5285,-3.4955,-3.451,-3.3973,-3.3187,-3.2708,-3.2325,-3.2229,-3.2234,-3.2215,-3.2201,-3.199,-3.159,-3.0854,-3.0543,-3.052,-3.0632,-3.0642,-3.0678,-3.0716,-3.0745,-3.0735,-3.0726,-3.0747,-3.0781,-3.0781,-3.0798,-3.0785,-3.0788,-3.0791,-3.0791,-3.0794,-3.0794,-3.0869,-3.1165,-3.1454,-3.1682,-3.2244,-3.2884,-3.3477,-3.4155,-3.4817,-3.5196,-3.5165,-3.5418,-3.5655,-3.5803,-3.5788,-3.5743,-3.5697,-3.5698,-3.5728,-3.5766,-3.5737,-3.5669,-3.5629,-3.5626,-3.5604,-3.5612,-3.5631,-3.5654,-3.5623,-3.5581,-3.557,-3.557,-3.5593,-3.5593,-3.5604,-3.5585,-3.5629,-3.5649,-3.5679,-3.5689,-3.5708,-3.5698,-3.5706,-3.5757,-3.5846,-3.5897,-3.5903,-3.5883,-3.5883,-3.5894,-3.5899,-3.5938,-3.5966,-3.5951,-3.3807,-3.386,-3.3868,-3.3947,-3.4055,-3.4105,-3.4245,-3.4363,-3.4558,-3.4687,-3.4768,-3.4888,-3.5002,-3.5094,-3.5164,-3.5196,-3.519,-3.519,-3.519,-3.519,-3.519,-3.519,-3.519,-3.519,-3.519,-3.519,-3.5209,-3.5226,-3.5258,-3.5178,-3.4864,-3.4461,-3.4232,-3.3786,-3.3159,-3.3049,-3.3044,-3.3044,-3.3015,-3.2632,-3.187,-3.1264,-3.091,-3.0906,-3.1013,-3.1157,-3.1291,-3.1348,-3.1202,-3.1087,-3.0989,-3.0934,-3.0793,-3.0755,-3.075,-3.0745,-3.0782,-3.079,-3.0794,-3.0798,-3.0895,-3.12,-3.1691,-3.2038,-3.2493,-3.3049,-3.3843,-3.4748,-3.5295,-3.5671,-3.5643,-3.5733,-3.5693,-3.5669,-3.5679,-3.5679,-3.5649,-3.5629,-3.5648,-3.5667,-3.5708,-3.5688,-3.5604,-3.5562,-3.5558,-3.5572,-3.5566,-3.5566,-3.5591,-3.5591,-3.5566,-3.5541,-3.5534,-3.5565,-3.5577,-3.5577,-3.5558,-3.5562,-3.5593,-3.5604,-3.5615,-3.5635,-3.5637,-3.5629,-3.567,-3.5752,-3.5818,-3.5859,-3.5799,-3.5791,-3.5827,-3.5872,-3.5883,-3.5894,-3.5899,-3.3633,-3.3661,-3.3762,-3.3842,-3.3939,-3.3998,-3.4099,-3.4221,-3.4363,-3.4495,-3.4626,-3.4788,-3.4888,-3.5039,-3.5162,-3.5193,-3.519,-3.519,-3.519,-3.519,-3.519,-3.519,-3.519,-3.519,-3.519,-3.519,-3.519,-3.5209,-3.5226,-3.5207,-3.5168,-3.4901,-3.4419,-3.3964,-3.3903,-3.3865,-3.3869,-3.385,-3.385,-3.3444,-3.2785,-3.2516,-3.2455,-3.2455,-3.2466,-3.2455,-3.2392,-3.2367,-3.2242,-3.1729,-3.1706,-3.1394,-3.0866,-3.0651,-3.0599,-3.0603,-3.0678,-3.0804,-3.0877,-3.094,-3.1291,-3.1768,-3.2157,-3.2464,-3.3186,-3.3784,-3.4536,-3.5553,-3.5749,-3.5715,-3.5708,-3.5669,-3.562,-3.5609,-3.5607,-3.5607,-3.5596,-3.557,-3.5589,-3.5589,-3.5643,-3.5608,-3.554,-3.5509,-3.5496,-3.5515,-3.552,-3.552,-3.5534,-3.5534,-3.5547,-3.5534,-3.5501,-3.5522,-3.5547,-3.5547,-3.5528,-3.5521,-3.5521,-3.5553,-3.5553,-3.5584,-3.5584,-3.562,-3.5626,-3.5629,-3.5659,-3.5679,-3.5679,-3.5698,-3.5743,-3.5784,-3.5801,-3.5833,-3.584,-3.3633,-3.3671,-3.3726,-3.378,-3.386,-3.3921,-3.3998,-3.4099,-3.4269,-3.4404,-3.4517,-3.4708,-3.4869,-3.5038,-3.516,-3.519,-3.519,-3.519,-3.519,-3.519,-3.519,-3.519,-3.519,-3.519,-3.519,-3.519,-3.519,-3.519,-3.519,-3.519,-3.519,-3.5133,-3.4885,-3.4713,-3.4598,-3.4655,-3.4674,-3.4541,-3.4254,-3.385,-3.3463,-3.3106,-3.2867,-3.2861,-3.2935,-3.2981,-3.3006,-3.2928,-3.281,-3.2436,-3.2461,-3.1835,-3.1204,-3.1371,-3.1948,-3.1842,-3.198,-3.1878,-3.1525,-3.1456,-3.1903,-3.2608,-3.3114,-3.3852,-3.447,-3.4811,-3.5075,-3.5601,-3.5669,-3.5657,-3.5657,-3.5635,-3.5593,-3.557,-3.5558,-3.5546,-3.5534,-3.554,-3.5534,-3.5534,-3.5554,-3.5522,-3.5509,-3.5502,-3.5489,-3.5501,-3.5507,-3.5507,-3.5507,-3.552,-3.552,-3.5507,-3.5488,-3.5501,-3.5501,-3.5515,-3.5515,-3.5509,-3.5509,-3.5509,-3.5528,-3.5528,-3.556,-3.5541,-3.5547,-3.554,-3.5553,-3.5581,-3.5618,-3.5648,-3.5648,-3.5698,-3.5752,-3.5752,-3.5768,-3.3661,-3.3726,-3.3726,-3.3753,-3.3788,-3.386,-3.3921,-3.4023,-3.4173,-3.4316,-3.4454,-3.4689,-3.4946,-3.5094,-3.516,-3.519,-3.519,-3.519,-3.519,-3.519,-3.519,-3.519,-3.519,-3.519,-3.519,-3.519,-3.519,-3.519,-3.519,-3.519,-3.519,-3.519,-3.5114,-3.5114,-3.5171,-3.5114,-3.5095,-3.5057,-3.4617,-3.4369,-3.4213,-3.3769,-3.3555,-3.3474,-3.3446,-3.3475,-3.3475,-3.3561,-3.3563,-3.3192,-3.3199,-3.2651,-3.1904,-3.2247,-3.2763,-3.2749,-3.2807,-3.2725,-3.2473,-3.2425,-3.2657,-3.3355,-3.4158,-3.4817,-3.5308,-3.5648,-3.5629,-3.5566,-3.5577,-3.5584,-3.5584,-3.5577,-3.556,-3.5515,-3.5502,-3.5495,-3.5501,-3.5515,-3.5515,-3.5515,-3.5515,-3.5501,-3.5501,-3.5495,-3.5495,-3.5488,-3.5507,-3.5507,-3.5507,-3.5507,-3.5507,-3.5507,-3.5507,-3.5507,-3.5507,-3.5507,-3.5507,-3.5507,-3.5507,-3.5507,-3.552,-3.552,-3.552,-3.5507,-3.5507,-3.5501,-3.5522,-3.5553,-3.5581,-3.5581,-3.5593,-3.5637,-3.5669,-3.5689,-3.5718,-3.3671,-3.3788,-3.3807,-3.3807,-3.3807,-3.3807,-3.3868,-3.3998,-3.4055,-3.4245,-3.4431,-3.473,-3.4946,-3.5092,-3.516,-3.5174,-3.519,-3.519,-3.519,-3.519,-3.519,-3.519,-3.519,-3.519,-3.519,-3.519,-3.519,-3.519,-3.519,-3.519,-3.519,-3.519,-3.519,-3.519,-3.519,-3.519,-3.519,-3.519,-3.498,-3.498,-3.498,-3.4846,-3.4808,-3.4846,-3.4942,-3.5018,-3.5015,-3.4871,-3.46,-3.3983,-3.3973,-3.3878,-3.3292,-3.3196,-3.3422,-3.3561,-3.3403,-3.344,-3.357,-3.3299,-3.3381,-3.4106,-3.4788,-3.5277,-3.5425,-3.554,-3.554,-3.5496,-3.5495,-3.5495,-3.5509,-3.5509,-3.5501,-3.5501,-3.5482,-3.5501,-3.5488,-3.5488,-3.5488,-3.5488,-3.5507,-3.5507,-3.5507,-3.5501,-3.5482,-3.5488,-3.5507,-3.5507,-3.5507,-3.5507,-3.5507,-3.5507,-3.5507,-3.5507,-3.5507,-3.5507,-3.5507,-3.5507,-3.5507,-3.5507,-3.5507,-3.5507,-3.5507,-3.5507,-3.5507,-3.5507,-3.5488,-3.5509,-3.5547,-3.5528,-3.5553,-3.5601,-3.5646,-3.5678,-3.5728,-3.3643,-3.3734,-3.378,-3.3807,-3.3807,-3.3807,-3.386,-3.3947,-3.4023,-3.4197,-3.4473,-3.4728,-3.4908,-3.502,-3.5145,-3.5176,-3.5174,-3.519,-3.519,-3.519,-3.519,-3.519,-3.519,-3.519,-3.519,-3.519,-3.519,-3.519,-3.519,-3.519,-3.519,-3.519,-3.519,-3.519,-3.519,-3.519,-3.519,-3.519,-3.519,-3.519,-3.519,-3.519,-3.519,-3.519,-3.519,-3.519,-3.5152,-3.5207,-3.5015,-3.4824,-3.4725,-3.4592,-3.4496,-3.4244,-3.4263,-3.4439,-3.4186,-3.4359,-3.4485,-3.4136,-3.409,-3.4743,-3.5215,-3.536,-3.534,-3.536,-3.536,-3.536,-3.5393,-3.5393,-3.5393,-3.5407,-3.5446,-3.546,-3.546,-3.5474,-3.5507,-3.5507,-3.5507,-3.5507,-3.5507,-3.5507,-3.5507,-3.5488,-3.5488,-3.5507,-3.5507,-3.5507,-3.5507,-3.5507,-3.5507,-3.5507,-3.5507,-3.5622,-3.5661,-3.5584,-3.5545,-3.5622,-3.5661,-3.5661,-3.5718,-3.5507,-3.5507,-3.5507,-3.5507,-3.5507,-3.5507,-3.5507,-3.5501,-3.5495,-3.5534,-3.5553,-3.5601,-3.5676,-3.5697,-3.3615,-3.3698,-3.3753,-3.378,-3.3807,-3.3807,-3.3834,-3.3895,-3.3947,-3.4148,-3.4476,-3.4687,-3.4869,-3.5001,-3.5147,-3.5179,-3.5193,-3.519,-3.519,-3.519,-3.519,-3.519,-3.519,-3.519,-3.519,-3.519,-3.519,-3.519,-3.519,-3.519,-3.519,-3.519,-3.519,-3.519,-3.519,-3.519,-3.519,-3.519,-3.519,-3.519,-3.519,-3.519,-3.519,-3.519,-3.519,-3.519,-3.519,-3.519,-3.519,-3.5133,-3.5114,-3.5152,-3.5171,-3.519,-3.519,-3.519,-3.519,-3.519,-3.5035,-3.4871,-3.4702,-3.5162,-3.5228,-3.5289,-3.5273,-3.5242,-3.5254,-3.5304,-3.5304,-3.5285,-3.53,-3.5364,-3.5412,-3.5427,-3.5474,-3.5507,-3.5507,-3.5507,-3.5507,-3.5507,-3.5507,-3.5507,-3.5526,-3.5545,-3.5622,-3.5584,-3.5507,-3.5507,-3.5507,-3.5507,-3.5507,-3.5507,-3.5507,-3.568,-3.5853,-3.6334,-3.6757,-3.6642,-3.6584,-3.618,-3.6065,-3.5776,-3.5526,-3.5507,-3.5507,-3.5507,-3.5507,-3.5507,-3.5507,-3.5488,-3.5509,-3.5521,-3.5639,-3.5695,-3.5695,-3.3577,-3.3698,-3.3698,-3.3753,-3.3807,-3.3807,-3.3842,-3.3895,-3.3921,-3.408,-3.4386,-3.4645,-3.4849,-3.4983,-3.5111,-3.5162,-3.5193,-3.5193,-3.5174,-3.519,-3.519,-3.519,-3.519,-3.519,-3.519,-3.519,-3.519,-3.519,-3.519,-3.519,-3.519,-3.519,-3.519,-3.519,-3.519,-3.519,-3.519,-3.519,-3.519,-3.519,-3.519,-3.519,-3.519,-3.519,-3.519,-3.519,-3.519,-3.519,-3.519,-3.519,-3.519,-3.519,-3.519,-3.519,-3.519,-3.519,-3.519,-3.519,-3.5171,-3.5133,-3.5168,-3.5203,-3.5226,-3.5207,-3.519,-3.5209,-3.5226,-3.5273,-3.5242,-3.5258,-3.5285,-3.533,-3.5364,-3.5412,-3.5441,-3.5474,-3.5474,-3.5507,-3.5507,-3.5507,-3.5507,-3.5507,-3.5532,-3.557,-3.5685,-3.568,-3.5545,-3.5545,-3.568,-3.5968,-3.6142,-3.593,-3.5968,-3.6122,-3.6546,-3.7541,-3.7964,-3.7796,-3.743,-3.6949,-3.6372,-3.5911,-3.5699,-3.5565,-3.5507,-3.5507,-3.5507,-3.5507,-3.5488,-3.5501,-3.5483,-3.5514,-3.5631,-3.5704,-3.5693,-3.3549,-3.3633,-3.3671,-3.3753,-3.3807,-3.3807,-3.3834,-3.386,-3.3913,-3.4023,-3.4221,-3.4431,-3.4666,-3.483,-3.4964,-3.5075,-3.5179,-3.5179,-3.5196,-3.519,-3.5174,-3.519,-3.519,-3.519,-3.519,-3.519,-3.519,-3.519,-3.519,-3.519,-3.519,-3.519,-3.519,-3.519,-3.519,-3.519,-3.519,-3.519,-3.519,-3.519,-3.519,-3.519,-3.519,-3.519,-3.519,-3.519,-3.519,-3.519,-3.519,-3.519,-3.519,-3.519,-3.519,-3.519,-3.519,-3.519,-3.519,-3.519,-3.519,-3.5171,-3.519,-3.519,-3.519,-3.519,-3.519,-3.519,-3.519,-3.5207,-3.519,-3.5226,-3.5242,-3.5289,-3.5304,-3.533,-3.5379,-3.546,-3.5474,-3.5474,-3.5507,-3.5507,-3.5507,-3.5988,-3.6199,-3.6334,-3.6411,-3.6622,-3.6622,-3.6392,-3.6411,-3.7007,-3.7353,-3.6853,-3.6699,-3.6796,-3.7219,-3.8349,-3.8676,-3.8354,-3.7988,-3.7512,-3.6897,-3.6358,-3.5916,-3.5801,-3.5628,-3.5507,-3.5507,-3.5488,-3.5482,-3.5489,-3.5496,-3.5502,-3.5558,-3.562,-3.5639,-3.3491,-3.3577,-3.3643,-3.3698,-3.378,-3.3788,-3.3807,-3.3834,-3.3868,-3.3972,-3.4124,-3.4293,-3.4517,-3.4728,-3.4849,-3.4964,-3.5129,-3.5129,-3.5181,-3.5176,-3.5176,-3.5193,-3.5174,-3.519,-3.519,-3.519,-3.519,-3.519,-3.519,-3.519,-3.519,-3.519,-3.519,-3.519,-3.519,-3.519,-3.519,-3.519,-3.519,-3.519,-3.519,-3.519,-3.519,-3.519,-3.519,-3.519,-3.519,-3.519,-3.519,-3.519,-3.519,-3.519,-3.519,-3.519,-3.519,-3.519,-3.519,-3.519,-3.519,-3.519,-3.519,-3.519,-3.519,-3.519,-3.519,-3.519,-3.519,-3.519,-3.519,-3.519,-3.5209,-3.5242,-3.5289,-3.53,-3.5403,-3.547,-3.5628,-3.5628,-3.6007,-3.5949,-3.6238,-3.6661,-3.7007,-3.7123,-3.7276,-3.7526,-3.7757,-3.7507,-3.7276,-3.7777,-3.8257,-3.7853,-3.7661,-3.7834,-3.8373,-3.9315,-3.9392,-3.895,-3.8584,-3.8257,-3.782,-3.7339,-3.6685,-3.5998,-3.5801,-3.5641,-3.5526,-3.5488,-3.5501,-3.5482,-3.5495,-3.5515,-3.5514,-3.5553,-3.5604,-3.3422,-3.3491,-3.3577,-3.3661,-3.3698,-3.3762,-3.3807,-3.3807,-3.3868,-3.3954,-3.4099,-3.4221,-3.4409,-3.4626,-3.4728,-3.4849,-3.4964,-3.5002,-3.5075,-3.5147,-3.5164,-3.5179,-3.5193,-3.519,-3.519,-3.519,-3.519,-3.519,-3.519,-3.519,-3.519,-3.519,-3.519,-3.519,-3.519,-3.519,-3.519,-3.519,-3.519,-3.519,-3.519,-3.519,-3.519,-3.519,-3.519,-3.519,-3.519,-3.519,-3.519,-3.519,-3.519,-3.519,-3.519,-3.519,-3.519,-3.519,-3.519,-3.519,-3.519,-3.519,-3.519,-3.519,-3.519,-3.519,-3.519,-3.519,-3.519,-3.519,-3.519,-3.519,-3.519,-3.5242,-3.5273,-3.5377,-3.5518,-3.5643,-3.582,-3.6122,-3.6622,-3.693,-3.7353,-3.7719,-3.793,-3.8065,-3.818,-3.8604,-3.8815,-3.8777,-3.8546,-3.8411,-3.8777,-3.8738,-3.8681,-3.8984,-3.958,-4.0085,-4.0104,-3.9623,-3.9469,-3.9161,-3.8738,-3.8469,-3.8161,-3.7473,-3.6281,-3.5839,-3.5911,-3.5738,-3.5488,-3.5488,-3.5501,-3.5515,-3.5534,-3.5547,-3.5566,-3.3452,-3.3509,-3.3577,-3.3661,-3.3698,-3.378,-3.3807,-3.3807,-3.3815,-3.3868,-3.3991,-3.4049,-3.4221,-3.4427,-3.4476,-3.4666,-3.4769,-3.4869,-3.4965,-3.502,-3.5092,-3.5164,-3.5198,-3.5176,-3.5193,-3.519,-3.519,-3.519,-3.519,-3.519,-3.519,-3.519,-3.519,-3.519,-3.519,-3.519,-3.519,-3.519,-3.519,-3.519,-3.519,-3.519,-3.519,-3.519,-3.519,-3.519,-3.519,-3.519,-3.519,-3.519,-3.519,-3.519,-3.519,-3.519,-3.519,-3.519,-3.519,-3.519,-3.519,-3.519,-3.519,-3.519,-3.519,-3.519,-3.519,-3.519,-3.519,-3.519,-3.5209,-3.5229,-3.5381,-3.5455,-3.5599,-3.5799,-3.6002,-3.6319,-3.6555,-3.7046,-3.7526,-3.795,-3.8373,-3.8565,-3.8796,-3.8911,-3.9065,-3.9585,-3.9835,-3.9758,-3.9662,-3.9469,-3.9373,-3.9373,-3.9469,-3.97,-3.9912,-4.0373,-4.0431,-4.0354,-4.0104,-3.9969,-3.9796,-3.9604,-3.9638,-3.8926,-3.7623,-3.6853,-3.643,-3.6161,-3.5776,-3.5532,-3.5526,-3.552,-3.5534,-3.5528,-3.5541,-3.3422,-3.3481,-3.3538,-3.3605,-3.3698,-3.378,-3.3807,-3.3807,-3.3807,-3.3834,-3.3895,-3.3947,-3.4049,-3.4203,-3.4269,-3.4409,-3.4623,-3.4647,-3.4769,-3.4907,-3.4983,-3.5057,-3.511,-3.5162,-3.5196,-3.5193,-3.5193,-3.519,-3.519,-3.519,-3.519,-3.519,-3.519,-3.519,-3.519,-3.519,-3.519,-3.519,-3.519,-3.519,-3.519,-3.519,-3.519,-3.519,-3.519,-3.519,-3.519,-3.519,-3.519,-3.519,-3.519,-3.519,-3.519,-3.519,-3.519,-3.519,-3.519,-3.519,-3.519,-3.519,-3.519,-3.519,-3.519,-3.519,-3.519,-3.519,-3.519,-3.519,-3.5248,-3.5324,-3.5553,-3.5783,-3.6077,-3.6354,-3.6731,-3.711,-3.7578,-3.807,-3.8507,-3.8931,-3.92,-3.9373,-3.9546,-3.9662,-3.9815,-4.0085,-4.0239,-4.0219,-4.0181,-4.0123,-4.0065,-4.0046,-4.0162,-4.0335,-4.0489,-4.0489,-4.0489,-4.0489,-4.0412,-4.0335,-4.0489,-4.0392,-4.0138,-3.9619,-3.8892,-3.8123,-3.7315,-3.6565,-3.6089,-3.5935,-3.5782,-3.5661,-3.5603,-3.552,-3.5515,-3.3393,-3.3411,-3.3481,-3.3605,-3.3716,-3.3762,-3.3807,-3.3807,-3.3807,-3.3815,-3.3868,-3.3895,-3.3972,-3.4074,-3.4099,-3.4197,-3.4363,-3.445,-3.4561,-3.4787,-3.4849,-3.4927,-3.5002,-3.5092,-3.5127,-3.5162,-3.5196,-3.5193,-3.519,-3.519,-3.519,-3.519,-3.519,-3.519,-3.519,-3.519,-3.519,-3.519,-3.519,-3.519,-3.519,-3.519,-3.519,-3.519,-3.519,-3.519,-3.519,-3.519,-3.519,-3.519,-3.519,-3.519,-3.519,-3.519,-3.519,-3.519,-3.519,-3.519,-3.519,-3.519,-3.519,-3.519,-3.519,-3.519,-3.519,-3.519,-3.519,-3.542,-3.5534,-3.5878,-3.6146,-3.6489,-3.6791,-3.7182,-3.7597,-3.7913,-3.8266,-3.8815,-3.9392,-3.9738,-3.9854,-4.0027,-4.0046,-4.0123,-4.0104,-4.0412,-4.0489,-4.0489,-4.0489,-4.0489,-4.0489,-4.0489,-4.0489,-4.0489,-4.0489,-4.0489,-4.0489,-4.0489,-4.0489,-4.0489,-4.0489,-4.0489,-4.0489,-3.995,-3.9392,-3.8892,-3.82,-3.7411,-3.6853,-3.6757,-3.6507,-3.5988,-3.5815,-3.5911,-3.5622,-3.3393,-3.3393,-3.352,-3.3615,-3.3698,-3.378,-3.3807,-3.3807,-3.3807,-3.3834,-3.3815,-3.3834,-3.3868,-3.3947,-3.3947,-3.4049,-3.4173,-3.4269,-3.4381,-3.4517,-3.4668,-3.4751,-3.4849,-3.4983,-3.502,-3.5092,-3.5127,-3.516,-3.5157,-3.5174,-3.519,-3.519,-3.5174,-3.5174,-3.519,-3.519,-3.5212,-3.5343,-3.5362,-3.542,-3.5477,-3.5286,-3.519,-3.519,-3.519,-3.519,-3.519,-3.519,-3.519,-3.519,-3.519,-3.519,-3.519,-3.519,-3.519,-3.519,-3.519,-3.519,-3.519,-3.519,-3.519,-3.519,-3.519,-3.519,-3.519,-3.519,-3.5343,-3.5649,-3.6031,-3.6432,-3.6852,-3.7215,-3.7632,-3.8065,-3.846,-3.8716,-3.8969,-3.9565,-4.0215,-4.0354,-4.0469,-4.0489,-4.0489,-4.0489,-4.0489,-4.0489,-4.0489,-4.0489,-4.0489,-4.0489,-4.0489,-4.0489,-4.0489,-4.0489,-4.0489,-4.0489,-4.0489,-4.0489,-4.0489,-4.0489,-4.0489,-4.0489,-4.0469,-4.0239,-3.9815,-3.9392,-3.8911,-3.8257,-3.7815,-3.7661,-3.7353,-3.6892,-3.6988,-3.7142,-3.6449,-3.3393,-3.3393,-3.3491,-3.3605,-3.3661,-3.3726,-3.3762,-3.3807,-3.3807,-3.3807,-3.3807,-3.3807,-3.3834,-3.3842,-3.3842,-3.3895,-3.4023,-3.4074,-3.4173,-3.4293,-3.4454,-3.4561,-3.4668,-3.481,-3.4888,-3.4946,-3.5001,-3.5037,-3.5089,-3.5062,-3.5059,-3.5117,-3.5119,-3.5141,-3.5157,-3.5231,-3.5441,-3.5783,-3.5744,-3.5935,-3.5993,-3.5744,-3.5267,-3.519,-3.5209,-3.5229,-3.519,-3.519,-3.519,-3.519,-3.519,-3.519,-3.519,-3.519,-3.519,-3.519,-3.519,-3.519,-3.519,-3.519,-3.519,-3.519,-3.519,-3.519,-3.519,-3.5229,-3.5592,-3.5935,-3.6776,-3.7254,-3.7827,-3.8247,-3.8759,-3.9231,-3.9457,-3.9698,-3.9804,-4.0085,-4.0408,-4.0431,-4.0489,-4.0489,-4.0489,-4.0489,-4.0489,-4.0489,-4.0489,-4.0489,-4.0489,-4.0489,-4.0489,-4.0489,-4.0489,-4.0489,-4.0489,-4.0489,-4.0489,-4.0489,-4.0489,-4.0489,-4.0489,-4.0489,-4.0431,-4.0296,-4.0181,-4.0046,-3.9527,-3.8969,-3.8719,-3.8565,-3.8219,-3.7834,-3.8046,-3.82,-3.7584,-3.3393,-3.3393,-3.3462,-3.352,-3.3605,-3.3689,-3.3726,-3.378,-3.3807,-3.3807,-3.3807,-3.3807,-3.3807,-3.3807,-3.3807,-3.386,-3.3895,-3.3972,-3.4049,-3.4124,-3.4288,-3.4358,-3.4473,-3.4623,-3.4728,-3.4829,-3.4888,-3.4927,-3.4945,-3.4942,-3.4973,-3.499,-3.5013,-3.5035,-3.5162,-3.5408,-3.5696,-3.6207,-3.653,-3.6986,-3.6776,-3.6375,-3.5916,-3.563,-3.542,-3.5381,-3.5381,-3.5248,-3.5248,-3.519,-3.519,-3.519,-3.519,-3.519,-3.519,-3.519,-3.519,-3.519,-3.519,-3.519,-3.519,-3.519,-3.5209,-3.5267,-3.5305,-3.5649,-3.5976,-3.6757,-3.7597,-3.8151,-3.8706,-3.9164,-3.9696,-4.0036,-4.0224,-4.0372,-4.0438,-4.0469,-4.0469,-4.0489,-4.0489,-4.0489,-4.0489,-4.0489,-4.0489,-4.0489,-4.0489,-4.0489,-4.0489,-4.0489,-4.0489,-4.0489,-4.0489,-4.0489,-4.0489,-4.0489,-4.0489,-4.0489,-4.0489,-4.0489,-4.0489,-4.0489,-4.0489,-4.0489,-4.0373,-4.0277,-4.0181,-3.9758,-3.9565,-3.9373,-3.9238,-3.895,-3.8892,-3.895,-3.8681,-3.3393,-3.3411,-3.3481,-3.3509,-3.3538,-3.3661,-3.3716,-3.3726,-3.378,-3.3807,-3.3807,-3.3807,-3.3807,-3.3807,-3.3807,-3.3834,-3.386,-3.3913,-3.3921,-3.3972,-3.4117,-3.4167,-3.424,-3.4404,-3.4583,-3.4687,-3.4788,-3.483,-3.4772,-3.4832,-3.4907,-3.4889,-3.4945,-3.5021,-3.5192,-3.559,-3.6291,-3.6765,-3.7238,-3.7675,-3.7712,-3.7445,-3.7349,-3.7005,-3.6604,-3.6394,-3.6107,-3.5553,-3.5305,-3.519,-3.5248,-3.5267,-3.519,-3.519,-3.519,-3.519,-3.519,-3.519,-3.519,-3.519,-3.519,-3.54,-3.5496,-3.5706,-3.5957,-3.653,-3.7141,-3.8151,-3.882,-3.903,-3.9489,-3.9775,-4.0194,-4.0229,-4.0358,-4.0408,-4.0473,-4.0489,-4.0489,-4.0489,-4.0489,-4.0489,-4.0489,-4.0489,-4.0489,-4.0489,-4.0489,-4.0489,-4.0489,-4.0489,-4.0489,-4.0489,-4.0489,-4.0489,-4.0489,-4.0489,-4.0489,-4.0489,-4.0489,-4.0489,-4.0489,-4.0489,-4.0489,-4.0489,-4.0489,-4.0431,-4.0315,-4.0219,-4.0219,-4.0046,-4.0181,-4.0104,-3.9931,-3.9719,-3.9469]}]]